[[{"header":{"parameterUnit":"m.s-1","parameterCategory":1,"la1":30.6,"la2":28.766,"lo1":-90.7593,"lo2":-88.6598,"dy":0.0162,"dx":0.0183,"nx":116,"ny":114,"refTime":"2023-03-25T12:00:00:Z","depth":0,"parameterNumber":2,"parameterNumberName":"U-component_of_WINDS"},"data":[0.0,0.0,0.0,0.0,0.0,0.0,0.0,0.0,0.0,0.0,0.0,0.0,0.0,0.0,0.0,0.0,0.0,0.0,0.0,0.0,0.0,0.0,0.0,0.0,0.0,0.0,0.0,0.0,0.0,0.0,0.0,0.0,0.0,0.0,0.0,0.0,0.0,0.0,0.0,0.0,0.0,0.0,0.0,0.0,0.0,0.0,0.0,0.0,0.0,0.0,0.0,0.0,0.0,0.0,0.0,0.0,0.0,0.0,0.0,0.0,0.0,0.0,0.0,0.0,0.0,0.0,0.0,0.0,0.0,0.0,0.0,0.0,0.0,0.0,0.0,0.0,0.0,0.0,0.0,0.0,0.0,0.0,0.0,0.0,0.0,0.0,0.0,0.0,0.0,0.0,0.0,0.0,0.0,0.0,0.0,0.0,0.0,0.0,0.0,0.0,0.0,0.0,0.0,0.0,0.0,0.0,0.0,0.0,0.0,0.0,0.0,0.0,0.0,0.0,0.0,0.0,0.0,0.0,0.0,0.0,0.0,0.0,0.0,0.0,0.0,0.0,0.0,0.0,0.0,0.0,0.0,0.0,0.0,0.0,0.0,0.0,0.0,0.0,0.0,0.0,0.0,0.0,0.0,0.0,0.0,0.0,0.0,0.0,0.0,0.0,0.0,0.0,0.0,0.0,0.0,0.0,0.0,0.0,0.0,0.0,0.0,0.0,0.0,0.0,0.0,0.0,0.0,0.0,0.0,0.0,0.0,0.0,0.0,0.0,0.0,0.0,0.0,0.0,0.0,0.0,0.0,0.0,0.0,0.0,0.0,0.0,0.0,0.0,0.0,0.0,0.0,0.0,0.0,0.0,0.0,0.0,0.0,0.0,0.0,0.0,0.0,0.0,0.0,0.0,0.0,0.0,0.0,0.0,0.0,0.0,0.0,0.0,0.0,0.0,0.0,0.0,0.0,0.0,0.0,0.0,0.0,0.0,0.0,0.0,0.0,0.0,0.0,0.0,0.0,0.0,0.0,0.0,0.0,0.0,0.0,0.0,0.0,0.0,0.0,0.0,0.0,0.0,0.0,0.0,0.0,0.0,0.0,0.0,0.0,0.0,0.0,0.0,0.0,0.0,0.0,0.0,0.0,0.0,0.0,0.0,0.0,0.0,0.0,0.0,0.0,0.0,0.0,0.0,0.0,0.0,0.0,0.0,0.0,0.0,0.0,0.0,0.0,0.0,0.0,0.0,0.0,0.0,0.0,0.0,0.0,0.0,0.0,0.0,0.0,0.0,0.0,0.0,0.0,0.0,0.0,0.0,0.0,0.0,0.0,0.0,0.0,0.0,0.0,0.0,0.0,0.0,0.0,0.0,0.0,0.0,0.0,0.0,0.0,0.0,0.0,0.0,0.0,0.0,0.0,0.0,0.0,0.0,0.0,0.0,0.0,0.0,0.0,0.0,0.0,0.0,0.0,0.0,0.0,0.0,0.0,0.0,0.0,0.0,0.0,0.0,0.0,0.0,0.0,0.0,0.0,0.0,0.0,0.0,0.0,0.0,0.0,0.0,0.0,0.0,0.0,0.0,0.0,0.0,0.0,0.0,0.0,0.0,0.0,0.0,0.0,0.0,0.0,0.0,0.0,0.0,0.0,0.0,0.0,0.0,0.0,0.0,0.0,0.0,0.0,0.0,0.0,0.0,0.0,0.0,0.0,0.0,0.0,0.0,0.0,0.0,0.0,0.0,0.0,0.0,0.0,0.0,0.0,0.0,0.0,0.0,0.0,0.0,0.0,0.0,0.0,0.0,0.0,0.0,0.0,0.0,0.0,0.0,0.0,0.0,0.0,0.0,0.0,0.0,0.0,0.0,0.0,0.0,0.0,0.0,0.0,0.0,0.0,0.0,0.0,0.0,0.0,0.0,0.0,0.0,0.0,0.0,0.0,0.0,0.0,0.0,0.0,0.0,0.0,0.0,0.0,0.0,0.0,0.0,0.0,0.0,0.0,0.0,0.0,0.0,0.0,0.0,0.0,0.0,0.0,0.0,0.0,0.0,0.0,0.0,0.0,0.0,0.0,0.0,0.0,0.0,0.0,0.0,0.0,0.0,0.0,0.0,0.0,0.0,0.0,0.0,0.0,0.0,0.0,0.0,0.0,0.0,0.0,0.0,0.0,0.0,0.0,0.0,0.0,0.0,0.0,0.0,0.0,0.0,0.0,0.0,0.0,0.0,0.0,0.0,0.0,0.0,0.0,0.0,0.0,0.0,0.0,0.0,0.0,0.0,0.0,0.0,0.0,0.0,0.0,0.0,0.0,0.0,0.0,0.0,0.0,0.0,0.0,0.0,0.0,0.0,0.0,0.0,0.0,0.0,0.0,0.0,0.0,0.0,0.0,0.0,0.0,0.0,0.0,0.0,0.0,0.0,0.0,0.0,0.0,0.0,0.0,0.0,0.0,0.0,0.0,0.0,0.0,0.0,0.0,0.0,0.0,0.0,0.0,0.0,0.0,0.0,0.0,0.0,0.0,0.0,0.0,0.0,0.0,0.0,0.0,0.0,0.0,0.0,0.0,0.0,0.0,0.0,0.0,0.0,0.0,0.0,0.0,0.0,0.0,0.0,0.0,0.0,0.0,0.0,0.0,0.0,0.0,0.0,0.0,0.0,0.0,0.0,0.0,0.0,0.0,0.0,0.0,0.0,0.0,0.0,0.0,0.0,0.0,0.0,0.0,0.0,0.0,0.0,0.0,0.0,0.0,0.0,0.0,0.0,0.0,0.0,0.0,0.0,0.0,0.0,0.0,0.0,0.0,0.0,0.0,0.0,0.0,0.0,0.0,0.0,0.0,0.0,0.0,0.0,0.0,0.0,0.0,0.0,0.0,0.0,0.0,0.0,0.0,0.0,0.0,0.0,0.0,0.0,0.0,0.0,0.0,0.0,0.0,0.0,0.0,0.0,0.0,0.0,0.0,0.0,0.0,0.0,0.0,0.0,0.0,0.0,0.0,0.0,0.0,0.0,0.0,0.0,0.0,0.0,0.0,0.0,0.0,0.0,0.0,0.0,0.0,0.0,0.0,0.0,0.0,0.0,0.0,0.0,0.0,0.0,0.0,0.0,0.0,0.0,0.0,0.0,0.0,0.0,0.0,0.0,0.0,0.0,0.0,0.0,0.0,0.0,0.0,0.0,0.0,0.0,0.0,0.0,0.0,0.0,0.0,0.0,0.0,0.0,0.0,0.0,0.0,0.0,0.0,0.0,0.0,0.0,0.0,0.0,0.0,0.0,0.0,0.0,0.0,0.0,0.0,0.0,0.0,0.0,0.0,0.0,0.0,0.0,0.0,0.0,0.0,0.0,0.0,0.0,0.0,0.0,0.0,0.0,0.0,0.0,0.0,0.0,0.0,0.0,0.0,0.0,0.0,0.0,0.0,0.0,0.0,0.0,0.0,0.0,0.0,0.0,0.0,0.0,0.0,0.0,0.0,0.0,0.0,0.0,0.0,0.0,0.0,0.0,0.0,0.0,0.0,0.0,0.0,0.0,0.0,0.0,0.0,0.0,0.0,0.0,0.0,0.0,0.0,0.0,0.0,0.0,0.0,0.0,0.0,0.0,0.0,0.0,0.0,0.0,0.0,0.0,0.0,0.0,0.0,0.0,0.0,0.0,0.0,0.0,0.0,0.0,0.0,0.0,0.0,0.0,0.0,0.0,0.0,0.0,0.0,0.0,0.0,0.0,0.0,0.0,0.0,0.0,0.0,0.0,0.0,0.0,0.0,0.0,0.0,0.0,0.0,0.0,0.0,0.0,0.0,0.0,0.0,0.0,0.0,0.0,0.0,0.0,0.0,0.0,0.0,0.0,0.0,0.0,0.0,0.0,0.0,0.0,0.0,0.0,0.0,0.0,0.0,0.0,0.0,0.0,0.0,0.0,0.0,0.0,0.0,0.0,0.0,0.0,0.0,0.0,0.0,0.0,0.0,0.0,0.0,0.0,0.0,0.0,0.0,0.0,0.0,0.0,0.0,0.0,0.0,0.0,0.0,0.0,0.0,0.0,0.0,0.0,0.0,0.0,0.0,0.0,0.0,0.0,0.0,0.0,0.0,0.0,0.0,0.0,0.0,0.0,0.0,0.0,0.0,0.0,0.0,0.0,0.0,0.0,0.0,0.0,0.0,0.0,0.0,0.0,0.0,0.0,0.0,0.0,0.0,0.0,0.0,0.0,0.0,0.0,0.0,0.0,0.0,0.0,0.0,0.0,0.0,0.0,0.0,0.0,0.0,0.0,0.0,0.0,0.0,0.0,0.0,0.0,0.0,0.0,0.0,0.0,0.0,0.0,0.0,0.0,0.0,0.0,0.0,0.0,0.0,0.0,0.0,0.0,0.0,0.0,0.0,0.0,0.0,0.0,0.0,0.0,0.0,0.0,0.0,0.0,0.0,0.0,0.0,0.0,0.0,0.0,0.0,0.0,0.0,0.0,0.0,0.0,0.0,0.0,0.0,0.0,0.0,0.0,0.0,0.0,0.0,0.0,0.0,0.0,0.0,0.0,0.0,0.0,0.0,0.0,0.0,0.0,0.0,0.0,0.0,0.0,0.0,0.0,0.0,0.0,0.0,0.0,0.0,0.0,0.0,0.0,0.0,0.0,0.0,0.0,0.0,0.0,0.0,0.0,0.0,0.0,0.0,0.0,0.0,0.0,0.0,0.0,0.0,0.0,0.0,0.0,0.0,0.0,0.0,0.0,0.0,0.0,0.0,0.0,0.0,0.0,0.0,0.0,0.0,0.0,0.0,0.0,0.0,0.0,0.0,0.0,0.0,0.0,0.0,0.0,0.0,0.0,0.0,0.0,0.0,0.0,0.0,0.0,0.0,0.0,0.0,0.0,0.0,0.0,0.0,0.0,0.0,0.0,0.0,0.0,0.0,0.0,0.0,0.0,0.0,0.0,0.0,0.0,0.0,0.0,0.0,0.0,0.0,0.0,0.0,0.0,0.0,0.0,0.0,0.0,0.0,0.0,0.0,0.0,0.0,0.0,0.0,0.0,0.0,0.0,0.0,0.0,0.0,0.0,0.0,0.0,0.0,0.0,0.0,0.0,0.0,0.0,0.0,0.0,0.0,0.0,0.0,0.0,0.0,0.0,0.0,0.0,0.0,0.0,0.0,0.0,0.0,0.0,0.0,0.0,0.0,0.0,0.0,0.0,0.0,0.0,0.0,0.0,0.0,0.0,0.0,0.0,0.0,0.0,0.0,0.0,0.0,0.0,0.0,0.0,0.0,0.0,0.0,0.0,0.0,0.0,0.0,0.0,0.0,0.0,0.0,0.0,0.0,0.0,0.0,0.0,0.0,0.0,0.0,0.0,0.0,0.0,0.0,0.0,0.0,0.0,0.0,0.0,0.0,0.0,0.0,0.0,0.0,0.0,0.0,0.0,0.0,0.0,0.0,0.0,0.0,0.0,0.0,0.0,0.0,0.0,0.0,0.0,0.0,0.0,0.0,0.0,0.0,0.0,0.0,0.0,0.0,0.0,0.0,0.0,0.0,0.0,0.0,0.0,0.0,0.0,0.0,0.0,0.0,0.0,0.0,0.0,0.0,0.0,0.0,0.0,0.0,0.0,0.0,0.0,0.0,0.0,0.0,0.0,0.0,0.0,0.0,0.0,0.0,0.0,0.0,0.0,0.0,0.0,0.0,0.0,0.0,0.0,0.0,0.0,0.0,0.0,0.0,0.0,0.0,0.0,0.0,0.0,0.0,0.0,0.0,0.0,0.0,0.0,0.0,0.0,0.0,0.0,0.0,0.0,0.0,0.0,0.0,0.0,0.0,0.0,0.0,0.0,0.0,0.0,0.0,0.0,0.0,0.0,0.0,0.0,0.0,0.0,0.0,0.0,0.0,0.0,0.0,0.0,0.0,0.0,0.0,0.0,0.0,0.0,0.0,0.0,0.0,0.0,0.0,0.0,0.0,0.0,0.0,0.0,0.0,0.0,0.0,0.0,0.0,0.0,0.0,0.0,0.0,0.0,0.0,0.0,0.0,0.0,0.0,0.0,0.0,0.0,0.0,0.0,0.0,0.0,0.0,0.0,0.0,0.0,0.0,0.0,0.0,0.0,-4.3509,-4.3207,0.0,0.0,0.0,0.0,0.0,0.0,0.0,0.0,0.0,0.0,0.0,0.0,0.0,0.0,0.0,0.0,0.0,0.0,0.0,0.0,0.0,0.0,0.0,0.0,0.0,0.0,0.0,0.0,0.0,0.0,0.0,0.0,0.0,0.0,0.0,0.0,0.0,0.0,0.0,0.0,0.0,0.0,0.0,0.0,0.0,0.0,0.0,0.0,0.0,0.0,0.0,0.0,0.0,0.0,0.0,0.0,0.0,0.0,0.0,0.0,0.0,0.0,0.0,0.0,0.0,0.0,0.0,0.0,0.0,0.0,0.0,0.0,0.0,0.0,0.0,0.0,0.0,0.0,0.0,0.0,0.0,0.0,0.0,0.0,0.0,0.0,0.0,0.0,0.0,0.0,0.0,0.0,0.0,0.0,0.0,0.0,0.0,0.0,0.0,0.0,0.0,0.0,0.0,0.0,0.0,0.0,0.0,0.0,0.0,0.0,0.0,0.0,0.0,0.0,-4.329,-4.3211,0.0,0.0,0.0,0.0,0.0,0.0,0.0,0.0,0.0,0.0,0.0,0.0,0.0,0.0,0.0,0.0,0.0,0.0,0.0,0.0,0.0,0.0,0.0,0.0,0.0,0.0,0.0,0.0,0.0,0.0,0.0,0.0,0.0,0.0,0.0,0.0,0.0,0.0,0.0,0.0,0.0,0.0,0.0,0.0,0.0,0.0,0.0,0.0,0.0,0.0,0.0,0.0,0.0,0.0,0.0,0.0,0.0,0.0,0.0,0.0,0.0,0.0,0.0,0.0,0.0,0.0,0.0,0.0,0.0,0.0,0.0,0.0,0.0,0.0,0.0,0.0,0.0,0.0,0.0,0.0,0.0,0.0,0.0,0.0,0.0,0.0,0.0,0.0,0.0,0.0,0.0,0.0,0.0,0.0,0.0,0.0,0.0,0.0,0.0,0.0,0.0,0.0,0.0,0.0,0.0,0.0,0.0,0.0,-4.3232,-4.3275,-4.3275,-4.3284,-4.2921,-4.2333,-4.324,-4.3511,-4.3263,-4.3132,0.0,0.0,0.0,0.0,0.0,0.0,0.0,0.0,0.0,0.0,0.0,0.0,0.0,0.0,0.0,0.0,0.0,0.0,0.0,0.0,0.0,0.0,-4.4297,-4.4297,-4.4834,-4.4622,0.0,0.0,0.0,0.0,0.0,0.0,0.0,0.0,0.0,0.0,0.0,0.0,-3.7347,-3.7347,-3.7956,-3.9153,-4.1415,0.0,0.0,0.0,0.0,0.0,0.0,0.0,0.0,0.0,0.0,0.0,0.0,0.0,0.0,0.0,0.0,0.0,0.0,0.0,0.0,0.0,0.0,0.0,0.0,0.0,0.0,0.0,0.0,0.0,0.0,0.0,0.0,0.0,0.0,0.0,0.0,0.0,0.0,0.0,0.0,0.0,0.0,0.0,-4.7071,-4.7014,0.0,0.0,0.0,0.0,0.0,0.0,0.0,0.0,0.0,0.0,0.0,0.0,0.0,-4.2071,-4.2008,-4.2287,-4.2487,-4.2601,-4.2958,-4.3125,-4.3134,-4.32,-4.3159,-4.3069,-4.3324,0.0,-4.2343,-4.198,0.0,0.0,0.0,0.0,0.0,0.0,0.0,0.0,0.0,0.0,0.0,0.0,0.0,0.0,0.0,0.0,0.0,0.0,0.0,0.0,0.0,-4.3181,-4.3816,-4.4259,-4.3644,-4.3003,-4.2404,0.0,0.0,0.0,0.0,0.0,0.0,0.0,0.0,0.0,-3.7509,-3.6794,-3.6205,-3.625,-3.6489,-3.696,-3.8649,-4.014,-4.1442,-4.221,0.0,0.0,0.0,0.0,0.0,0.0,0.0,0.0,0.0,0.0,0.0,0.0,0.0,0.0,0.0,0.0,0.0,0.0,0.0,0.0,0.0,0.0,0.0,0.0,0.0,0.0,0.0,0.0,0.0,0.0,0.0,0.0,0.0,0.0,0.0,0.0,0.0,0.0,0.0,-4.6459,-4.6289,-4.6229,-4.5899,-4.537,0.0,0.0,0.0,0.0,0.0,0.0,0.0,0.0,0.0,-4.162,-4.1639,-4.1492,-4.1169,-4.1293,-4.1616,-4.2114,-4.2285,-4.241,-4.2483,-4.2518,-4.2559,-4.2582,-4.2723,-4.2572,-4.2257,-4.2302,-4.198,-4.1464,0.0,0.0,0.0,0.0,-4.2412,-4.2707,0.0,0.0,0.0,0.0,0.0,0.0,0.0,0.0,0.0,0.0,0.0,0.0,-4.2799,-4.2837,-4.3153,-4.3956,-4.2695,-4.1852,-4.1797,-4.0969,0.0,0.0,0.0,0.0,0.0,0.0,0.0,-3.7154,-3.658,-3.5942,-3.5257,-3.5083,-3.5168,-3.5469,-3.6487,-3.8083,-4.004,-4.0682,-4.1265,0.0,0.0,0.0,0.0,0.0,0.0,0.0,0.0,0.0,0.0,0.0,0.0,0.0,0.0,0.0,0.0,0.0,0.0,0.0,0.0,0.0,0.0,0.0,0.0,0.0,0.0,0.0,0.0,0.0,0.0,0.0,0.0,0.0,0.0,0.0,0.0,0.0,0.0,-4.5708,-4.5627,-4.564,-4.5141,-4.4527,0.0,0.0,0.0,0.0,0.0,0.0,-4.1288,-4.1619,-4.1536,-4.0893,-4.1112,-4.0928,-4.0224,-4.0467,-4.0788,-4.12,-4.1437,-4.1609,-4.1685,-4.1722,-4.1766,-4.1831,-4.1968,-4.189,-4.1745,-4.2463,-4.2252,-4.1479,-4.1828,-4.2068,-4.2259,-4.2325,-4.2532,-4.264,0.0,0.0,0.0,0.0,0.0,0.0,0.0,0.0,0.0,0.0,0.0,-4.1132,-4.1976,-4.211,-4.2441,-4.3189,-4.2479,-4.1931,-4.1805,-4.0969,-4.0496,0.0,0.0,0.0,0.0,0.0,0.0,-3.7005,-3.5284,-3.441,-3.4346,-3.3524,-3.3674,-3.4686,-3.5571,-3.6464,-3.7416,-3.9082,-3.9519,-3.9237,0.0,0.0,0.0,0.0,0.0,0.0,0.0,0.0,0.0,0.0,0.0,0.0,0.0,0.0,0.0,0.0,0.0,0.0,0.0,0.0,0.0,0.0,0.0,0.0,0.0,0.0,0.0,0.0,0.0,0.0,0.0,0.0,0.0,0.0,0.0,0.0,0.0,0.0,0.0,-4.5742,-4.465,0.0,0.0,0.0,0.0,-4.1096,-4.1292,-4.0793,-3.9315,-4.0272,-4.0516,-3.9714,-4.0423,-4.0383,-3.9464,-4.0344,-4.0364,-3.9522,-4.0422,-4.0843,-4.0852,-4.0998,-4.1046,-4.1053,-4.1206,-4.0781,-4.0156,-4.1757,-4.1864,-4.1025,-4.1061,-4.1481,-4.2017,-4.1194,-4.1507,-4.2093,0.0,0.0,0.0,0.0,0.0,0.0,0.0,0.0,0.0,-4.0573,-4.0622,-4.1028,-4.1892,-4.1102,-4.1009,-4.2311,-4.0665,-3.9728,-4.0158,-3.8854,-3.8296,0.0,0.0,0.0,0.0,0.0,-3.6664,-3.5463,-3.4815,-3.4186,-3.3592,-3.3326,-3.34,-3.3771,-3.4129,-3.4433,-3.4812,-3.7111,-3.8244,-3.8535,-3.8845,-4.0106,0.0,0.0,0.0,0.0,0.0,0.0,0.0,0.0,0.0,0.0,0.0,0.0,0.0,0.0,0.0,0.0,0.0,0.0,0.0,0.0,0.0,0.0,0.0,0.0,0.0,0.0,0.0,0.0,0.0,0.0,0.0,0.0,0.0,0.0,0.0,0.0,0.0,-4.509,-4.4658,0.0,-4.2881,-4.2344,-4.1736,-4.0938,-4.0959,-4.0775,-4.0228,-4.0666,-4.0763,-4.0389,-4.0721,-4.0731,-4.0319,-4.0625,-4.0625,-4.0295,-4.0645,-4.085,-4.0925,-4.0986,-4.1051,-4.1128,-4.1171,-4.0703,-3.9941,-4.0547,-4.0541,-4.012,-3.9637,-3.9917,-4.0454,-3.9675,-3.9615,-3.9838,0.0,0.0,0.0,0.0,0.0,0.0,0.0,0.0,0.0,-4.0208,-4.023,-4.0546,-4.1139,-4.0003,-3.9735,-4.1077,-3.9096,-3.8193,-3.9234,-3.768,-3.7221,0.0,0.0,0.0,0.0,-3.6697,-3.5653,-3.4162,-3.3834,-3.3383,-3.2789,-3.2545,-3.2576,-3.2866,-3.291,-3.3053,-3.337,-3.5123,-3.6284,-3.6966,-3.7243,-3.8626,-4.0469,0.0,0.0,0.0,0.0,0.0,0.0,0.0,0.0,0.0,0.0,0.0,0.0,0.0,0.0,0.0,0.0,0.0,0.0,0.0,0.0,0.0,0.0,0.0,0.0,0.0,0.0,0.0,0.0,0.0,0.0,0.0,0.0,0.0,0.0,-4.5108,-4.5123,-4.4775,-4.4456,-4.3708,-4.2302,-4.1867,-4.1432,-4.0903,-4.0867,-4.0763,-4.0515,-4.0867,-4.0888,-4.0518,-4.0867,-4.0861,-4.0422,-4.0778,-4.0758,-4.0422,-4.078,-4.0988,-4.1076,-4.1076,-4.1126,-4.1172,-4.0898,-4.043,-3.9844,-3.9277,-3.9114,-3.9222,-3.8767,-3.8903,-3.9261,-3.8788,-3.8594,-3.8555,0.0,0.0,0.0,0.0,0.0,0.0,0.0,0.0,-4.0208,-3.9419,-3.9467,-3.9583,-3.9595,-3.8873,-3.8709,-3.9528,-3.7933,-3.7574,-3.9157,-3.763,-3.7456,0.0,0.0,0.0,-3.4766,-3.4614,-3.4144,-3.3264,-3.2352,-3.1924,-3.1955,-3.1105,-3.1151,-3.1966,-3.1965,-3.2387,-3.3128,-3.3147,-3.3573,-3.4366,-3.6128,-3.7093,-3.7671,0.0,0.0,0.0,0.0,0.0,0.0,0.0,0.0,0.0,0.0,0.0,0.0,0.0,0.0,0.0,0.0,0.0,0.0,0.0,0.0,0.0,0.0,0.0,0.0,0.0,0.0,0.0,0.0,0.0,0.0,0.0,0.0,0.0,-4.5267,-4.5324,-4.5223,-4.4765,-4.3919,-4.3061,-4.2338,-4.1386,-4.0864,-4.1033,-4.1017,-4.0704,-4.0019,-4.0742,-4.0801,-3.9961,-4.0762,-4.0739,-3.9797,-4.072,-4.0739,-3.9836,-4.0759,-4.1211,-4.123,-4.1211,-4.1191,-4.1113,-4.0273,-3.9863,-3.9687,-3.8008,-3.7708,-3.8344,-3.8493,-3.8555,-3.8555,-3.8555,-3.8535,-3.8398,0.0,0.0,0.0,0.0,0.0,0.0,0.0,-4.0496,-4.0208,-3.9419,-3.9386,-3.945,-3.9451,-3.8778,-3.8622,-3.9389,-3.7894,-3.7303,-3.8291,-3.6813,0.0,0.0,0.0,0.0,-3.5625,-3.4393,-3.3337,-3.2497,-3.2239,-3.181,-3.1208,-3.0858,-3.0828,-3.1066,-3.101,-3.1083,-3.1274,-3.193,-3.2266,-3.2565,-3.4316,-3.6008,-3.7538,0.0,0.0,0.0,0.0,0.0,0.0,0.0,0.0,0.0,0.0,0.0,0.0,0.0,0.0,0.0,0.0,0.0,0.0,0.0,0.0,0.0,0.0,0.0,0.0,0.0,0.0,0.0,0.0,0.0,0.0,0.0,-4.4259,-4.3754,-4.4346,-4.4749,-4.4465,-4.314,-4.2759,-4.2266,-4.1443,-4.1118,-4.123,-4.1968,-4.1462,-4.1307,-4.1699,-4.1387,-4.1094,-4.0859,-4.1074,-4.1327,-4.1589,-4.1326,-4.1659,-4.2527,-4.1639,-4.1504,-4.2051,-4.1465,-4.0859,-4.0234,-4.0,-3.918,-3.7988,-3.75,-3.705,-3.6735,-3.7402,-3.7594,-3.752,-3.7616,-3.7266,-3.668,0.0,0.0,0.0,0.0,0.0,0.0,0.0,-4.0239,-4.0023,-3.9199,-3.959,-3.9685,-3.8972,-3.8515,-3.8277,-3.8343,-3.7406,-3.7147,-3.7957,-3.7204,0.0,0.0,0.0,-3.4546,-3.4859,-3.3852,-3.2739,-3.1577,-3.1549,-3.1275,-3.0815,-3.0707,-3.0633,-3.0606,-3.0575,-3.0513,-3.0496,-3.0998,-3.1394,-3.1781,-3.2806,-3.4385,-3.616,-3.6523,-3.75,-3.865,-3.8661,-3.9018,-3.9519,-3.9577,0.0,0.0,0.0,0.0,0.0,0.0,0.0,0.0,0.0,0.0,0.0,0.0,0.0,0.0,0.0,0.0,0.0,0.0,0.0,0.0,0.0,0.0,0.0,0.0,-4.3497,-4.3153,-4.3258,-4.3874,-4.3827,-4.2463,-4.2305,-4.1954,-4.1074,-4.0996,-4.1249,-4.1855,-4.1465,-4.1406,-4.1875,-4.1754,-4.1652,-4.1652,-4.197,-4.2334,-4.2757,-4.2394,-4.2481,-4.3041,-4.2143,-4.1777,-4.1875,-4.1406,-4.0723,-3.9883,-3.9512,-3.8789,-3.7793,-3.7051,-3.668,-3.6562,0.0,0.0,0.0,0.0,-3.6426,-3.5996,0.0,0.0,0.0,0.0,0.0,0.0,0.0,-4.0024,-3.9919,-3.9052,-4.0031,-4.019,-3.8504,-3.8233,-3.7865,-3.7096,-3.6839,-3.7041,-3.7833,0.0,0.0,-3.5958,-3.5701,-3.4862,-3.3326,-3.3134,-3.2272,-3.0687,-3.0638,-3.0638,-3.0687,-3.0628,-3.057,-3.0498,-3.0388,-3.0356,-3.0385,-3.0308,-3.075,-3.1545,-3.1545,-3.2622,-3.4282,-3.5064,-3.6155,-3.7269,-3.7268,-3.802,-3.8896,-3.8097,0.0,0.0,0.0,0.0,0.0,0.0,0.0,0.0,0.0,0.0,0.0,0.0,0.0,0.0,0.0,0.0,0.0,0.0,0.0,0.0,0.0,0.0,0.0,0.0,-4.3014,-4.3015,-4.2349,-4.2998,-4.32,-4.2245,-4.2217,-4.1963,-4.12,-4.12,-4.1361,-4.1601,-4.1543,-4.1523,-4.1601,-4.2147,0.0,0.0,0.0,-4.3383,-4.3369,-4.3428,-4.3114,-4.2425,-4.2318,-4.1933,-4.1328,-4.123,-4.0664,-3.9726,-3.9043,-3.8633,-3.832,-3.6777,-3.6543,-3.707,-3.6309,-3.6055,-3.6133,-3.6035,-3.5996,-3.5996,0.0,0.0,0.0,0.0,0.0,0.0,0.0,-4.0848,-4.0768,-3.9871,-4.0835,-4.0946,-3.9259,-3.845,-3.7968,-3.7795,-3.7125,-3.6832,0.0,0.0,-3.6055,-3.5917,-3.4508,-3.3559,-3.324,-3.2516,-3.1659,-3.0625,-3.0611,-3.0611,-3.0625,-3.054,-3.0501,-3.0479,-2.9704,-2.9745,-3.0346,-2.964,-2.9852,-3.0654,-3.0654,-3.2083,-3.4225,-3.4398,-3.5056,-3.5897,-3.5878,-3.5919,-3.6121,-3.7214,-3.8072,-3.8971,-4.0596,0.0,0.0,0.0,0.0,0.0,0.0,0.0,0.0,0.0,0.0,0.0,0.0,0.0,0.0,0.0,0.0,0.0,0.0,0.0,0.0,-4.3951,-4.304,-4.2544,-4.3073,-4.2861,-4.2257,-4.1221,-4.1703,-4.2073,-4.1905,-4.2525,-4.3309,-4.4199,-4.3613,-4.3474,-4.4075,-4.3613,-4.3306,-4.3191,-4.3322,-4.3345,-4.3232,-4.2773,-4.278,-4.3163,-4.1997,0.0,-4.2148,-4.1504,-4.0332,-3.8887,-3.9414,-3.8848,-3.7539,-3.7187,-3.6738,-3.623,-3.6074,-3.6426,-3.6953,-3.6269,-3.5996,-3.5996,0.0,0.0,0.0,0.0,0.0,0.0,0.0,-4.0784,-4.1084,-4.1059,-4.1877,-4.197,-4.0681,-4.0162,-3.9738,-3.9296,-3.8854,0.0,0.0,-3.7355,-3.6536,-3.5836,-3.4897,-3.4007,-3.3169,-3.2656,-3.1799,-3.0559,-3.0524,-3.0475,-3.0397,-3.0304,-3.0189,-3.0087,-2.961,-2.9693,-3.0164,-2.9743,-2.98,-3.0241,-3.0668,-3.1785,-3.3211,-3.3466,-3.4353,-3.5486,-3.5354,-3.5215,-3.525,-3.634,-3.715,-3.804,-4.008,-4.1551,-4.2713,0.0,0.0,0.0,0.0,0.0,0.0,0.0,0.0,0.0,0.0,0.0,0.0,0.0,0.0,-4.4491,-4.4661,0.0,-4.3981,-4.3742,-4.3168,-4.2898,-4.335,-4.3193,-4.2802,-4.2186,-4.2539,-4.2822,-4.2755,-4.3205,-4.3743,-4.4316,-4.3902,-4.3809,-4.4174,-4.4097,-4.403,-4.3959,-4.4311,-4.4286,-4.3841,-4.3629,-4.3276,-4.2835,-4.2138,-4.1797,-4.1797,-4.1387,-4.0488,-3.9277,-3.9707,-3.916,-3.793,-3.748,-3.6797,-3.5996,-3.5996,-3.6269,-3.6601,-3.6152,-3.5996,-3.5996,0.0,0.0,0.0,0.0,0.0,0.0,0.0,0.0,-4.1711,-4.2356,-4.2967,-4.3008,-4.2162,-4.1904,-4.1527,-4.0804,0.0,0.0,0.0,-3.8508,-3.7253,-3.5982,-3.5718,-3.4877,-3.3345,-3.3165,-3.2288,-3.0661,-3.054,-3.0363,-3.0101,-2.9982,-2.9853,-2.9686,-2.9516,-2.9723,-3.0175,-3.0041,-3.0167,-3.0472,-3.1226,-3.1881,-3.2468,-3.2852,-3.3966,-3.5312,-3.5105,-3.4981,-3.5059,-3.586,-3.6564,-3.7505,-3.9651,-4.1313,-4.2632,-4.3605,-4.4346,0.0,0.0,0.0,0.0,0.0,0.0,0.0,0.0,-4.5249,-4.5369,-4.5599,-4.5486,-4.519,-4.4643,-4.4547,-4.4295,-4.3489,-4.3521,-4.3669,-4.3693,-4.3844,-4.3956,-4.3929,-4.3875,-4.3809,-4.3704,-4.3936,-4.412,-4.4199,-4.4123,-4.407,-4.4058,-4.4501,-4.4737,-4.4703,-4.5293,-4.5167,-4.4266,-4.4384,-4.3646,-4.2046,-4.2124,-4.1836,-4.1191,-4.1191,-4.0723,-3.9883,-3.9726,-3.9141,-3.8281,-3.7598,-3.6797,-3.5996,-3.5996,-3.5996,-3.5996,-3.5996,-3.5996,-3.5996,0.0,0.0,0.0,0.0,0.0,0.0,0.0,0.0,0.0,-4.3613,-4.3934,-4.3855,-4.3047,-4.2258,-4.175,0.0,0.0,0.0,-4.0507,-3.8234,-3.6826,-3.6764,-3.5951,-3.5053,-3.4097,-3.3834,-3.2882,-3.1212,-3.0961,-3.0464,-2.9763,-2.9738,-2.9731,-2.9667,-2.8885,-2.9384,-3.0759,-3.0228,-3.072,-3.1892,-3.2235,-3.2735,-3.3269,-3.3327,-3.3951,-3.4793,-3.4763,-3.4542,-3.4562,-3.6365,-3.7066,-3.765,-4.0327,-4.1503,-4.2198,-4.3773,-4.4097,-4.4102,-4.4843,-4.4476,-4.3932,-4.394,-4.3787,-4.3816,0.0,-4.4112,-4.3924,-4.546,-4.5071,-4.4643,-4.5325,-4.546,-4.5211,-4.4453,-4.4461,-4.4608,-4.4712,-4.4796,-4.5094,-4.5716,-4.5128,-4.4682,-4.474,-4.5386,-4.5875,-4.5996,-4.5881,-4.5772,-4.5652,-4.5642,-4.5604,-4.5475,-4.5565,-4.4877,-4.3357,-4.3486,-4.2746,-4.1152,-4.1265,-4.1289,-4.1191,-4.1191,-4.0723,-3.9863,-3.9082,-3.8242,-3.7441,-3.7344,-3.6797,-3.5996,-3.5996,-3.5996,-3.5996,-3.5996,-3.5996,-3.5996,0.0,0.0,0.0,0.0,0.0,0.0,0.0,0.0,0.0,0.0,-4.4854,-4.494,-4.4586,-4.4057,-4.3645,0.0,0.0,0.0,-4.1036,-3.9097,-3.7813,-3.7553,-3.6538,-3.5587,-3.4737,-3.3963,-3.2976,-3.1764,-3.1647,-3.1139,-3.0215,-3.0215,-3.0136,-2.9981,-2.9617,-3.0268,-3.1666,-3.1722,-3.2174,-3.2891,-3.333,-3.3545,-3.3628,-3.3628,-3.4148,-3.4909,-3.51,-3.5376,0.0,0.0,-3.789,-3.8713,-4.1025,-4.2004,-4.2584,-4.4279,-4.4806,-4.471,-4.4143,-4.4145,-4.4199,-4.3859,-4.3993,-4.4426,-4.523,-4.508,-4.4932,-4.5568,-4.5185,-4.494,-4.551,-4.5438,-4.5293,-4.5253,-4.535,-4.5449,-4.5577,-4.5696,-4.5878,-4.6185,-4.589,-4.565,-4.5607,-4.5979,-4.621,-4.6199,-4.605,-4.5939,-4.5853,-4.5742,-4.5685,-4.5723,-4.5225,-4.4466,-4.3444,-4.2994,-4.2212,-4.1126,-4.1171,-4.1191,-4.1191,-4.1191,-4.0723,-3.9883,-3.9512,-3.8574,-3.7305,-3.7305,-3.6797,-3.5996,-3.5996,-3.5996,-3.5996,-3.5996,-3.5996,-3.5996,0.0,0.0,0.0,0.0,0.0,0.0,0.0,0.0,0.0,0.0,0.0,0.0,0.0,0.0,0.0,0.0,0.0,0.0,0.0,-4.0205,-3.8974,-3.8599,-3.7337,-3.6328,-3.5675,-3.4759,-3.3757,-3.2668,-3.2614,-3.1982,-3.0828,-3.0897,-3.0832,-3.0646,-3.0964,-3.176,-3.2921,-3.3543,-3.4008,-3.4339,-3.472,-3.4727,-3.4486,-3.4486,-3.5,-3.5689,-3.5708,-3.6244,0.0,0.0,-3.895,-3.9781,-4.1788,-4.2598,-4.3083,-4.4547,-4.5201,-4.5185,-4.3916,-4.3872,-4.4106,-4.3702,-4.3864,-4.4375,-4.5374,-4.5478,-4.5389,-4.55,-4.5214,-4.5063,-4.541,-4.5294,-4.5313,-4.5757,-4.5879,-4.5952,-4.608,-4.6172,-4.6247,-4.6247,-4.6289,-4.6268,-4.6152,-4.621,-4.6201,-4.6113,-4.5955,-4.5845,-4.5809,-4.5673,-4.556,-4.5441,-4.4834,-4.4083,-4.3253,-4.2629,-4.1932,-4.1191,-4.1191,-4.1191,-4.1191,-4.0957,-4.0371,-3.9531,-3.9297,-3.832,-3.6934,-3.6934,-3.6562,-3.5996,-3.5996,-3.5996,-3.5996,-3.5996,-3.5996,-3.5996,0.0,0.0,0.0,0.0,0.0,0.0,0.0,0.0,0.0,0.0,0.0,0.0,0.0,0.0,0.0,0.0,0.0,0.0,0.0,-4.1357,-3.9995,-4.0034,-3.8375,-3.7328,-3.7046,-3.6757,-3.5789,-3.4137,-3.3893,-3.2934,-3.1372,-3.163,-3.1755,-3.1792,-3.2919,-3.3866,-3.4688,-3.5469,-3.6126,-3.659,-3.6627,-3.6461,-3.6211,-3.6211,-3.6721,-3.7327,-3.6538,0.0,0.0,0.0,-4.0244,-4.0612,-4.2622,-4.3265,0.0,-4.436,-4.4861,0.0,-4.4576,-4.3968,-4.3455,-4.357,-4.298,-4.2804,-4.4465,-4.4439,-4.4299,-4.5143,-4.4941,-4.4726,-4.5052,-4.5208,-4.543,-4.5833,-4.59,-4.5956,-4.6081,-4.6093,-4.611,-4.611,-4.6223,-4.6308,-4.6289,-4.6177,-4.6091,-4.6108,-4.5915,-4.5803,-4.5803,-4.5673,-4.5263,-4.455,-4.4518,-4.3791,-4.2353,-4.2317,-4.1932,-4.1191,-4.1191,-4.1191,-4.1172,-4.0312,-3.9453,-3.8594,-3.7754,-3.6875,-3.6035,-3.6035,-3.6016,-3.5996,-3.5996,-3.5996,-3.5996,-3.5996,-3.5996,-3.5996,0.0,0.0,0.0,0.0,0.0,0.0,0.0,0.0,0.0,0.0,0.0,0.0,0.0,0.0,0.0,0.0,0.0,0.0,0.0,-4.1835,-4.1149,-4.1347,-3.9548,-3.8527,-3.8434,-3.7108,-3.6173,-3.5583,-3.5496,-3.489,-3.3807,-3.4117,-3.4246,-3.4295,-3.5455,-3.6379,-3.7162,-3.837,-3.8962,-3.9031,-3.8311,-3.828,-3.856,-3.7511,-3.7933,-3.9126,0.0,0.0,0.0,0.0,0.0,0.0,-4.2418,0.0,0.0,-4.4547,0.0,0.0,-4.3745,-4.3071,-4.2625,-4.3296,-4.324,-4.3456,-4.5094,-4.5155,-4.4908,-4.514,-4.4221,-4.3574,-4.4121,-4.4169,-4.4327,-4.4997,-4.5554,-4.5955,-4.6078,-4.6011,-4.5974,-4.5974,-4.6001,-4.6036,-4.6036,-4.6077,-4.6053,-4.5978,-4.5864,-4.5768,-4.5673,-4.5079,-4.4708,-4.4632,-4.351,-4.2723,-4.2377,-4.183,-4.1397,-4.1076,-4.1076,-4.0763,-4.0197,-3.9998,-3.9414,-3.8555,-3.7676,-3.7129,-3.6816,-3.623,-3.5996,-3.5996,-3.5996,-3.5996,-3.5996,-3.5996,-3.5996,-3.5996,0.0,0.0,0.0,0.0,0.0,0.0,0.0,0.0,0.0,0.0,0.0,0.0,0.0,0.0,0.0,0.0,0.0,0.0,0.0,0.0,-4.2673,-4.3122,-4.1395,-4.037,-4.0244,-3.8788,-3.7863,-3.7588,-3.7588,-3.7216,-3.6505,-3.6814,-3.7024,-3.7197,-3.8335,-3.9039,-3.9429,-4.0541,-4.1091,-4.1103,-4.0004,-4.0047,-4.0634,-3.9622,-4.0044,0.0,0.0,0.0,0.0,0.0,0.0,0.0,0.0,0.0,0.0,0.0,0.0,-4.3893,-4.3009,-4.2821,-4.298,-4.332,-4.3607,-4.4115,-4.5336,-4.5318,-4.4987,-4.4756,-4.3927,-4.34,-4.3978,-4.4132,-4.4388,-4.5026,-4.5607,-4.598,-4.6025,-4.5944,-4.5885,-4.5876,-4.5896,-4.5899,-4.5899,-4.5967,-4.5959,-4.5876,-4.5783,-4.5685,-4.5603,-4.4759,-4.4274,-4.4247,-4.2851,-4.207,-4.1973,-4.1465,-4.1128,-4.0996,-4.0996,-4.0701,-4.0157,-3.9976,-3.959,-3.9023,-3.8144,-3.7598,-3.7266,-3.6699,-3.6289,-3.5996,-3.5996,-3.5996,-3.5996,-3.5996,-3.5996,-3.5996,0.0,0.0,0.0,0.0,0.0,0.0,0.0,0.0,0.0,0.0,0.0,0.0,0.0,0.0,0.0,0.0,0.0,0.0,0.0,0.0,0.0,-4.5199,-4.3695,-4.2709,-4.2375,-4.1566,-4.0758,-4.0003,-3.9971,-3.9726,-3.9328,-3.9601,-3.9919,-4.032,-4.1458,-4.1779,-4.1533,-4.208,-4.2565,-4.2853,-4.1735,-4.1756,-4.2488,-4.2433,0.0,0.0,0.0,0.0,0.0,0.0,0.0,0.0,0.0,0.0,0.0,0.0,-4.3906,-4.4175,-4.256,-4.3254,-4.4279,-4.3612,-4.3968,-4.4638,-4.5169,-4.4922,-4.4487,-4.4073,-4.3979,-4.4061,-4.4471,-4.4978,-4.5446,-4.5784,-4.5992,-4.6047,-4.5916,-4.5894,-4.5862,-4.5777,-4.5839,-4.5881,-4.5852,-4.5819,-4.579,-4.579,-4.5673,-4.5594,-4.5594,-4.472,-4.397,-4.3412,-4.2516,-4.1755,-4.1191,-4.1191,-4.1126,-4.0992,-4.0994,-4.0975,-4.0896,-4.0211,-3.9902,-3.9844,-3.8926,-3.8086,-3.7363,-3.7266,-3.6758,-3.5996,-3.5996,-3.5996,-3.5996,-3.5996,-3.5996,-3.5996,0.0,0.0,0.0,0.0,0.0,0.0,0.0,0.0,0.0,0.0,0.0,0.0,0.0,0.0,0.0,0.0,0.0,0.0,0.0,0.0,0.0,0.0,0.0,0.0,0.0,0.0,0.0,0.0,-4.0922,-4.0855,-4.0999,-4.1299,-4.1824,-4.2532,-4.367,-4.4192,-4.4242,-4.4991,-4.5231,-4.5033,0.0,-4.4268,-4.4929,0.0,0.0,0.0,0.0,0.0,0.0,0.0,0.0,0.0,0.0,-4.3515,-4.3592,-4.412,-4.3976,-4.3634,-4.3698,-4.3589,-4.3559,-4.3959,-4.4207,-4.4496,-4.5034,-4.487,-4.4487,-4.4073,-4.3513,-4.3216,-4.3559,-4.4114,-4.4616,-4.4956,-4.5622,-4.6047,-4.5916,-4.5855,-4.5691,-4.5323,-4.5505,-4.5579,-4.5331,-4.5516,-4.566,-4.566,-4.5629,-4.5594,-4.5594,-4.4201,-4.3351,-4.3257,-4.1873,-4.1107,-4.1052,-4.1052,-4.0988,-4.0857,-4.0955,-4.064,-3.9961,-3.991,-3.9902,-3.9824,-3.8281,-3.7871,-3.8164,-3.6875,-3.6191,-3.5996,-3.5996,-3.5996,-3.5996,-3.5996,-3.5996,-3.5975,0.0,0.0,0.0,0.0,0.0,0.0,0.0,0.0,0.0,0.0,0.0,0.0,0.0,0.0,0.0,0.0,0.0,0.0,0.0,0.0,0.0,0.0,0.0,0.0,0.0,0.0,0.0,0.0,0.0,0.0,-4.3971,-4.4329,-4.473,-4.516,-4.5803,-4.5961,-4.576,-4.6222,0.0,0.0,0.0,0.0,0.0,0.0,0.0,0.0,0.0,0.0,0.0,0.0,0.0,-4.3515,-4.3515,-4.3515,-4.354,-4.3739,-4.3845,-4.3812,-4.3588,-4.3853,-4.4201,-4.4278,-4.4487,-4.468,-4.4859,-4.4606,-4.4237,-4.3868,-4.3674,-4.3637,-4.3843,-4.4431,-4.4979,-4.5185,-4.5716,-4.6041,-4.5928,-4.5876,-4.5659,-4.5163,-4.54,-4.5476,-4.5129,-4.541,-4.5594,-4.5594,-4.5594,-4.5594,-4.5594,-4.4355,-4.3509,-4.3202,-4.1978,-4.1185,-4.0914,-4.0914,-4.087,-4.0797,-4.0874,-4.0674,-4.022,-4.0382,-4.0254,-3.9844,-3.8867,-3.8281,-3.7988,-3.7383,-3.6699,-3.6035,-3.6383,-3.6282,-3.5949,-3.5897,-3.5872,-3.5846,0.0,0.0,0.0,0.0,0.0,0.0,0.0,0.0,0.0,0.0,0.0,0.0,0.0,0.0,0.0,0.0,0.0,0.0,0.0,0.0,0.0,0.0,0.0,0.0,0.0,0.0,0.0,0.0,0.0,0.0,0.0,0.0,0.0,0.0,0.0,0.0,0.0,0.0,0.0,0.0,0.0,0.0,0.0,0.0,0.0,0.0,0.0,0.0,0.0,0.0,-4.4727,-4.3515,-4.3515,-4.3515,-4.3436,-4.3067,-4.3694,-4.4272,-4.314,-4.4164,-4.5358,-4.4654,-4.4787,-4.5,-4.4688,-4.4276,-4.3909,-4.3631,-4.4125,-4.4606,-4.4644,-4.5294,-4.5828,-4.5877,-4.6014,-4.605,-4.5903,-4.5892,-4.5704,-4.5154,-4.54,-4.5476,-4.5129,-4.541,-4.5594,-4.5594,-4.5594,-4.5594,-4.5594,-4.4759,-4.3906,-4.3066,-4.224,-4.1502,-4.0817,-4.0797,-4.0797,-4.0797,-4.0813,-4.0899,-4.0998,-4.1149,-4.0723,-3.9883,-3.9785,-3.8867,-3.7519,-3.8047,-3.75,-3.6386,-3.6856,-3.6645,-3.6033,-3.5794,-3.5713,-3.572,0.0,0.0,0.0,0.0,0.0,0.0,0.0,0.0,0.0,0.0,-4.5887,-4.6323,0.0,0.0,0.0,0.0,0.0,0.0,0.0,0.0,0.0,0.0,0.0,0.0,0.0,0.0,0.0,0.0,-4.6494,0.0,0.0,0.0,0.0,0.0,0.0,0.0,0.0,0.0,0.0,0.0,0.0,0.0,0.0,0.0,0.0,0.0,0.0,0.0,0.0,0.0,-4.4287,-4.3515,-4.3515,-4.3515,-4.3545,-4.3729,-4.3949,-4.4172,-4.4539,-4.49,-4.5223,-4.5349,-4.5246,-4.5,-4.4688,-4.4276,0.0,-4.3924,-4.428,-4.4682,-4.4954,-4.5441,-4.579,-4.5821,-4.5971,-4.6024,-4.5837,-4.5877,-4.5704,-4.5154,-4.54,-4.5476,-4.5129,-4.541,-4.5594,-4.5594,-4.5594,-4.5594,-4.5594,-4.4759,-4.3655,-4.2253,-4.1375,-4.0886,-4.0797,-4.0797,-4.0797,-4.0801,-4.0914,-4.0986,-4.0998,-4.1149,-4.0723,-3.9863,-3.9141,-3.8652,-3.8262,-3.6973,-3.7129,-3.8008,-3.666,-3.6469,-3.6873,-3.603,-3.5766,-3.5843,0.0,0.0,0.0,0.0,0.0,0.0,0.0,-4.5342,-4.5342,-4.5342,-4.607,-4.6705,-4.697,-4.721,-4.7588,0.0,0.0,0.0,0.0,0.0,0.0,0.0,0.0,0.0,0.0,-4.8293,-4.7777,-4.7987,0.0,-4.7535,-4.8315,-4.8937,-4.934,-4.9493,-4.937,-4.9179,0.0,0.0,0.0,0.0,0.0,0.0,0.0,0.0,0.0,0.0,0.0,0.0,0.0,0.0,-4.5149,-4.4048,-4.3626,-4.3515,-4.3531,-4.3693,-4.3865,-4.4117,-4.4695,-4.4966,-4.5191,-4.5513,-4.5222,-4.48,-4.465,0.0,0.0,-4.3742,-4.4194,-4.4644,-4.4812,-4.5304,-4.5723,-4.5783,-4.591,-4.5959,-4.5815,-4.5868,-4.5704,-4.5154,-4.54,-4.5476,-4.5129,-4.541,-4.5594,-4.5594,-4.5594,-4.5594,-4.5594,-4.4374,-4.3346,-4.2609,-4.1351,-4.0678,-4.0633,-4.0712,-4.0776,-4.0797,-4.0867,-4.0964,-4.1104,-4.1171,-4.0723,-3.9883,-3.9453,-3.9023,-3.8574,-3.8184,-3.7967,-3.782,-3.7331,-3.6832,-3.6319,-3.5838,-3.5694,-3.5742,0.0,0.0,0.0,0.0,0.0,0.0,0.0,-4.5326,-4.5269,-4.546,-4.6158,-4.672,-4.6965,-4.7146,-4.7578,0.0,0.0,0.0,0.0,0.0,0.0,0.0,0.0,0.0,0.0,0.0,0.0,-4.8897,-4.8431,0.0,0.0,0.0,0.0,0.0,-5.0938,-5.0527,-4.9812,0.0,0.0,0.0,0.0,-4.9586,0.0,0.0,0.0,0.0,0.0,0.0,0.0,0.0,-4.625,-4.5076,-4.4268,-4.379,-4.3533,-4.3699,-4.3824,-4.4001,-4.4474,-4.4781,-4.5074,-4.541,-4.5033,-4.4567,-4.4487,-4.3977,-4.3513,-4.3597,-4.414,-4.4618,-4.4682,-4.5211,-4.5635,-4.574,-4.5834,-4.5871,-4.5816,-4.5852,-4.5733,-4.5295,-4.5466,-4.5495,-4.5232,-4.5457,-4.5594,-4.5594,-4.5441,-4.5402,-4.5594,-4.4008,-4.3104,-4.3104,-4.1503,-4.0603,-4.0496,-4.0603,-4.0707,-4.0784,-4.0789,-4.0922,-4.1151,-4.1191,-4.0723,-3.9902,-3.9902,-3.9512,-3.8906,-3.9394,-3.8955,-3.8024,-3.8179,-3.7512,-3.643,-3.6226,-3.6077,-3.5969,0.0,0.0,0.0,0.0,0.0,0.0,0.0,-4.6059,-4.5848,-4.6627,-4.6135,-4.605,-4.6909,-4.765,-4.8296,0.0,0.0,0.0,0.0,0.0,0.0,0.0,0.0,0.0,0.0,0.0,0.0,-4.8897,-4.955,0.0,0.0,0.0,0.0,0.0,0.0,-5.1102,-5.0674,-5.06,0.0,0.0,0.0,0.0,0.0,0.0,0.0,0.0,0.0,0.0,0.0,0.0,0.0,-4.6746,-4.5938,-4.4672,-4.3626,-4.4378,0.0,0.0,-4.4406,-4.4618,-4.4739,-4.5063,-4.4872,-4.4501,-4.4132,0.0,-4.358,-4.3896,-4.4308,-4.4682,-4.5007,-4.5352,-4.5603,-4.562,-4.5783,-4.5885,-4.5802,-4.5851,-4.5867,-4.5757,-4.5665,-4.5586,-4.5559,-4.5577,-4.5594,-4.5594,-4.4874,-4.4759,-4.5556,-4.4008,-4.3104,-4.3104,-4.1416,-4.0512,-4.0496,-4.0512,-4.0575,-4.0701,-4.077,-4.0874,-4.1023,-4.1149,-4.0723,-3.9902,-3.9902,-3.9844,-3.9726,-3.8888,-3.9378,-4.0478,-3.879,-3.8569,-3.9136,-3.8287,-3.758,-3.7063,0.0,0.0,0.0,0.0,0.0,0.0,-4.6778,-4.6605,-4.6682,-4.7509,-4.7317,-4.7347,-4.8017,-4.8365,-4.8649,-4.8889,0.0,0.0,0.0,0.0,0.0,0.0,0.0,0.0,0.0,0.0,-4.9504,-4.9307,-5.0375,0.0,0.0,0.0,0.0,0.0,0.0,-5.1899,-5.1481,-5.1004,0.0,0.0,0.0,0.0,0.0,0.0,0.0,0.0,0.0,0.0,-4.8948,-4.8122,0.0,0.0,-4.7297,-4.6232,0.0,0.0,-4.4819,-4.4831,-4.4367,-4.4589,-4.4937,-4.484,-4.4527,-4.419,-4.4046,0.0,-4.3531,-4.3679,-4.418,-4.4631,-4.4769,-4.5243,-4.5594,-4.5594,-4.577,0.0,-4.5806,-4.5856,-4.5872,-4.5803,-4.5688,-4.5594,-4.5594,-4.5594,-4.5383,-4.4855,-4.4489,-4.4239,-4.4105,-4.297,-4.2316,-4.2316,-4.1143,-4.0496,-4.0496,-4.0496,-4.059,-4.0767,-4.0796,-4.0914,-4.1126,-4.1171,-4.1016,-4.0684,-4.0684,-4.0642,-4.0532,-4.0123,-4.004,-4.0078,-3.9318,-3.8926,-3.8779,-3.8439,-3.8149,-3.7939,0.0,0.0,0.0,0.0,0.0,-4.597,-4.7086,-4.7038,-4.7278,-4.8355,-4.8259,-4.8288,-4.8762,-4.8904,-4.9042,-4.9251,-4.9773,0.0,0.0,0.0,0.0,0.0,0.0,0.0,0.0,0.0,-5.025,-5.0137,-5.0971,-5.1792,0.0,0.0,-5.3337,-5.3569,0.0,0.0,0.0,0.0,0.0,0.0,0.0,0.0,0.0,0.0,0.0,0.0,0.0,0.0,0.0,0.0,0.0,0.0,0.0,0.0,0.0,0.0,-4.5645,-4.5734,-4.4918,-4.5118,-4.5423,-4.4914,-4.4732,-4.4622,0.0,0.0,-4.3846,-4.3846,-4.4248,-4.4593,-4.4593,-4.515,-4.5594,-4.5594,0.0,-4.587,-4.5832,-4.5851,-4.5869,-4.583,-4.5688,-4.5594,-4.5594,-4.5594,-4.5248,-4.4374,-4.4085,-4.3585,-4.2758,-4.1893,-4.1527,-4.1788,-4.095,-4.0496,-4.0496,-4.0496,-4.0597,-4.0766,-4.0781,-4.092,-4.1149,-4.1171,-4.1191,-4.1191,-4.1191,-4.1149,-4.1054,-4.1021,-4.0604,-4.0013,-3.996,-3.9601,-3.909,-3.9152,-3.9036,-3.8854,0.0,0.0,0.0,0.0,0.0,0.0,-4.7836,-4.7413,-4.7509,-4.9163,-4.8644,-4.8288,-4.8762,-4.9167,-4.9574,-5.0059,-5.0111,0.0,0.0,0.0,0.0,0.0,0.0,0.0,0.0,0.0,-5.1005,-5.1373,-5.1319,-5.2186,-5.3862,-5.3421,-5.3676,-5.4468,0.0,0.0,0.0,0.0,0.0,0.0,0.0,0.0,0.0,0.0,0.0,0.0,0.0,0.0,0.0,0.0,0.0,0.0,0.0,0.0,0.0,0.0,-4.6526,-4.5973,-4.6294,-4.6371,-4.6185,-4.5379,-4.5791,-4.6087,0.0,0.0,-4.469,-4.469,-4.4643,-4.4593,-4.4593,-4.515,-4.5594,-4.5594,-4.5715,0.0,-4.5885,-4.5837,-4.583,-4.5892,-4.5729,-4.5594,-4.5594,-4.5594,-4.5248,-4.4374,-4.3566,-4.2739,-4.1865,-4.0989,-4.0912,-4.1769,-4.095,-4.0496,-4.0496,-4.0496,-4.0574,-4.0703,-4.0766,-4.087,-4.1017,-4.1149,-4.1191,-4.1191,-4.1191,-4.1191,-4.1191,-4.1054,-4.0996,-4.097,-4.0838,-4.0857,-4.0975,-4.0976,-4.0513,-3.9883,0.0,0.0,0.0,0.0,0.0,0.0,0.0,-4.8394,-4.9009,-5.0144,-5.0048,-4.9923,-5.0092,-5.0211,-5.0346,-5.0495,-5.0504,0.0,0.0,0.0,0.0,0.0,0.0,0.0,0.0,-5.038,-5.0709,-5.05,-5.1909,-5.3017,-5.3817,-5.3406,-5.3676,-5.4471,-5.372,-5.3316,0.0,0.0,0.0,0.0,0.0,0.0,-5.2028,0.0,0.0,0.0,0.0,0.0,0.0,0.0,0.0,0.0,0.0,0.0,0.0,0.0,0.0,0.0,-4.6339,-4.6449,-4.6689,-4.5877,-4.5877,-4.604,-4.5966,0.0,-4.5839,-4.5522,-4.5632,-4.5589,-4.5038,-4.5293,-4.5594,-4.5594,-4.5744,-4.5877,-4.5894,-4.5954,-4.5986,-4.5912,-4.571,-4.5594,-4.5594,-4.5056,-4.4374,-4.3547,-4.2701,-4.1835,-4.095,-4.065,-4.0631,-4.0893,-4.065,-4.0496,-4.0496,-4.0496,-4.0574,-4.0697,-4.0729,-4.0824,-4.0994,-4.0952,-4.0986,-4.1055,-4.0962,-4.0922,-4.092,-4.0877,-4.0917,-4.0994,-4.0955,-4.1023,-4.1148,-4.1148,-4.0995,-4.0781,0.0,0.0,0.0,0.0,0.0,0.0,0.0,-4.8836,-4.9702,-5.0596,-5.0712,-5.0712,-5.0712,-5.0712,-5.0712,-5.0712,-5.0712,0.0,0.0,0.0,0.0,0.0,0.0,0.0,-4.9592,-5.0692,-5.1118,-5.0811,-5.2422,-5.3251,-5.3353,-5.3255,-5.3411,-5.377,-5.3374,-5.3185,0.0,0.0,0.0,0.0,0.0,0.0,-5.2531,0.0,0.0,0.0,0.0,0.0,0.0,0.0,0.0,0.0,0.0,0.0,0.0,0.0,-4.8763,0.0,0.0,-4.7168,-4.7351,-4.6562,-4.6709,0.0,0.0,0.0,-4.7001,-4.6382,-4.6277,-4.6042,-4.5249,-4.5362,-4.5594,-4.5594,-4.5757,-4.5867,-4.5894,-4.5954,-4.5946,-4.5797,-4.5681,-4.5479,-4.5152,-4.4624,-4.3835,-4.2701,-4.2104,-4.1412,-4.0554,-4.0496,-4.0496,-4.0496,-4.0496,-4.0496,-4.0496,-4.0496,-4.0574,-4.0697,-4.0697,-4.0781,-4.092,-4.0847,-4.0854,-4.092,-4.0847,-4.082,0.0,-4.0874,-4.0957,-4.1078,-4.1078,-4.1127,-4.1191,-4.1191,-4.1191,-4.1191,0.0,0.0,0.0,0.0,0.0,0.0,0.0,-4.8894,-4.9779,-5.0596,-5.0731,-5.0721,-5.0702,-5.0731,-5.0721,-5.0712,0.0,0.0,0.0,0.0,0.0,0.0,0.0,0.0,-4.9684,-5.1226,-5.1992,-5.2009,-5.2721,-5.2914,-5.2616,-5.2862,-5.2834,-5.2622,-5.2957,-5.3148,0.0,0.0,0.0,0.0,-5.2468,-5.2576,0.0,0.0,0.0,0.0,0.0,0.0,0.0,0.0,0.0,0.0,0.0,0.0,0.0,0.0,0.0,0.0,0.0,-4.8437,-4.8234,-4.7388,-4.8086,-4.8783,0.0,0.0,0.0,0.0,0.0,-4.6094,-4.5282,-4.5391,-4.562,-4.562,-4.5733,-4.585,-4.5918,-4.5858,-4.5741,-4.5557,-4.5516,-4.5171,-4.4297,-4.4162,-4.3489,-4.1923,-4.1731,-4.1354,-4.0535,-4.0496,-4.0496,-4.0496,-4.0554,-4.0554,-4.0496,-4.0554,-4.0624,-4.068,-4.0815,-4.0837,-4.0785,-4.0855,-4.0839,-4.0785,-4.0781,-4.0857,-4.099,-4.099,-4.1077,-4.1191,-4.1191,-4.1191,-4.1191,-4.1191,-4.1191,-4.1191,0.0,0.0,0.0,0.0,0.0,0.0,0.0,0.0,0.0,0.0,-5.0966,-5.1044,-5.0721,-5.0966,-5.1036,0.0,0.0,0.0,0.0,0.0,0.0,0.0,0.0,0.0,-5.0508,-5.1481,-5.1992,-5.2009,-5.1832,-5.2037,-5.2577,-5.1365,-5.1462,-5.2585,-5.2367,-5.2619,0.0,0.0,0.0,0.0,-5.302,-5.306,0.0,0.0,0.0,0.0,-5.2197,-5.1242,0.0,0.0,0.0,0.0,0.0,0.0,0.0,0.0,-5.119,0.0,-4.9982,0.0,-4.9416,-4.8309,-4.8919,-4.9691,0.0,0.0,0.0,0.0,0.0,0.0,0.0,0.0,-4.5754,-4.5754,-4.5915,-4.6027,-4.6045,-4.5946,-4.5639,-4.4992,-4.4733,-4.4278,-4.3451,-4.2777,-4.222,-4.1827,-4.1181,-4.0727,-4.0516,-4.0496,-4.0496,-4.0496,-4.1143,-4.1162,-4.0516,-4.1162,-4.1185,-4.0564,-4.1905,-4.1903,-4.0749,-4.1319,-4.1255,-4.0724,-4.063,-4.0679,-4.0854,-4.0854,-4.099,-4.1191,-4.1191,-4.1191,-4.1191,-4.1191,-4.1191,-4.1191,0.0,0.0,0.0,0.0,0.0,0.0,0.0,0.0,0.0,0.0,0.0,0.0,0.0,0.0,0.0,0.0,0.0,0.0,0.0,0.0,0.0,0.0,0.0,-4.9812,-5.0233,-5.1389,-5.1896,-5.1675,-5.1815,-5.1744,-5.145,-5.0942,-5.0895,-5.125,-5.177,-5.2454,-5.3185,-5.3185,-5.3185,-5.3185,-5.3185,0.0,0.0,0.0,0.0,0.0,-5.2417,-5.1864,0.0,-5.2413,-5.2418,-5.2043,0.0,0.0,0.0,0.0,-5.2395,-5.2092,-5.1473,-5.0592,-4.9658,-4.8789,-4.9216,-4.9809,-4.9787,0.0,0.0,0.0,0.0,0.0,0.0,0.0,-4.5331,-4.5784,-4.5659,-4.55,-4.5506,-4.5416,-4.503,-4.4112,-4.3856,-4.3412,-4.2585,-4.2085,-4.1643,-4.1239,-4.0766,-4.0496,-4.0496,-4.0496,-4.0689,-4.1085,-4.1546,-4.1566,-4.1104,-4.1566,-4.1758,-4.1681,-4.1835,-4.1659,-4.1214,-4.1613,-4.1351,-4.0622,-4.0939,-4.0971,-4.0797,-4.0797,-4.0957,-4.1191,-4.1191,-4.1191,-4.1191,-4.1191,-4.1191,-4.1191,0.0,0.0,0.0,0.0,0.0,0.0,0.0,0.0,0.0,0.0,0.0,0.0,0.0,0.0,0.0,0.0,0.0,0.0,0.0,0.0,0.0,0.0,-4.9786,-4.9849,-4.9959,-5.1298,-5.1852,-5.1505,-5.1917,-5.1451,-5.0127,-5.0669,-5.0509,-4.9849,-5.1355,-5.2454,-5.3185,-5.3185,-5.3185,-5.3185,-5.3185,0.0,0.0,0.0,0.0,0.0,0.0,0.0,0.0,-5.3348,-5.3425,-5.3293,-5.3824,0.0,0.0,0.0,0.0,0.0,-5.2766,-5.1202,-4.9677,-4.9286,-4.9491,-4.9817,-4.9902,0.0,0.0,0.0,0.0,0.0,0.0,-4.5212,-4.4967,-4.578,-4.5392,-4.4996,-4.5008,-4.4936,-4.4467,-4.3366,-4.3149,-4.272,-4.17,-4.1604,-4.1296,-4.0554,-4.0496,-4.0496,-4.0496,-4.0496,-4.0843,-4.1585,-4.1854,-4.2,-4.2,-4.2115,-4.2489,-4.3085,-4.1862,-4.145,-4.1808,-4.2058,-4.1643,-4.0746,-4.1623,-4.1622,-4.0992,-4.0992,-4.1074,-4.1211,-4.1348,-4.1387,-4.1406,-4.1523,-4.1504,-4.1367,0.0,0.0,0.0,0.0,0.0,0.0,0.0,0.0,0.0,0.0,0.0,0.0,0.0,0.0,0.0,0.0,0.0,0.0,0.0,0.0,0.0,-5.1014,-5.0766,-5.093,-5.161,-5.1867,-5.213,-5.2398,-5.0842,-5.0102,-5.0162,-4.9215,-4.943,-5.0655,-5.1591,-5.2454,-5.3185,-5.3185,-5.3185,-5.3185,-5.3185,0.0,0.0,0.0,0.0,0.0,0.0,0.0,0.0,-5.251,-5.2973,-5.3403,-5.4542,0.0,0.0,0.0,0.0,0.0,-5.2991,-5.159,-5.0529,-5.0508,-5.0843,-5.0847,-4.9478,0.0,0.0,0.0,0.0,0.0,0.0,-4.5774,-4.5734,-4.5874,-4.5896,-4.5892,-4.5896,-4.579,-4.514,-4.3551,-4.3201,-4.247,-4.0862,-4.0708,-4.065,-4.0516,-4.0496,-4.0496,-4.0496,-4.0496,-4.0554,-4.0708,-4.2124,-4.2893,-4.2893,-4.3585,-4.3643,-4.3104,-4.4267,-4.3758,-4.1846,-4.3278,-4.3066,-4.1662,-4.2527,-4.2511,-4.1902,-4.1902,-4.1618,-4.1269,-4.1953,-4.2226,-4.2305,-4.3047,-4.2851,-4.2129,0.0,0.0,0.0,0.0,0.0,0.0,0.0,0.0,0.0,0.0,0.0,0.0,0.0,0.0,0.0,0.0,0.0,0.0,0.0,0.0,-5.122,-5.1673,-5.1529,-5.161,-5.1977,-5.1995,-5.2101,-5.2284,-5.0482,-4.969,-4.9862,-4.8788,-4.9187,-5.082,-5.1187,-5.205,-5.3185,-5.3185,-5.3185,-5.3185,0.0,0.0,0.0,0.0,0.0,0.0,0.0,0.0,0.0,0.0,-5.4035,-5.4645,-5.5241,0.0,0.0,0.0,0.0,0.0,-5.3582,-5.2511,-5.1583,-5.0967,-5.0122,-4.9316,0.0,0.0,0.0,0.0,0.0,0.0,0.0,-4.5586,-4.5251,-4.5252,-4.5735,-4.5933,-4.5464,-4.4917,-4.4098,-4.2856,-4.2099,-4.1381,-4.0573,-4.0496,-4.0496,-4.0496,-4.0496,-4.0496,-4.0496,-4.095,-4.1412,-4.1893,-4.3104,-4.397,-4.4451,-4.4825,-4.4586,-4.3758,-4.4085,-4.3643,-4.2547,-4.3758,-4.3643,-4.2536,-4.2965,-4.2749,-4.212,-4.2179,-4.2077,-4.1933,-4.2773,-4.3105,-4.3086,-4.3027,-4.3047,-4.2988,0.0,0.0,0.0,0.0,0.0,0.0,0.0,0.0,0.0,0.0,0.0,0.0,0.0,0.0,0.0,0.0,0.0,0.0,0.0,-5.1232,-5.1584,-5.2254,-5.227,-5.2179,-5.1995,-5.1811,-5.1628,-5.1446,-5.0014,-4.9408,-4.9592,-4.8912,-4.9499,-5.1077,-5.1077,-5.1867,-5.3185,-5.3185,-5.3185,-5.3185,0.0,0.0,0.0,0.0,0.0,0.0,0.0,0.0,0.0,0.0,0.0,0.0,0.0,0.0,0.0,-5.5186,-5.4882,-5.4485,-5.3733,-5.2774,-5.1725,-5.0542,0.0,0.0,0.0,0.0,0.0,0.0,0.0,0.0,0.0,-4.5351,-4.4788,-4.4951,-4.5436,-4.5562,-4.4896,-4.4179,-4.3304,-4.2229,-4.1325,-4.0704,-4.0425,-4.0417,-4.0381,-4.0311,-4.0353,-4.0417,-4.0417,-4.1283,-4.2104,-4.2777,-4.3778,-4.4624,-4.5287,-4.5498,-4.5267,-4.4605,-4.397,-4.3585,-4.3412,-4.422,-4.4177,-4.3443,-4.3697,-4.3396,-4.2742,-4.2829,-4.2817,-4.2793,-4.3652,-4.4121,-4.4199,-4.332,-4.3437,-4.3887,0.0,0.0,0.0,0.0,0.0,0.0,0.0,0.0,0.0,0.0,0.0,0.0,0.0,0.0,0.0,0.0,0.0,0.0,0.0,-5.171,-5.1843,-5.3062,-5.3115,-5.2766,-5.2013,-5.1261,-5.0508,-4.9776,-4.8838,-4.8802,-4.961,-4.9537,-5.0381,-5.1903,-5.1903,-5.2399,-5.3185,-5.3185,-5.3185,-5.3185,-5.3185,0.0,0.0,0.0,0.0,0.0,0.0,0.0,0.0,0.0,0.0,0.0,0.0,0.0,-5.5147,-5.5121,-5.4264,-5.3244,-5.281,-5.151,-5.0022,-4.8942,-4.9167,0.0,-4.7642,-4.734,0.0,-4.6183,0.0,-4.6085,-4.6101,-4.5375,-4.5019,-4.5706,-4.53,-4.4877,-4.4818,-4.4683,-4.3981,-4.2307,-4.1861,-4.1291,-4.0225,-4.0129,-4.0012,-3.969,-3.9953,-4.0129,-4.0129,-4.118,-4.1827,-4.1885,-4.3451,-4.4335,-4.4393,-4.521,-4.5575,-4.5518,-4.546,-4.4998,-4.4239,-4.5114,-4.5105,-4.4447,-4.5254,-4.5225,-4.4616,-4.4621,-4.4222,-4.3691,-4.457,-4.5391,-4.6016,-4.5137,-4.4844,-4.4785,0.0,0.0,0.0,0.0,0.0,0.0,0.0,0.0,0.0,0.0,0.0,0.0,0.0,0.0,0.0,0.0,0.0,0.0,0.0,-5.0991,-5.1424,-5.2399,-5.2454,-5.2307,-5.1995,-5.1206,-5.0398,-4.961,-4.8728,-4.8746,-4.961,-4.9843,-5.0693,-5.2016,-5.2246,-5.2687,-5.3185,-5.3185,-5.3185,-5.3185,-5.3185,-5.3185,0.0,0.0,0.0,0.0,0.0,0.0,0.0,0.0,-5.4202,-5.4735,-5.4735,-5.4735,-5.4576,-5.3779,-5.3188,-5.263,-5.1668,-5.0558,-4.9466,-4.869,-4.8336,0.0,0.0,-4.6555,-4.6462,-4.6002,-4.5932,-4.5978,-4.5978,-4.4928,-4.4309,-4.5036,-4.4536,-4.4024,-4.3939,-4.344,-4.2827,-4.2131,-4.1415,-4.0754,-4.0158,-4.0101,-3.9953,-3.9622,-3.9912,-4.031,-4.0816,-4.1967,-4.2835,-4.3335,-4.4489,-4.5114,-4.5114,-4.5441,-4.5594,-4.5594,-4.5594,-4.5152,-4.4335,-4.521,-4.548,-4.5306,-4.5163,-4.5005,-4.4801,-4.4889,-4.4763,-4.4609,-4.5469,-4.6016,-4.6191,-4.5312,-4.5332,-4.5683,0.0,0.0,0.0,0.0,0.0,0.0,0.0,0.0,0.0,0.0,0.0,0.0,0.0,0.0,0.0,0.0,0.0,0.0,-5.0341,-5.0613,-5.1151,-5.1958,-5.2234,-5.2252,-5.1995,-5.1463,-5.0784,-4.9996,-4.937,-4.9596,-5.0543,-5.0821,-5.1619,-5.2789,-5.2921,-5.3125,-5.338,-5.3251,-5.3185,-5.3185,-5.3185,-5.3185,0.0,0.0,0.0,0.0,0.0,0.0,0.0,0.0,-5.3906,-5.4272,-5.4272,-5.4272,-5.4108,-5.3233,-5.2345,-5.1507,-5.0867,-4.9924,-4.8959,-4.827,0.0,0.0,-4.6275,-4.6039,-4.5988,-4.5831,-4.585,-4.5808,-4.5585,-4.4473,-4.3775,-4.4295,-4.3726,-4.3185,-4.3078,-4.2498,-4.1974,-4.1623,-4.0949,-4.0345,-3.9973,-3.9932,-3.9765,-3.9339,-3.9618,-4.019,-4.1132,-4.2298,-4.3363,-4.4278,-4.5152,-4.5594,-4.5594,-4.5594,-4.5594,-4.5594,-4.5594,-4.5287,-4.472,-4.5325,-4.5673,-4.5805,-4.5293,-4.5154,-4.5275,-4.5369,-4.541,-4.5469,-4.6074,-4.6308,-4.623,-4.5625,-4.5781,-4.6211,0.0,0.0,0.0,0.0,0.0,0.0,0.0,0.0,0.0,0.0,0.0,0.0,0.0,0.0,0.0,0.0,0.0,0.0,-5.0789,-5.0802,-5.1151,-5.1958,-5.2766,-5.2821,-5.2013,-5.1995,-5.161,-5.0802,-5.0802,-5.1411,-5.2603,-5.2602,-5.3297,-5.4487,-5.4013,-5.3795,-5.3758,-5.3361,-5.3188,-5.3188,-5.3206,-5.3188,-5.3188,0.0,0.0,0.0,0.0,0.0,0.0,0.0,-5.3464,-5.3796,-5.3796,-5.3796,-5.3796,-5.3796,-5.1805,-4.9767,-5.0494,-4.9622,-4.8283,-4.7425,0.0,0.0,-4.6286,-4.5899,-4.5846,-4.5648,-4.5688,-4.5584,-4.4911,-4.4133,-4.3604,-4.3671,-4.2969,-4.2361,-4.2291,-4.2169,-4.1736,-4.0812,-4.0588,-4.0257,-3.9668,-3.9599,-3.9352,-3.875,-3.8947,-3.9638,-4.0849,-4.1988,-4.313,-4.4269,-4.5152,-4.5594,-4.5594,-4.5594,-4.5594,-4.5594,-4.5594,-4.5594,-4.5594,-4.5594,-4.5708,-4.5899,-4.5903,-4.6047,-4.6308,-4.6308,-4.6308,-4.6308,-4.6308,-4.6308,-4.6308,-4.6308,-4.6308,-4.6308,0.0,0.0,0.0,0.0,0.0,0.0,0.0,0.0,0.0,0.0,0.0,0.0,0.0,0.0,0.0,0.0,0.0,0.0,-4.9981,-5.049,-5.1151,-5.1958,-5.2234,-5.2509,-5.2839,-5.2839,-5.2179,-5.0802,-5.0802,-5.1411,-5.2621,-5.2878,-5.3543,-5.4503,-5.4355,-5.38,-5.2957,-5.2772,-5.2381,-5.1937,-5.284,-5.3206,-5.3227,0.0,0.0,0.0,0.0,0.0,0.0,0.0,0.0,0.0,0.0,0.0,-5.3269,-5.2699,-5.171,-5.0784,-5.0717,-4.9359,-4.798,-4.8078,0.0,0.0,0.0,-4.5852,0.0,0.0,-4.4735,-4.4128,-4.4631,-4.3109,-4.1986,-4.2675,-4.2005,-4.1372,-4.1266,-4.1163,-4.0986,-4.06,-4.0353,-4.0062,-3.9645,-3.9396,-3.9109,-3.8719,-3.9163,-4.0119,-4.1654,-4.2516,-4.366,-4.5163,-4.5479,-4.5594,-4.5594,-4.5594,-4.5594,-4.5594,-4.5594,-4.5594,-4.5594,-4.5692,-4.5808,-4.5903,-4.5995,-4.6144,-4.6308,-4.6308,-4.6308,-4.6308,-4.6308,-4.6308,-4.6308,-4.6308,-4.6308,-4.6308,0.0,0.0,0.0,0.0,0.0,0.0,0.0,0.0,0.0,0.0,0.0,0.0,0.0,0.0,0.0,0.0,0.0,0.0,0.0,-5.0637,-5.1481,-5.1977,-5.2307,-5.2711,-5.3185,-5.3185,-5.2729,-5.1756,-5.1756,-5.2284,-5.3351,-5.3599,-5.4178,-5.4979,-5.4804,-5.4121,-5.3059,-5.2861,-5.2291,-5.1651,-5.2739,-5.3208,-5.3252,0.0,0.0,0.0,0.0,0.0,0.0,0.0,0.0,0.0,0.0,0.0,0.0,-5.1848,-5.097,-5.0177,-4.9431,-4.8277,-4.7334,-4.745,-4.6979,-4.6381,-4.5963,-4.5783,-4.5692,-4.562,-4.4592,-4.3819,-4.4132,-4.2718,-4.1615,-4.1875,-4.1394,-4.0955,-4.0813,-4.0732,-4.0617,-4.0362,-4.0195,-3.9912,-3.9457,-3.9212,-3.9036,-3.8869,-3.9197,-4.0106,-4.1704,-4.2163,-4.3077,-4.4566,-4.4605,-4.4605,-4.4605,-4.4921,-4.5075,-4.5094,-4.5441,-4.5594,-4.5603,-4.5733,-4.583,-4.5907,-4.6108,-4.6224,-4.6308,-4.6308,-4.6308,-4.6308,-4.6308,-4.6308,-4.6308,-4.6308,-4.6308,-4.6308,0.0,0.0,0.0,0.0,0.0,0.0,0.0,0.0,0.0,0.0,0.0,0.0,0.0,0.0,0.0,0.0,0.0,0.0,0.0,-5.1226,-5.2105,-5.2105,-5.2821,-5.3185,-5.3185,-5.3185,-5.3185,-5.3185,-5.3248,-5.3681,-5.4503,-5.455,-5.4966,-5.5673,-5.5205,-5.4497,-5.3657,-5.3213,-5.2534,-5.1846,-5.2806,-5.3199,-5.3324,-5.4204,0.0,0.0,0.0,0.0,0.0,0.0,0.0,0.0,0.0,-5.3282,-5.3049,-5.1505,-5.0157,-4.8877,-4.7815,-4.719,-4.6719,-4.6256,-4.6708,-4.7011,-4.6032,-4.5708,-4.5601,-4.5524,-4.4889,-4.4168,-4.3421,-4.2682,-4.1963,-4.1308,-4.1078,-4.095,-4.0813,-4.0722,-4.0537,-4.0158,-4.0081,-3.9797,-3.9147,-3.9072,-3.9072,-3.9099,-3.9139,-3.9783,-4.1216,-4.1332,-4.1876,-4.3058,-4.3104,-4.3104,-4.3104,-4.3893,-4.4297,-4.4316,-4.519,-4.5603,-4.561,-4.5742,-4.5859,-4.594,-4.6199,-4.6308,-4.6308,-4.6308,-4.6308,-4.6308,-4.6308,-4.6308,-4.6308,-4.6308,-4.6308,-4.6308,0.0,0.0,0.0,0.0,0.0,0.0,0.0,0.0,0.0,0.0,0.0,0.0,0.0,0.0,0.0,0.0,0.0,0.0,0.0,-5.205,-5.2949,-5.2949,-5.3115,-5.3185,-5.3185,-5.3185,-5.3185,-5.3185,-5.3525,-5.396,-5.4519,-5.4819,-5.5224,-5.5654,-5.4555,-5.362,-5.2813,-5.2043,-5.1306,-5.0793,-5.251,-5.3255,-5.3475,-5.4569,-5.529,0.0,0.0,0.0,0.0,0.0,0.0,0.0,-5.3387,-5.3846,-5.4425,-5.3441,-5.2027,-5.0871,-5.1273,-4.9709,0.0,-4.7932,-4.7153,-4.629,-4.5896,-4.5769,-4.5561,-4.4877,-4.4072,-4.3291,-4.2659,-4.1842,-4.1264,-4.121,-4.0996,-4.0824,-4.0801,-4.0659,-4.0427,-4.0139,-3.987,-3.9552,-3.9152,-3.8909,-3.8869,-3.9085,-3.9339,-4.0008,-4.1235,-4.1549,-4.2112,-4.3066,-4.3104,-4.3104,-4.3104,-4.3893,-4.4297,-4.4316,-4.519,-4.5668,-4.5768,-4.5839,-4.6008,-4.6223,-4.6269,-4.6308,-4.6308,-4.6308,-4.6308,-4.6308,-4.6308,-4.6308,-4.6308,-4.6308,-4.6308,-4.6308,0.0,0.0,0.0,0.0,0.0,0.0,0.0,0.0,0.0,0.0,0.0,0.0,0.0,0.0,0.0,0.0,0.0,0.0,0.0,0.0,-5.2637,-5.2637,-5.3004,-5.3185,-5.3185,-5.3185,-5.339,-5.3775,-5.4019,-5.4255,-5.4519,-5.4924,-5.5319,-5.5645,-5.4595,-5.3663,-5.2832,-5.1947,-5.1411,-5.129,-5.2719,-5.358,-5.4138,-5.5122,-5.5576,-5.5625,-5.4742,0.0,0.0,0.0,0.0,0.0,0.0,0.0,-5.5034,-5.3403,-5.2458,-5.1764,-5.1027,0.0,0.0,-4.812,0.0,-4.5989,-4.5952,-4.5886,-4.5622,-4.4802,-4.3928,-4.3219,-4.2963,-4.1929,-4.099,-4.0625,-4.0383,-4.0241,-4.0233,-4.0042,-3.9915,-3.9865,-3.972,-3.942,-3.8947,-3.8894,-3.9017,-3.9333,-3.9645,-4.0144,-4.0889,-4.1086,-4.1393,-4.1835,-4.1854,-4.1854,-4.1854,-4.3104,-4.3528,-4.3124,-4.4797,-4.5681,-4.5839,-4.5948,-4.6113,-4.6308,-4.6308,-4.6308,-4.6308,-4.6308,-4.6308,-4.6308,-4.6308,-4.6308,-4.6308,-4.6308,-4.6308,-4.6308,0.0,0.0,0.0,0.0,0.0,0.0,0.0,0.0,0.0,0.0,0.0,0.0,0.0,0.0,0.0,0.0,0.0,0.0,0.0,0.0,0.0,-5.1995,-5.2766,-5.3185,-5.3185,-5.3185,-5.3592,-5.4399,-5.4461,-5.4578,-5.4711,-5.5037,-5.5387,-5.5665,-5.4703,-5.3876,-5.3145,-5.2146,-5.1799,-5.2019,-5.3027,-5.3873,-5.4602,-5.5544,-5.5604,-5.5199,-5.5115,-5.4895,-5.4579,0.0,0.0,0.0,0.0,0.0,-5.5366,-5.3183,-5.2629,-5.2264,-5.0199,0.0,-4.9078,-4.7856,-4.6749,0.0,-4.6054,-4.5994,-4.5756,-4.5141,-4.4182,-4.3435,-4.3396,-4.2181,-4.0957,-4.0234,-3.9839,-3.9641,-3.9782,-3.9501,-3.9365,-3.9573,-3.9599,-3.9389,-3.8833,-3.8975,-3.9251,-3.9656,-3.9932,-4.0213,-4.0481,-4.0496,-4.0496,-4.0496,-4.0496,-4.0496,-4.0496,-4.2085,-4.2585,-4.2047,-4.4474,-4.5729,-4.5903,-4.6039,-4.6174,-4.6308,-4.6308,-4.6308,-4.6308,-4.6308,-4.6308,-4.6308,-4.6308,-4.6308,-4.6308,-4.6308,-4.6308,-4.6308,0.0,0.0,0.0,0.0,0.0,0.0,0.0,0.0,0.0,0.0,0.0,0.0,0.0,0.0,0.0,0.0,0.0,0.0,0.0,0.0,0.0,-5.1995,-5.2766,-5.3185,-5.3185,-5.3185,-5.3592,-5.4399,-5.4461,-5.4861,-5.5541,-5.5594,-5.5651,-5.5626,-5.4068,-5.3318,-5.3097,-5.1653,-5.1114,-5.138,-5.2936,-5.365,-5.3893,-5.5339,-5.5778,-5.5577,-5.5244,-5.508,-5.4966,-5.4628,-5.5031,0.0,0.0,0.0,-5.6016,-5.4983,-5.3936,-5.3044,0.0,0.0,-4.8423,0.0,-4.7112,-4.6053,0.0,-4.5997,-4.6041,-4.595,-4.4675,-4.3379,-4.2692,-4.1816,-4.1152,-4.1055,-4.0229,-3.9832,-4.0544,-3.9874,-3.9365,-3.9573,-3.9599,-3.9438,-3.9072,-3.9085,-3.9352,-3.9992,-4.0081,-4.0213,-4.0481,-4.0496,-4.0496,-4.0496,-4.0496,-4.0496,-4.0496,-4.1489,-4.2297,-4.2951,-4.4853,-4.5826,-4.5903,-4.6039,-4.6174,-4.6308,-4.6308,-4.6308,-4.6308,-4.6308,-4.6308,-4.6308,-4.6308,-4.6308,-4.6308,-4.6308,-4.6308,-4.6308,0.0,0.0,0.0,0.0,0.0,0.0,0.0,0.0,0.0,0.0,0.0,0.0,0.0,0.0,0.0,0.0,0.0,0.0,0.0,0.0,0.0,-5.1334,-5.2546,-5.3185,-5.3185,-5.3185,-5.383,-5.506,-5.4685,-5.5128,-5.6373,-5.5919,-5.5703,-5.5626,-5.3953,-5.3244,-5.32,-5.1587,-5.1286,-5.195,-5.2691,-5.2976,-5.3093,-5.4197,-5.4541,-5.4429,-5.4682,-5.5051,-5.5411,-5.5224,-5.5727,-5.628,-5.544,0.0,0.0,0.0,-5.5047,-5.4395,-5.3472,-5.1096,-4.882,0.0,-4.7139,-4.5991,-4.6014,-4.6113,-4.6203,-4.6203,-4.5245,-4.4272,-4.3926,-4.2773,-4.1719,-4.1269,-4.0307,-3.9715,-4.0073,-3.9661,-3.9435,-3.9837,-3.988,-3.9754,-3.9401,-3.9552,-3.9786,-4.0081,-4.0232,-4.0372,-4.0489,-4.0496,-4.0496,-4.0496,-4.0496,-4.0727,-4.1219,-4.2085,-4.3181,-4.4498,-4.4808,-4.5293,-4.5903,-4.5971,-4.6091,-4.6308,-4.6308,-4.6308,-4.6308,-4.6308,-4.6308,-4.6308,-4.6308,-4.6308,-4.6308,-4.6308,-4.6308,-4.6308,0.0,0.0,0.0,0.0,0.0,0.0,0.0,0.0,0.0,0.0,0.0,0.0,0.0,0.0,0.0,0.0,0.0,0.0,0.0,0.0,0.0,-5.0802,-5.216,-5.3004,-5.3185,-5.3185,-5.3904,-5.5299,-5.476,-5.5223,-5.6583,-5.5983,-5.5703,-5.5626,-5.3953,-5.3262,-5.3282,-5.1656,-5.1415,-5.2162,-5.2216,-5.2208,-5.2239,-5.2777,-5.2908,-5.2891,-5.3662,-5.4322,-5.4862,-5.5084,-5.574,-5.6348,-5.5711,-5.6049,0.0,0.0,0.0,0.0,0.0,0.0,-4.8931,-4.838,-4.7066,-4.5924,-4.6033,-4.6175,-4.6308,-4.6308,-4.5781,-4.5312,-4.5291,-4.3886,-4.2539,-4.1933,-4.0787,-4.0016,-4.0217,-3.9716,-3.9512,-4.0043,-4.0101,-4.0002,-3.9754,-3.9943,-4.0129,-4.0195,-4.0381,-4.0496,-4.0496,-4.0496,-4.0496,-4.0496,-4.0708,-4.1143,-4.1788,-4.2874,-4.4028,-4.5267,-4.4875,-4.5105,-4.5903,-4.5948,-4.608,-4.6308,-4.6308,-4.6308,-4.6308,-4.6308,-4.6308,-4.6308,-4.6308,-4.6308,-4.6308,-4.6308,-4.6308,-4.6308,0.0,0.0,0.0,0.0,0.0,0.0,0.0,0.0,0.0,0.0,0.0,0.0,-5.3893,-5.3441,-5.2866,-5.2069,-5.056,0.0,0.0,0.0,0.0,-5.0765,-5.161,0.0,-5.3167,-5.3185,-5.361,-5.4454,-5.448,-5.4937,-5.5767,-5.5708,-5.5703,-5.5626,-5.3953,-5.3262,-5.329,-5.1758,-5.1156,-5.1286,-5.1402,-5.1376,-5.1266,-5.1302,-5.1238,-5.1236,-5.2092,-5.2441,-5.2597,-5.3425,-5.4286,-5.4991,-5.4952,-5.541,-5.5938,0.0,0.0,0.0,0.0,-5.0741,0.0,-4.8115,-4.6997,-4.5903,-4.5907,-4.6115,-4.6308,-4.6308,-4.6269,-4.619,-4.6064,-4.4718,-4.3613,-4.3574,-4.2079,-4.1174,-4.1871,-4.0471,-3.9566,-4.0043,-4.0101,-4.0091,-4.0081,-4.0091,-4.0204,-4.0465,-4.0489,-4.0496,-4.0496,-4.0496,-4.0496,-4.0496,-4.1296,-4.175,-4.1788,-4.3412,-4.4278,-4.4382,-4.5293,-4.578,-4.5903,-4.6036,-4.6173,-4.6308,-4.6308,-4.6308,-4.6308,-4.6308,-4.6308,-4.6308,-4.6308,-4.6308,-4.6308,-4.6308,-4.6308,-4.6308,0.0,0.0,0.0,0.0,0.0,0.0,0.0,0.0,0.0,0.0,0.0,0.0,0.0,-5.362,-5.2984,-5.2433,-5.085,0.0,0.0,0.0,0.0,-5.1083,-5.1699,-5.238,-5.3167,-5.3185,-5.3592,-5.4399,-5.4461,-5.4918,-5.5692,-5.5689,-5.5415,-5.4876,-5.3722,-5.3325,-5.3417,-5.1788,-5.1149,-5.1168,-5.0781,-5.0214,-4.9608,-4.9604,-4.9572,-4.9625,-5.0354,-5.1355,-5.2347,-5.2663,-5.3724,-5.4897,-5.4897,-5.5447,-5.5968,-5.5331,-5.4977,0.0,0.0,0.0,0.0,-4.9202,-4.7822,-4.6731,-4.6731,-4.6501,-4.6308,-4.6308,-4.6308,-4.6289,-4.6246,-4.5292,-4.4511,-4.4418,-4.3435,-4.2737,-4.2903,-4.1854,-4.1094,-4.1176,-4.0701,-4.0356,-4.0356,-4.0356,-4.0389,-4.0489,-4.0496,-4.0496,-4.0496,-4.0496,-4.0496,-4.0496,-4.1354,-4.2316,-4.3393,-4.4547,-4.5133,-4.5133,-4.5597,-4.585,-4.5903,-4.6039,-4.6174,-4.6308,-4.6308,-4.6308,-4.6308,-4.6308,-4.6308,-4.6308,-4.6308,-4.6308,-4.6308,-4.6308,-4.6308,-4.6308,0.0,0.0,0.0,0.0,0.0,0.0,0.0,0.0,0.0,-5.4428,0.0,0.0,0.0,0.0,-5.2491,-5.1821,-5.0503,-4.9457,-4.8934,-4.903,-4.9709,-5.1065,-5.1423,-5.2105,-5.3167,-5.3185,-5.3463,-5.4014,-5.433,-5.4767,-5.5295,-5.5568,-5.5261,-5.4453,-5.3587,-5.3194,-5.3068,-5.1637,-5.1093,-5.1106,-5.0051,-4.9423,-4.9079,-4.8435,-4.8416,-4.8759,-4.9157,-5.0048,-5.1039,-5.1076,-5.2066,-5.3312,-5.3621,-5.4463,-5.5191,-5.4481,-5.433,-5.4068,-5.2365,0.0,0.0,0.0,-4.8488,-4.7586,-4.7636,-4.7125,-4.6676,-4.6738,-4.6504,-4.6289,-4.6246,-4.5757,-4.5342,-4.5254,-4.4589,-4.4018,-4.3863,-4.305,-4.2321,-4.1926,-4.1324,-4.0931,-4.0931,-4.0931,-4.0931,-4.0931,-4.0931,-4.0804,-4.0516,-4.0496,-4.0766,-4.1362,-4.1931,-4.3047,-4.472,-4.5306,-4.5594,-4.5594,-4.5757,-4.5855,-4.5907,-4.6082,-4.6222,-4.6308,-4.6308,-4.6308,-4.6308,-4.6308,-4.6308,-4.6328,-4.6621,-4.6738,-4.6738,-4.6738,-4.6738,-4.6699,0.0,0.0,0.0,0.0,0.0,0.0,0.0,0.0,-5.3203,-5.3203,0.0,0.0,0.0,0.0,0.0,-5.0193,-4.9401,-4.8947,-4.8947,-4.855,-4.9079,-5.077,0.0,0.0,-5.3191,-5.3227,-5.3206,-5.3185,-5.4068,-5.4503,-5.4519,-5.53,-5.5222,-5.4414,-5.3559,-5.2835,-5.2203,-5.1284,-5.1014,-5.1037,-4.9259,-4.9118,-4.9745,-4.7903,-4.779,-4.8591,-4.8472,-4.8433,-4.8489,-4.8605,-4.9274,-5.0204,-5.117,-5.2457,-5.3583,-5.3415,-5.2707,-5.1943,0.0,0.0,0.0,-4.9481,-4.8889,-4.8386,-4.8536,-4.796,-4.7448,-4.7577,-4.6914,-4.6287,-4.6158,-4.6165,-4.6165,-4.6162,-4.5516,-4.4961,-4.4765,-4.3997,-4.3106,-4.2183,-4.194,-4.1843,-4.1843,-4.1835,-4.1846,-4.1846,-4.1846,-4.147,-4.0612,-4.0573,-4.1362,-4.3085,-4.3143,-4.3932,-4.5575,-4.5594,-4.5594,-4.5594,-4.5792,-4.5899,-4.5907,-4.6175,-4.6308,-4.6308,-4.6308,-4.6308,-4.6308,-4.6308,-4.6308,-4.6387,-4.7266,-4.7578,-4.7558,-4.7598,-4.7578,-4.7441,0.0,0.0,0.0,0.0,0.0,0.0,-5.1691,-5.2574,-5.3203,0.0,0.0,0.0,-5.1923,-5.1375,-5.0794,-5.0155,-4.9911,-4.9773,-4.9773,-4.9386,-5.0047,-5.2016,-5.1826,-5.2297,-5.3607,-5.3624,-5.3485,-5.3185,-5.4068,-5.4503,-5.45,-5.4726,-5.4376,-5.354,-5.2749,-5.2043,-5.141,-5.1054,-5.0996,-5.1023,-4.9897,-4.9162,-4.8666,-4.7602,-4.6986,-4.666,-4.6632,-4.7012,-4.7566,-4.7599,-4.91,-5.1219,-5.2791,-5.3496,-5.3618,-5.2933,-5.2932,-5.288,-5.1645,0.0,0.0,0.0,0.0,0.0,-5.0153,-4.8791,-4.7448,-4.7577,-4.7336,-4.7079,-4.7045,-4.748,-4.7791,-4.7714,-4.6534,-4.561,-4.5517,-4.4824,-4.4216,-4.3847,-4.3218,-4.2808,-4.2808,-4.2776,-4.2739,-4.2739,-4.2739,-4.2643,-4.2393,-4.2374,-4.2874,-4.3932,-4.397,-4.4489,-4.5594,-4.5594,-4.5594,-4.5594,-4.5792,-4.5899,-4.5907,-4.6175,-4.6308,-4.6308,-4.6308,-4.6308,-4.6308,-4.6308,-4.6308,-4.6387,-4.7266,-4.7207,-4.6738,-4.7363,-4.7207,-4.6719,0.0,0.0,0.0,0.0,0.0,-5.1141,-5.1355,-5.1837,-5.2184,0.0,0.0,0.0,-5.1487,-5.1019,-5.0604,-5.0358,-5.0195,-5.0092,-5.0092,-5.0055,-5.0719,-5.2294,-5.2435,-5.2997,-5.4082,-5.3887,-5.3777,-5.3739,-5.4257,-5.4597,-5.476,-5.4575,-5.403,-5.3174,-5.2431,-5.1722,-5.1089,-5.0953,-5.0974,-5.0992,-4.9685,-4.9039,-4.8713,-4.7527,-4.7002,-4.686,-4.646,-4.6636,-4.7042,-4.6718,-4.7973,-4.9926,-5.1337,-5.1988,-5.2116,-5.1611,-5.1978,-5.2271,-5.0909,-5.1103,-5.1677,-5.1677,0.0,0.0,-5.0892,-4.9635,-4.8359,-4.8487,-4.8173,-4.7866,-4.7866,-4.8161,-4.8392,-4.8313,-4.7475,-4.6704,-4.6351,-4.5924,-4.5365,-4.459,-4.4053,-4.3741,-4.3741,-4.3751,-4.377,-4.377,-4.3714,-4.3509,-4.3132,-4.3104,-4.347,-4.4278,-4.4297,-4.472,-4.5594,-4.5594,-4.5594,-4.5594,-4.5792,-4.5899,-4.5907,-4.6175,-4.6308,-4.6308,-4.6308,-4.6308,-4.6308,-4.6308,-4.6504,-4.6894,-4.7402,-4.7519,-4.7402,-4.7558,-4.7285,-4.6914,0.0,0.0,0.0,0.0,-5.0712,-5.0712,-5.0712,-5.0712,-5.0747,0.0,-5.0911,-5.0911,-5.0889,-5.078,-5.0721,-5.0693,-5.0369,-5.0171,-5.0171,-5.0561,-5.1159,-5.1958,-5.2771,-5.3588,-5.4396,-5.4114,-5.4135,-5.4503,-5.4532,-5.4708,-5.4949,-5.4541,-5.3886,-5.3041,0.0,0.0,-5.1096,-5.0975,-5.0943,-5.0807,-4.911,-4.8827,-4.9257,-4.7551,-4.7351,-4.7884,-4.7069,-4.6759,-4.6679,-4.6121,-4.6576,-4.7528,-4.8413,-4.9238,-4.9883,-4.9883,-5.0404,-5.0839,-5.0056,-5.0456,-5.1132,-5.123,-5.1086,0.0,-5.1079,-5.0258,-4.9479,-4.9537,-4.8895,-4.8326,-4.8326,-4.8302,-4.8283,-4.8283,-4.8249,-4.7967,-4.7167,-4.699,-4.6414,-4.5024,-4.4705,-4.4683,-4.4914,-4.4952,-4.497,-4.4977,-4.4774,-4.4284,-4.3442,-4.339,-4.3701,-4.4412,-4.4432,-4.4816,-4.5594,-4.5594,-4.5594,-4.5594,-4.5792,-4.5899,-4.5907,-4.6175,-4.6308,-4.6308,-4.6308,-4.6308,-4.6308,-4.6308,-4.6816,-4.7617,-4.7715,-4.8164,-4.8672,-4.7988,-4.7676,-4.7617,0.0,0.0,0.0,0.0,0.0,-5.0712,-5.0712,-5.0799,-5.0863,-5.0901,-5.0997,-5.1027,-5.0903,-5.0871,-5.0822,-5.0712,-5.0624,-5.0575,-5.0575,-5.0677,-5.1086,-5.188,-5.2743,-5.3432,-5.3933,-5.4529,-5.4731,-5.4503,-5.4819,-5.4659,-5.4039,-5.364,-5.3041,-5.2287,-5.1599,-5.1243,-5.1171,-5.1145,-5.0713,-4.9995,-4.9424,-4.8871,-4.8284,-4.7277,-4.6574,-4.6097,-4.592,-4.5855,-4.5956,-4.6626,-4.7026,-4.7416,-4.8382,-4.8898,-4.9119,-4.9119,-4.9703,-5.0344,-5.0168,-5.0633,-5.1355,-5.2051,-5.165,0.0,-5.117,-4.9893,-4.8545,-4.7986,-4.7558,-4.7282,-4.7282,-4.7751,-4.813,-4.813,-4.871,-4.8741,-4.7569,-4.6941,-4.6731,-4.7028,-4.5982,-4.5872,-4.7558,-4.7011,-4.6602,-4.6694,-4.5997,-4.5473,-4.5284,-4.5167,-4.519,-4.5344,-4.5344,-4.5441,-4.5594,-4.5594,-4.5594,-4.5594,-4.5792,-4.5899,-4.5907,-4.6175,-4.6308,-4.6308,-4.6308,-4.6308,-4.6308,-4.6308,-4.6816,-4.7676,-4.8379,-4.832,-4.793,-4.8457,-4.8203,-4.7695,0.0,0.0,0.0,0.0,0.0,-5.0712,-5.0791,-5.0867,-5.094,-5.104,-5.1109,-5.1121,-5.1064,-5.0571,-5.0407,-5.0758,-5.0335,-5.025,-5.0673,-5.1087,-5.1491,-5.1885,-5.2731,-5.3283,-5.3491,-5.3735,-5.3855,-5.3855,-5.3855,-5.3735,-5.3491,-5.2841,-5.2154,-5.1443,-5.122,-5.0874,-5.0539,-5.0974,-5.0592,-4.9638,-4.9088,-4.8309,-4.7413,-4.6567,-4.597,-4.5594,-4.5594,-4.5594,-4.5689,-4.6179,-4.6416,-4.6673,-4.765,-4.804,-4.8176,-4.8222,-4.918,-5.0117,-4.9668,-5.0407,-5.1394,-5.184,-5.155,0.0,0.0,-4.9847,-4.8928,-4.8101,-4.7794,-4.7661,-4.7661,-4.7907,-4.8105,-4.8105,-4.8836,-4.8951,-4.7682,-4.7757,-4.7932,-4.7895,-4.7282,-4.7255,-4.83,-4.7999,-4.7772,-4.784,-4.6947,-4.6401,-4.6461,-4.5912,-4.5594,-4.5594,-4.5594,-4.5594,-4.5594,-4.5594,-4.5594,-4.5594,-4.5792,-4.5899,-4.5907,-4.6175,-4.6308,-4.6308,-4.6308,-4.6308,-4.6308,-4.6308,-4.707,-4.8242,-4.8242,-4.8516,-4.8848,-4.8418,-4.8242,-4.8301,0.0,0.0,0.0,0.0,0.0,0.0,0.0,-5.0801,-5.1006,-5.1204,-5.1102,-5.1,-5.0969,-5.0053,-4.9698,-5.0376,-4.9707,-4.9581,-5.0431,-5.1096,-5.1453,-5.1433,-5.2404,-5.2953,-5.2953,-5.295,-5.3123,-5.3453,-5.3123,-5.295,-5.2933,-5.2271,-5.1541,-5.0854,-5.0855,-5.0462,-4.9879,-5.0537,-5.0149,-4.9076,-4.8491,-4.7719,-4.6797,-4.5932,-4.5594,-4.5594,-4.5594,-4.5594,-4.5594,-4.5594,-4.5677,-4.5925,-4.6697,-4.7003,-4.7138,-4.7234,-4.8509,-4.9721,-4.904,-5.0096,-5.1366,-5.1387,-5.132,-5.1023,0.0,0.0,0.0,-4.8723,-4.8421,-4.8241,-4.8094,-4.7965,-4.7817,-4.7644,-4.8355,-4.8567,-4.7532,-4.8546,-4.9106,-4.8318,-4.821,-4.8411,-4.897,-4.9004,-4.897,-4.8988,-4.7927,-4.7231,-4.7125,-4.6348,-4.58,-4.5614,-4.5594,-4.5594,-4.5594,-4.5594,-4.5594,-4.5594,-4.5792,-4.5899,-4.5907,-4.6175,-4.6308,-4.6308,-4.6308,-4.6308,-4.6308,-4.6308,-4.7226,-4.8594,-4.8066,-4.8808,-5.0039,-4.8613,-4.8555,-4.9141,-4.7798,-4.8182,0.0,0.0,0.0,0.0,0.0,0.0,-5.1156,-5.1343,-5.0761,-5.0267,-5.0152,-4.9332,-4.8798,-4.8764,-4.866,-4.8928,-4.9683,-4.9811,-4.981,-4.9692,-5.1202,-5.2038,-5.2038,-5.3518,-5.4306,-5.4357,-5.4306,-5.3518,-5.2049,-5.2078,-5.1728,-5.104,-5.0276,-4.996,-4.9961,-4.9826,-4.8845,-4.7429,-4.7929,-4.7624,-4.6797,-4.5932,-4.5594,-4.5594,-4.5594,-4.5594,-4.5594,-4.5594,-4.5677,-4.5822,-4.5919,-4.6016,-4.608,-4.6092,-4.7323,-4.8705,-4.8723,-4.9946,-5.1244,-5.1366,-5.1386,-5.1171,-5.0351,0.0,-4.9733,-4.8852,0.0,-4.8088,-4.7365,0.0,0.0,-4.6018,-4.6624,-4.7125,-4.6982,-4.8375,-4.9229,-4.877,-4.8211,-4.8866,-5.1428,-5.1087,-5.0714,-5.0724,-4.9233,-4.7991,-4.7226,-4.7022,-4.6518,-4.5642,-4.5594,-4.5594,-4.5594,-4.5594,-4.5594,-4.5594,-4.5792,-4.5899,-4.5907,-4.6175,-4.6308,-4.6308,-4.6308,-4.6308,-4.6308,-4.6308,-4.6875,-4.7812,-4.8496,-4.9355,-5.0176,-4.998,-4.9961,-5.0058,-4.7182,-4.7413,0.0,0.0,0.0,0.0,0.0,0.0,-4.9843,-4.9941,-4.9668,-4.9413,-4.9367,-4.8507,-4.8125,-4.8574,-4.8085,-4.8098,-4.8907,-4.945,-4.9911,-5.0376,-5.1439,-5.2243,-5.2754,-5.3417,-5.351,-5.2991,-5.2991,-5.2375,-5.1212,-5.133,-5.1037,-5.034,-4.9959,-4.9558,-4.9157,-4.9471,-4.8585,-4.7058,-4.7804,-4.7317,-4.6105,-4.5748,-4.5594,-4.5594,-4.5594,-4.5594,-4.5518,-4.5017,-4.5211,-4.5615,-4.5189,-4.5401,-4.5839,-4.59,-4.6779,-4.7862,-4.8433,-4.9516,-5.0627,-5.1153,-5.1344,-5.1055,-4.9746,-4.9783,-4.9739,-4.8352,0.0,0.0,0.0,0.0,0.0,0.0,-4.7355,-4.7432,-4.6962,-4.8336,-4.9375,-4.9277,-4.9384,-4.9961,-5.1178,-5.1429,-5.1351,-5.0966,-4.9822,-4.8769,-4.7881,-4.7372,-4.6644,-4.5642,-4.5594,-4.5594,-4.5594,-4.5594,-4.5594,-4.5594,-4.5792,-4.5899,-4.5907,-4.6175,-4.6308,-4.6308,-4.6308,-4.6308,-4.6348,-4.6855,-4.7578,-4.8437,-4.9316,-4.9883,-5.0195,-5.0195,-5.0508,-5.082,-4.6472,0.0,0.0,0.0,0.0,0.0,0.0,-4.8548,-4.8613,-4.8826,-4.8649,-4.8472,-4.8445,-4.7597,-4.7295,-4.7938,-4.7348,-4.731,-4.8148,-4.9008,-4.9662,-5.0024,-5.1178,-5.1985,-5.2349,-5.2708,-5.2579,-5.1904,-5.1904,-5.1491,-5.0693,-5.0871,-5.0673,-5.0145,-4.9663,-4.9094,-4.8525,-4.8767,-4.7954,-4.6624,-4.7451,-4.6838,-4.5457,-4.5457,-4.5457,-4.5438,-4.5179,-4.5167,-4.5114,-4.4259,-4.4528,-4.5158,-4.4622,-4.5051,-4.5749,-4.5799,-4.6435,-4.7262,-4.7927,-4.8805,-4.9692,-5.0357,-5.0588,-5.0408,-4.9472,-4.9551,-4.9629,-4.8808,-4.8854,0.0,0.0,0.0,-4.8542,-4.821,0.0,-4.7894,-4.7308,-4.8507,-4.941,-4.9248,-5.0331,-5.1067,-5.1039,-5.1568,-5.1702,-5.1261,-5.0466,-4.9636,-4.8757,-4.8159,-4.7378,-4.637,-4.6091,-4.5951,-4.5951,-4.5729,-4.562,-4.5648,-4.5828,-4.5916,-4.5951,-4.6199,-4.6308,-4.6308,-4.6308,-4.6445,-4.6719,-4.7344,-4.8105,-4.8984,-4.9863,-5.0195,-5.0234,-5.0449,-5.0898,-5.1328,-4.5794,-4.6402,-4.7187,-4.8121,-4.8292,0.0,-4.8655,-4.8095,-4.7908,-4.8601,-4.7969,-4.7398,-4.7276,-4.6582,-4.6154,-4.6173,-4.6265,-4.6634,-4.7392,-4.8248,-4.8314,-4.7378,-4.9761,-5.0684,-4.9751,-5.1319,-5.2067,-5.1904,-5.1904,-5.1491,-5.0702,-5.0966,-5.1089,-5.0977,-4.9298,-4.8533,-4.8433,-4.7411,-4.6479,-4.5729,-4.6586,-4.6205,-4.5107,-4.5107,-4.5107,-4.5012,-4.4162,-4.4068,-4.422,-4.3412,-4.3662,-4.4335,-4.4306,-4.491,-4.5603,-4.5612,-4.6228,-4.6945,-4.7092,-4.774,-4.8417,-4.8713,-4.8788,-4.9036,-4.9941,-4.9531,-4.9394,-5.0957,-5.0573,-4.9952,-4.9957,-4.9737,-4.9282,-4.843,-4.8177,0.0,0.0,-4.896,-4.9282,-4.8437,-5.0533,-5.1995,-5.1876,-5.1885,-5.1934,-5.2047,-5.1441,-5.0664,-4.9804,-4.9733,-4.9248,-4.8243,-4.7323,-4.6846,-4.6846,-4.6009,-4.5665,-4.5796,-4.5876,-4.5974,-4.6108,-4.6245,-4.6308,-4.6308,-4.6308,-4.6777,-4.7558,-4.7598,-4.8105,-4.8984,-4.9863,-5.0195,-5.0293,-5.1074,-5.1387,-5.1406,0.0,0.0,-4.6335,-4.6657,-4.6794,-4.6861,-4.6972,-4.6766,-4.6665,-4.6826,-4.6582,-4.6197,-4.56,-4.58,-4.574,-4.5218,-4.5774,-4.6276,-4.6519,-4.7441,-4.8077,-4.8319,-5.0149,-5.1273,-5.1514,-5.2473,-5.267,-5.2037,-5.1934,-5.1529,0.0,-5.1022,-5.0843,-5.0316,-4.9064,-4.8174,-4.7611,-4.7106,-4.6263,-4.5301,-4.5588,-4.5322,-4.4776,-4.4776,-4.4776,-4.4643,-4.3772,-4.354,-4.3455,-4.2307,-4.246,-4.3168,-4.3111,-4.3866,-4.4809,-4.516,-4.563,-4.618,-4.6805,-4.7221,-4.7663,-4.8269,-4.85,-4.8522,-4.8371,-4.9005,-4.9656,-4.9726,-5.0389,-5.0907,-5.0803,-5.0713,-5.052,-5.0079,-4.9576,-4.9188,0.0,-5.0034,-5.0952,-5.1591,-5.2001,-5.1934,-5.1183,-5.1587,-5.1693,-5.1209,-5.1121,-5.0685,-4.9712,-4.9742,-4.9332,-4.8327,-4.7985,-4.7832,-4.7832,-4.7056,-4.6674,-4.6722,-4.6247,-4.6069,-4.6091,-4.6246,-4.6308,-4.6308,-4.6308,-4.6797,-4.7637,-4.8223,-4.8965,-4.9844,-5.0664,-5.0996,-5.1035,-5.1308,-5.1406,-5.1406,-4.5971,-4.5978,-4.5978,-4.5978,-4.6082,-4.6168,-4.6103,-4.6108,-4.6036,-4.5896,-4.558,-4.5195,-4.4622,-4.4801,-4.4866,-4.4657,-4.5227,-4.5724,-4.6014,-4.697,-4.7631,-4.7885,-4.9506,-5.0473,-5.0686,-5.1316,-5.1508,-5.1203,-5.1085,-5.0959,0.0,0.0,0.0,-4.9959,-4.8957,-4.8018,-4.7178,-4.6642,-4.5928,-4.5085,-4.4966,-4.4707,-4.4392,-4.4392,-4.4392,-4.4242,-4.3109,-4.2774,-4.2648,-4.1198,-4.1273,-4.2045,-4.2267,-4.3184,-4.4288,-4.4902,-4.5332,-4.5729,-4.6297,-4.6494,-4.6702,-4.7261,-4.748,-4.7495,-4.7366,-4.795,-4.8666,-4.9132,-4.9871,-5.0603,-5.1111,-5.1208,-5.1151,-5.1025,-5.0588,-5.035,0.0,-5.1534,-5.2506,-5.3379,-5.3058,-5.2331,-5.1231,-5.1606,-5.1568,-5.077,-5.0896,-5.0763,-5.0166,-5.0165,-4.9925,-4.931,-4.8955,-4.8766,-4.8766,-4.7727,-4.7213,-4.7271,-4.6479,-4.6119,-4.6174,-4.6268,-4.6308,-4.6328,-4.6621,-4.7266,-4.8125,-4.9004,-4.9863,-5.0683,-5.1191,-5.1406,-5.1406,-5.1406,-5.1406,-5.1445,-4.6082,-4.6095,-4.6099,-4.6081,-4.6205,-4.6247,-4.611,-4.608,-4.6008,-4.5751,-4.4996,-4.4406,-4.4207,-4.3598,-4.3511,-4.4299,-4.4559,-4.5004,-4.5773,-4.6768,-4.6967,-4.6147,-4.7845,-4.8375,-4.7435,-4.8121,-4.886,-4.956,-4.9461,-4.9903,0.0,0.0,0.0,0.0,-4.8979,-4.8042,-4.7062,-4.6085,-4.5438,-4.5074,-4.4707,-4.4332,-4.4001,-4.4001,-4.4001,-4.3747,-4.2147,-4.1776,-4.1795,-4.0141,-4.0146,-4.1007,-4.182,-4.2902,-4.4041,-4.4838,-4.5322,-4.5594,-4.5594,-4.5594,-4.5627,-4.5761,-4.579,-4.6028,-4.6922,-4.6517,-4.6673,-4.9157,-4.9182,-4.923,-5.0852,-5.1172,-5.1191,-5.1204,-5.1175,-5.1518,-5.2508,-5.3357,-5.3838,-5.3745,-5.3687,-5.3191,-5.2021,-5.1904,-5.1568,-5.077,-5.0811,-5.0972,-5.1084,-5.1014,-5.1018,-5.1103,-5.0254,-4.9781,-4.9743,-4.8195,-4.7453,-4.752,-4.6603,-4.6215,-4.6308,-4.6348,-4.6347,-4.6406,-4.7285,-4.8144,-4.9023,-4.9863,-5.0664,-5.1406,-5.1406,-5.1406,-5.1406,-5.1445,-5.1465,-5.1582,-4.6246,-4.6171,-4.6075,-4.5977,-4.6054,-4.6097,-4.5901,-4.5883,-4.5582,-4.4785,-4.4484,-4.3863,-4.2585,-4.2845,-4.2961,-4.2537,-4.3757,-4.4649,-4.4857,-4.5749,-4.6229,-4.6106,-4.7178,-4.7707,-4.7556,-4.8259,-4.874,-4.8927,-4.9448,-4.9886,-5.024,0.0,0.0,0.0,-4.9487,-4.836,-4.6245,-4.6571,-4.6091,-4.5033,-4.4414,-4.4087,-4.4001,-4.4001,-4.3852,-4.3426,-4.1807,-4.128,-4.1141,-3.9698,-3.9773,-4.0614,-4.146,-4.2699,-4.3947,-4.4547,-4.514,-4.5594,-4.5594,-4.5594,-4.5603,-4.5643,-4.566,-4.5735,-4.608,-4.6492,-4.6998,-4.7723,-4.8755,-4.9675,-5.0204,-5.0798,-5.121,-5.1197,-5.1734,-5.2706,-5.435,-5.4763,-5.5104,-5.563,-5.5028,-5.3858,-5.2079,-5.1904,-5.1568,-5.077,-5.0811,-5.0972,-5.1084,-5.1624,-5.1704,-5.1196,-5.2171,-5.2414,-5.1771,-5.0809,-5.0031,-4.945,-4.7946,-4.6893,-4.6328,-4.6861,-4.712,-4.7178,-4.8039,-4.8917,-4.9741,-5.0076,-5.0664,-5.1406,-5.1406,-5.1406,-5.1484,-5.2129,-5.2363,-5.248,-4.6203,-4.6091,-4.5974,-4.5881,-4.5915,-4.5935,-4.5828,-4.5803,-4.5445,-4.4427,-4.3989,-4.3278,-4.1942,-4.1893,-4.1912,-4.1808,-4.3081,-4.4035,-4.4382,-4.5324,-4.5891,-4.5978,-4.6472,-4.6801,-4.6944,-4.7282,-4.7689,-4.8133,-4.8869,-4.9496,-5.0011,0.0,0.0,0.0,0.0,-4.7752,-4.59,-4.597,-4.5578,-4.4837,-4.4247,-4.3909,0.0,-4.394,-4.3788,-4.3332,-4.2084,-4.1625,-4.1401,-3.9941,-3.9978,-4.0796,-4.1647,-4.2682,-4.3729,-4.4399,-4.5066,-4.5594,-4.5594,-4.5594,-4.5594,-4.5594,-4.5594,-4.5629,-4.5692,-4.609,-4.6552,-4.6978,-4.7899,-4.8769,-4.925,-5.0073,-5.0938,-5.1731,-5.2582,-5.3664,-5.5097,-5.5625,-5.5993,-5.636,-5.5902,-5.4781,-5.2837,-5.2193,-5.1712,-5.126,-5.0968,-5.0901,-5.1079,-5.1806,-5.207,-5.1772,-5.2728,-5.3177,-5.3079,-5.1616,-5.0644,-5.0176,-4.8437,-4.7148,-4.6328,-4.7065,-4.7389,-4.747,-4.8721,-4.954,-5.0035,-5.0524,-5.0996,-5.1406,-5.1406,-5.1406,-5.1543,-5.2812,-5.3027,-5.2871,-4.6014,-4.5853,-4.5745,-4.5717,-4.5612,-4.5541,-4.5608,-4.5588,-4.5204,-4.4111,-4.3355,-4.2604,-4.172,-4.095,-4.0804,-4.1566,-4.2527,-4.3393,-4.4105,-4.5174,-4.5776,-4.5796,-4.5855,-4.5952,-4.6075,-4.5963,-4.6328,-4.7206,-4.7959,-4.8797,0.0,0.0,0.0,0.0,0.0,-4.7039,-4.6008,-4.5008,-4.4593,-4.4553,-4.4102,-4.3756,-4.3531,-4.3818,-4.374,-4.3404,-4.2598,-4.2304,-4.2066,-4.0561,-4.0598,-4.137,-4.2084,-4.285,-4.3624,-4.4385,-4.5066,-4.5594,-4.5594,-4.5594,-4.5594,-4.5594,-4.5594,-4.5594,-4.5594,-4.5594,-4.5806,-4.6567,-4.6908,-4.7327,-4.8151,-4.9237,-5.0582,-5.2402,-5.3437,-5.4336,-5.5332,-5.6113,-5.6501,-5.6272,-5.6143,0.0,-5.3774,-5.2705,-5.2021,-5.178,-5.1106,-5.0861,-5.1234,-5.1911,-5.2429,-5.2683,-5.2915,-5.3286,-5.3813,-5.1754,-5.0586,-5.0332,-4.8594,-4.7304,-4.6464,-4.7212,-4.7527,-4.7616,-4.9385,-5.0132,-5.0218,-5.105,-5.1406,-5.1406,-5.1406,-5.1465,-5.1777,-5.3398,-5.3594,-5.3262,-4.5515,-4.5163,-4.4978,-4.5197,-4.4622,-4.4241,-4.4523,-4.4548,-4.4001,-4.2431,-4.2124,-4.17,-4.0823,-4.0593,-4.0554,-4.0708,-4.2181,-4.3162,-4.3297,-4.4763,-4.5677,-4.5796,-4.5809,-4.5859,-4.5928,-4.5908,-4.5985,-4.6157,-4.7014,-4.7569,0.0,0.0,0.0,0.0,0.0,-4.8016,-4.6868,-4.5267,-4.4593,-4.454,-4.3852,-4.3546,-4.3515,-4.3582,-4.3548,-4.3404,-4.2598,-4.2304,-4.2158,-4.1222,-4.1423,-4.2121,-4.2268,-4.326,-4.4404,-4.4555,-4.5066,-4.5594,-4.5594,-4.5594,-4.5594,-4.5594,-4.5594,-4.5594,-4.5594,-4.5594,-4.5633,-4.5806,-4.641,-4.7012,-4.7282,-4.8807,-5.0582,-5.2402,-5.3437,-5.4551,-5.6152,-5.6504,-5.6328,-5.5584,-5.4765,-5.4125,-5.3793,-5.3384,-5.2566,-5.1184,-5.0843,-5.1112,-5.2037,-5.2879,-5.3465,-5.373,-5.5135,-5.5253,-5.3983,-5.3554,-5.2617,-5.1172,-4.9473,-4.816,-4.7235,-4.7969,-4.8248,-4.8237,-5.0101,-5.0908,-5.0925,-5.1257,-5.1406,-5.1406,-5.1406,-5.1836,-5.2598,-5.3613,-5.4355,-5.498,-4.502,-4.4772,-4.4545,-4.4223,-4.3958,-4.3564,-4.2852,-4.2902,-4.272,-4.1904,-4.1788,-4.147,-4.0593,-4.0496,-4.0496,-4.0496,-4.1681,-4.2431,-4.2431,-4.3989,-4.4944,-4.5009,-4.5461,-4.5742,-4.5853,-4.5859,-4.5871,-4.5899,-4.6764,-4.7221,-4.7304,-4.7736,-4.7735,-4.7394,0.0,-4.6991,-4.6393,-4.5126,-4.4593,-4.4546,-4.3791,-4.3515,-4.3515,-4.3515,-4.3515,-4.346,-4.3057,-4.291,-4.28,-4.1992,-4.2268,-4.291,-4.291,-4.3688,-4.4593,-4.4593,-4.5066,-4.5594,-4.5594,-4.5594,-4.5594,-4.5594,-4.5594,-4.5594,-4.5594,-4.5594,-4.5594,-4.5594,-4.5932,-4.6552,-4.7627,-4.8691,-5.0307,-5.2949,-5.4101,-5.5137,-5.6426,-5.6992,-5.6953,-5.6074,-5.5153,-5.4403,-5.3952,-5.3715,-5.3243,-5.2375,-5.1812,-5.198,-5.3015,-5.3471,-5.3994,-5.4648,-5.5488,-5.5527,-5.4687,-5.3789,-5.2676,-5.1387,-5.0156,-4.9057,-4.8096,-4.8837,-4.9137,-4.9153,-5.0519,-5.1131,-5.1154,-5.134,-5.1406,-5.1445,-5.1894,-5.2324,-5.2851,-5.4199,-5.4941,-5.543,-4.4328,-4.4156,-4.3866,-4.3094,-4.3071,-4.2743,-4.1492,-4.1378,-4.1451,-4.1519,-4.1527,-4.1258,-4.0573,-4.0496,-4.0496,-4.0496,-4.1296,-4.1788,-4.1788,-4.3374,-4.428,-4.4208,-4.5034,-4.55,-4.5538,-4.5603,-4.5678,-4.5733,-4.6491,-4.6872,-4.6902,-4.6902,-4.6916,-4.6896,-4.6149,-4.5757,-4.5648,-4.4924,-4.4553,-4.4419,-4.3758,-4.3515,-4.3515,-4.3515,-4.3515,-4.3515,-4.3515,-4.3515,-4.3387,-4.2763,-4.2983,-4.3513,-4.358,-4.4065,-4.4606,-4.4701,-4.5129,-4.5594,-4.5594,-4.5594,-4.5594,-4.5594,-4.5594,-4.5594,-4.5594,-4.5594,-4.5594,-4.5594,-4.5594,-4.614,-4.7894,-4.854,-4.9839,-5.2949,-5.4492,-5.5605,-5.6484,-5.7344,-5.7519,-5.6445,-5.5547,-5.4609,-5.3555,-5.3681,-5.3799,-5.3689,-5.3,-5.3026,-5.4013,-5.4077,-5.4451,-5.5273,-5.5488,-5.5312,-5.4746,-5.3574,-5.2441,-5.1387,-5.0586,-4.9779,-4.8994,-4.9586,-4.9828,-4.9844,-5.0748,-5.1174,-5.1244,-5.1365,-5.1406,-5.1484,-5.2363,-5.2812,-5.3164,-5.4726,-5.543,-5.5664,-4.3117,-4.2727,-4.2364,-4.1865,-4.1373,-4.1131,-4.1272,-4.0721,-4.0356,-4.0588,-4.0631,-4.0593,-4.0516,-4.0496,-4.0496,-4.0496,-4.1296,-4.1788,-4.1788,-4.3374,-4.4162,-4.385,-4.4671,-4.5011,-4.4726,-4.5003,-4.5173,-4.5175,-4.555,-4.5816,-4.5925,-4.5925,-4.5958,-4.6011,-4.5877,-4.5629,-4.5316,-4.4801,-4.4392,-4.4013,-4.3646,-4.3515,-4.3515,-4.3515,-4.3515,-4.3515,-4.3515,-4.3515,-4.3496,-4.3423,-4.3441,-4.3546,-4.3849,-4.4266,-4.4657,-4.4954,-4.5312,-4.5594,-4.5594,-4.5594,-4.5594,-4.5594,-4.5594,-4.5594,-4.5594,-4.5594,-4.5594,-4.5594,-4.5594,-4.5947,-4.7111,-4.7996,-4.9214,-5.1307,-5.3691,-5.5605,-5.6484,-5.7344,-5.7285,-5.5625,-5.4648,-5.3476,-5.1797,-5.3066,-5.3983,-5.3963,-5.3667,-5.3927,-5.4914,-5.4975,-5.5077,-5.5293,-5.6074,-5.5332,-5.2969,-5.3574,-5.3047,-5.1387,-5.0586,-5.0093,-4.9881,-4.9947,-4.9907,-4.9848,-5.0794,-5.1265,-5.1386,-5.1387,-5.1406,-5.1484,-5.2363,-5.3183,-5.3984,-5.4941,-5.5801,-5.6484,-4.189,-4.1666,-4.1362,-4.0705,-4.0528,-4.0382,-4.002,-3.9876,-3.984,-3.9954,-3.9955,-4.0053,-4.0241,-4.025,-4.033,-4.0481,-4.0682,-4.0785,-4.0785,-4.1713,-4.2406,-4.2754,-4.358,-4.4202,-4.4593,-4.472,-4.4896,-4.5096,-4.5232,-4.5438,-4.5688,-4.5688,-4.5587,-4.5423,-4.5386,-4.5178,-4.4851,-4.4417,-4.4146,-4.3971,-4.3629,-4.3515,-4.3515,-4.3515,-4.3515,-4.3515,-4.3515,-4.3629,-4.3804,-4.3804,-4.3804,-4.3818,-4.3955,-4.4395,-4.4919,-4.5063,-4.5332,-4.5594,-4.5594,-4.5594,-4.5594,-4.5594,-4.5594,-4.5594,-4.5594,-4.5594,-4.5594,-4.5594,-4.5657,-4.6028,-4.7028,-4.7988,-4.9404,-5.1796,-5.3945,-5.5605,-5.6484,-5.7344,-5.7246,-5.5508,-5.4531,-5.3516,-5.2305,-5.2812,-5.3223,-5.3223,-5.3602,-5.447,-5.591,-5.5012,-5.4704,-5.5273,-5.6152,-5.5332,-5.2734,-5.3555,-5.3125,-5.1406,-5.1074,-5.0854,-5.0718,-5.0716,-5.0681,-5.0677,-5.1111,-5.1344,-5.1406,-5.1406,-5.1719,-5.2266,-5.3144,-5.4004,-5.4883,-5.5762,-5.6308,-5.6601,-4.0829,-4.0763,-4.0487,-3.968,-3.9774,-3.9755,-3.9192,-3.9289,-3.945,-3.945,-3.9371,-3.95,-3.9901,-3.9943,-4.0023,-4.023,-4.0053,-3.9943,-3.9943,-4.0549,-4.1216,-4.1919,-4.2722,-4.3509,-4.4261,-4.4378,-4.4535,-4.4781,-4.4908,-4.5055,-4.5312,-4.5312,-4.5171,-4.4943,-4.4943,-4.4757,-4.4387,-4.4117,-4.394,-4.3818,-4.3597,-4.3515,-4.3515,-4.3515,-4.3546,-4.3646,-4.3646,-4.3884,-4.4175,-4.4175,-4.4247,-4.4313,-4.4313,-4.4676,-4.5118,-4.5222,-4.5419,-4.5594,-4.5594,-4.5594,-4.5594,-4.5594,-4.5594,-4.5594,-4.5594,-4.5594,-4.5594,-4.5594,-4.568,-4.6112,-4.7303,-4.8133,-4.9523,-5.2219,-5.414,-5.5508,-5.6133,-5.6973,-5.6875,-5.5117,-5.4375,-5.3555,-5.2422,-5.2773,-5.3086,-5.3086,-5.3652,-5.4648,-5.6133,-5.5058,-5.4668,-5.5273,-5.6152,-5.5469,-5.3105,-5.3691,-5.3242,-5.1777,-5.1523,-5.1344,-5.1265,-5.1265,-5.1265,-5.1267,-5.1365,-5.1406,-5.1406,-5.1406,-5.1914,-5.2793,-5.3652,-5.4531,-5.541,-5.6289,-5.6601,-5.6601,-4.0065,-3.99,-3.9662,-3.8854,-3.8942,-3.9112,-3.9112,-3.9093,-3.9112,-3.9112,-3.8869,-3.8946,-3.9541,-3.9611,-3.9611,-3.9611,-3.9611,-3.9611,-3.9611,-4.0415,-4.1117,-4.1595,-4.2373,-4.303,-4.3495,-4.3852,-4.4016,-4.3998,-4.4419,-4.4624,-4.4606,-4.4606,-4.4606,-4.4612,-4.4612,-4.4373,-4.4016,-4.3998,-4.382,-4.3515,-4.3496,-4.3515,-4.3515,-4.3515,-4.371,-4.3982,-4.3982,-4.4247,-4.4593,-4.4593,-4.4806,-4.5085,-4.5085,-4.5085,-4.5169,-4.5495,-4.5594,-4.5594,-4.5594,-4.5594,-4.5594,-4.5594,-4.5594,-4.5594,-4.5594,-4.5594,-4.5594,-4.5594,-4.5594,-4.6152,-4.7944,-4.8391,-4.9383,-5.2074,-5.4074,-5.5293,-5.5312,-5.6074,-5.5976,-5.4219,-5.4004,-5.332,-5.1582,-5.2969,-5.3984,-5.3984,-5.3984,-5.4394,-5.5273,-5.5293,-5.5293,-5.5293,-5.6152,-5.5762,-5.4004,-5.3984,-5.3555,-5.2676,-5.1816,-5.1406,-5.1406,-5.1406,-5.1406,-5.1406,-5.1406,-5.1406,-5.1406,-5.1406,-5.1914,-5.2793,-5.3652,-5.4531,-5.541,-5.6289,-5.6601,-5.6601,-3.9937,-3.946,-3.9001,-3.8744,-3.8777,-3.9014,-3.9567,-3.918,-3.9032,-3.9567,-3.9096,-3.8762,-3.8956,-3.9144,-3.9339,-3.9587,-3.9389,-3.9251,-3.9251,-3.9356,-3.996,-4.1193,-4.1488,-4.2214,-4.3478,-4.3595,-4.3772,-4.4001,-4.4117,-4.4318,-4.4593,-4.4593,-4.446,-4.419,-4.419,-4.3986,-4.3662,-4.3662,-4.3597,-4.3515,-4.3515,-4.3629,-4.3833,-4.3833,-4.4076,-4.4419,-4.4419,-4.4644,-4.4943,-4.4943,-4.515,-4.5438,-4.5438,-4.5438,-4.5457,-4.5568,-4.5594,-4.5594,-4.5594,-4.5594,-4.5594,-4.5594,-4.5594,-4.5594,-4.5594,-4.5594,-4.5594,-4.5594,-4.5594,-4.5971,-4.7187,-4.8017,-4.9185,-5.1272,-5.2686,-5.373,-5.4336,-5.4563,-5.4257,-5.3104,-5.2894,-5.2434,-5.1361,-5.2303,-5.2762,-5.2265,-5.2773,-5.4004,-5.6074,-5.5625,-5.5293,-5.5293,-5.6152,-5.5762,-5.4023,-5.459,-5.4141,-5.2695,-5.2422,-5.1973,-5.1426,-5.2012,-5.1953,-5.1406,-5.1406,-5.1406,-5.1387,-5.1297,-5.2124,-5.3489,-5.3767,-5.4761,-5.6091,-5.6463,-5.6601,-5.6601,-4.0359,-3.9955,-3.9591,-3.9591,-3.9591,-3.9772,-4.0267,-3.9918,-3.979,-4.0286,-3.9643,-3.9148,-3.9148,-3.9025,-3.9027,-3.9242,-3.9068,-3.8947,-3.8947,-3.9083,-3.9735,-4.104,-4.1389,-4.2158,-4.3478,-4.3515,-4.3614,-4.382,-4.382,-4.3943,-4.4198,-4.4198,-4.405,-4.382,-4.382,-4.3712,-4.3515,-4.3515,-4.3515,-4.3496,-4.3629,-4.382,-4.4031,-4.4161,-4.4455,-4.48,-4.48,-4.5,-4.5292,-4.5292,-4.5429,-4.5594,-4.5594,-4.5594,-4.5594,-4.5594,-4.5594,-4.5594,-4.5594,-4.5594,-4.5594,-4.5594,-4.5594,-4.5594,-4.5594,-4.5594,-4.5594,-4.5594,-4.5594,-4.5965,-4.7187,-4.8016,-4.9188,-5.1268,-5.2228,-5.2773,-5.2988,-5.2935,-5.2535,-5.1652,-5.1737,-5.1678,-5.1235,-5.2277,-5.2671,-5.1933,-5.3008,-5.4394,-5.6015,-5.5293,-5.5117,-5.5762,-5.6328,-5.5918,-5.4492,-5.5039,-5.459,-5.3183,-5.3183,-5.2734,-5.1914,-5.2441,-5.2226,-5.1406,-5.1406,-5.1366,-5.134,-5.1585,-5.2489,-5.3767,-5.4137,-5.5143,-5.6419,-5.6559,-5.6601,-5.6601,-4.1168,-4.1132,-4.1095,-4.1095,-4.1095,-4.1113,-4.1168,-4.1132,-4.1113,-4.1168,-4.0487,-3.9955,-3.9916,-3.9239,-3.8762,-3.8707,-3.8707,-3.8726,-3.8781,-3.9478,-4.0286,-4.115,-4.1901,-4.2671,-4.3478,-4.3515,-4.3515,-4.3515,-4.3515,-4.3515,-4.3515,-4.3515,-4.3515,-4.3515,-4.3515,-4.3515,-4.3515,-4.3515,-4.3513,-4.3546,-4.3881,-4.4028,-4.4117,-4.4501,-4.4849,-4.5129,-4.5129,-4.5332,-4.5594,-4.5594,-4.5594,-4.5594,-4.5594,-4.5594,-4.5594,-4.5594,-4.5594,-4.5594,-4.5594,-4.5594,-4.5594,-4.5594,-4.5594,-4.5594,-4.5594,-4.5594,-4.5594,-4.5594,-4.5652,-4.6182,-4.7798,-4.8373,-4.94,-5.1823,-5.2444,-5.2305,-5.1445,-5.1294,-5.0967,-5.0081,-5.063,-5.1135,-5.1266,-5.2799,-5.3508,-5.2832,-5.4355,-5.5293,-5.5293,-5.4473,-5.4805,-5.6543,-5.6601,-5.6172,-5.5312,-5.5351,-5.4941,-5.4082,-5.4082,-5.3594,-5.2695,-5.2832,-5.2363,-5.1484,-5.1543,-5.1497,-5.1435,-5.2244,-5.3011,-5.377,-5.4713,-5.5622,-5.6419,-5.6559,-5.6601,-5.6601,-4.2029,-4.1517,-4.1095,-4.1095,-4.1095,-4.1297,-4.1919,-4.148,-4.1315,-4.1937,-4.1332,-4.0579,-3.9955,-3.9717,-3.9368,-3.8762,-3.8707,-3.8964,-3.957,-3.979,-4.0524,-4.1956,-4.2194,-4.2671,-4.3478,-4.3515,-4.3515,-4.3515,-4.3515,-4.3515,-4.3515,-4.3515,-4.3515,-4.3515,-4.3515,-4.3515,-4.3515,-4.3515,-4.3646,-4.3896,-4.3971,-4.4327,-4.4853,-4.4943,-4.5201,-4.5485,-4.5485,-4.5522,-4.5594,-4.5594,-4.5594,-4.5594,-4.5594,-4.5594,-4.5594,-4.5594,-4.5594,-4.5594,-4.5594,-4.5594,-4.5594,-4.5594,-4.5594,-4.5594,-4.5594,-4.5594,-4.5594,-4.5594,-4.6124,-4.6894,-4.7913,-4.8858,-4.9921,-5.1172,-5.1564,-5.1426,-5.0605,-5.0867,-5.0824,-4.9943,-5.0415,-5.1114,-5.1959,-5.3018,-5.3654,-5.3691,-5.4687,-5.5293,-5.5293,-5.4473,-5.4805,-5.6543,-5.6601,-5.6172,-5.5312,-5.5957,-5.5859,-5.498,-5.498,-5.4199,-5.2754,-5.4082,-5.3848,-5.2422,-5.3105,-5.3312,-5.3184,-5.3311,-5.3818,-5.4615,-5.4845,-5.5533,-5.6419,-5.6559,-5.6601,-5.6601,-4.2837,-4.2506,-4.2194,-4.2194,-4.2194,-4.2341,-4.2782,-4.2488,-4.2359,-4.2782,-4.2158,-4.1479,-4.1038,-4.0341,-3.9863,-3.9808,-3.946,-3.9423,-3.9863,-4.0579,-4.1387,-4.2268,-4.2653,-4.3039,-4.3496,-4.3515,-4.3515,-4.3515,-4.3515,-4.358,-4.3726,-4.3726,-4.3726,-4.3726,-4.3726,-4.3646,-4.3496,-4.3662,-4.3833,-4.4028,-4.4373,-4.4738,-4.5107,-4.5263,-4.5438,-4.5594,-4.5594,-4.5594,-4.5594,-4.5594,-4.5594,-4.5594,-4.5594,-4.5594,-4.5594,-4.5594,-4.5594,-4.5594,-4.5594,-4.5594,-4.5594,-4.5594,-4.5594,-4.5594,-4.5594,-4.5594,-4.5594,-4.5594,-4.6297,-4.7154,-4.7952,-4.9032,-5.0091,-5.0958,-5.0959,-5.0546,-4.9642,-4.9741,-4.9707,-4.9184,-5.0104,-5.1196,-5.2207,-5.3494,-5.4201,-5.4003,-5.5176,-5.5723,-5.5312,-5.5171,-5.5341,-5.5908,-5.5585,-5.5155,-5.4619,-5.5546,-5.5976,-5.5898,-5.5898,-5.5195,-5.3926,-5.4863,-5.457,-5.332,-5.3789,-5.3918,-5.3833,-5.4156,-5.4533,-5.4951,-5.5403,-5.5925,-5.6419,-5.6559,-5.6601,-5.6601,-4.3515,-4.3515,-4.3515,-4.3515,-4.3515,-4.3515,-4.3515,-4.3515,-4.3515,-4.3515,-4.291,-4.2433,-4.2304,-4.0965,-4.0359,-4.104,-4.0487,-4.012,-4.0249,-4.1534,-4.2359,-4.2488,-4.313,-4.3515,-4.3515,-4.3515,-4.3515,-4.3515,-4.3548,-4.3726,-4.4001,-4.4058,-4.4061,-4.3998,-4.4058,-4.3896,-4.3597,-4.394,-4.4117,-4.4233,-4.4853,-4.5118,-4.5211,-4.5495,-4.5594,-4.5594,-4.5594,-4.5594,-4.5594,-4.5594,-4.5594,-4.5594,-4.5594,-4.5594,-4.5594,-4.5594,-4.5594,-4.5594,-4.5594,-4.5594,-4.5594,-4.5594,-4.5594,-4.5594,-4.5594,-4.5594,-4.5633,-4.5768,-4.6471,-4.7336,-4.8144,-4.9219,-5.0208,-5.0802,-5.0605,-4.9997,-4.8853,-4.8814,-4.8792,-4.8554,-5.0039,-5.1457,-5.2422,-5.4099,-5.4898,-5.4433,-5.5762,-5.6269,-5.5506,-5.5931,-5.5798,-5.4866,-5.4536,-5.4329,-5.4227,-5.4938,-5.5742,-5.6601,-5.6601,-5.6133,-5.5293,-5.5449,-5.5019,-5.4199,-5.4336,-5.4329,-5.425,-5.4987,-5.5236,-5.521,-5.6072,-5.6416,-5.643,-5.656,-5.6601,-5.6621,-4.3515,-4.3515,-4.3515,-4.3515,-4.3515,-4.3515,-4.3515,-4.3515,-4.3515,-4.3515,-4.3404,-4.3039,-4.2378,-4.1479,-4.0948,-4.1095,-4.0985,-4.1203,-4.1882,-4.2158,-4.2598,-4.3277,-4.3441,-4.3515,-4.3515,-4.3515,-4.3515,-4.3515,-4.3788,-4.3955,-4.4016,-4.4364,-4.4337,-4.3998,-4.4364,-4.4294,-4.394,-4.435,-4.467,-4.4943,-4.5044,-4.5263,-4.5522,-4.5577,-4.5594,-4.5594,-4.5594,-4.5594,-4.5594,-4.5594,-4.5594,-4.5594,-4.5594,-4.5594,-4.5594,-4.5594,-4.5594,-4.5594,-4.5594,-4.5594,-4.5594,-4.5594,-4.5594,-4.5594,-4.5594,-4.5594,-4.5806,-4.6547,-4.7355,-4.8182,-4.9048,-5.0123,-5.07,-5.0092,-5.0683,-5.0622,-4.8944,-4.9859,-5.0422,-4.9653,-5.0966,-5.2362,-5.3462,-5.4501,-5.5407,-5.6133,-5.6445,-5.6481,-5.6233,-5.5633,-5.48,-5.3695,-5.5198,-5.6073,-5.6151,-5.5586,-5.5742,-5.6601,-5.6601,-5.6133,-5.5312,-5.6055,-5.5918,-5.5137,-5.5879,-5.6125,-5.6001,-5.6135,-5.6188,-5.6179,-5.6347,-5.646,-5.6561,-5.6582,-5.6601,-5.6719,-4.3515,-4.3515,-4.3515,-4.3515,-4.3515,-4.3515,-4.3515,-4.3515,-4.3515,-4.3515,-4.3515,-4.3368,-4.2983,-4.2231,-4.1919,-4.2359,-4.2011,-4.2084,-4.2892,-4.2947,-4.3112,-4.3478,-4.366,-4.3756,-4.3756,-4.3597,-4.3597,-4.3756,-4.3924,-4.4204,-4.46,-4.4606,-4.4606,-4.46,-4.4606,-4.4501,-4.4364,-4.472,-4.4954,-4.5126,-4.5302,-4.5457,-4.5594,-4.5594,-4.5893,-4.624,-4.5768,-4.5893,-4.622,-4.5768,-4.5594,-4.5594,-4.5594,-4.5913,-4.6297,-4.6297,-4.597,-4.5594,-4.5594,-4.5594,-4.5594,-4.5594,-4.5594,-4.5729,-4.6182,-4.6297,-4.6547,-4.7375,-4.8221,-4.8913,-4.9336,-5.0268,-5.0855,-5.0461,-5.0477,-5.0228,-4.9304,-5.0286,-5.0927,-5.0446,-5.2357,-5.3915,-5.4443,-5.535,-5.6063,-5.6468,-5.6488,-5.6428,-5.6305,-5.5804,-5.5093,-5.4126,-5.4615,-5.5221,-5.5898,-5.5976,-5.6191,-5.6601,-5.6601,-5.6387,-5.6015,-5.6426,-5.6387,-5.6015,-5.6426,-5.6561,-5.6511,-5.6511,-5.6511,-5.6511,-5.6511,-5.6558,-5.6601,-5.6601,-5.6601,-5.6719,-4.3515,-4.3515,-4.3515,-4.3515,-4.3515,-4.3515,-4.3515,-4.3515,-4.3515,-4.3515,-4.3515,-4.3515,-4.3515,-4.2782,-4.2616,-4.3441,-4.2763,-4.2635,-4.346,-4.3515,-4.3515,-4.3515,-4.3836,-4.4001,-4.4001,-4.3836,-4.3836,-4.4001,-4.4087,-4.4468,-4.5096,-4.4837,-4.4861,-4.5085,-4.4919,-4.4781,-4.4751,-4.5074,-4.5211,-4.5251,-4.5725,-4.5893,-4.5893,-4.5893,-4.6432,-4.7048,-4.597,-4.6163,-4.6778,-4.5893,-4.5729,-4.5893,-4.5893,-4.649,-4.7173,-4.7173,-4.6567,-4.5864,-4.5671,-4.5594,-4.5594,-4.5594,-4.5748,-4.6009,-4.649,-4.6913,-4.7346,-4.7971,-4.8798,-4.9452,-4.9663,-5.0361,-5.0831,-5.063,-5.033,-4.9998,-4.9692,-5.0481,-5.1146,-5.1255,-5.3358,-5.4884,-5.5129,-5.6031,-5.6539,-5.6414,-5.6408,-5.6324,-5.6152,-5.5988,-5.5637,-5.5077,-5.4294,-5.4443,-5.5586,-5.6269,-5.6582,-5.656,-5.656,-5.656,-5.656,-5.656,-5.6561,-5.6601,-5.6601,-5.6601,-5.6601,-5.6601,-5.6601,-5.6601,-5.6601,-5.6601,-5.6601,-5.6601,-5.6738,-5.7031,-4.3515,-4.3515,-4.3515,-4.3515,-4.3515,-4.3515,-4.3515,-4.3515,-4.3515,-4.3515,-4.3515,-4.3515,-4.3515,-4.2782,-4.2616,-4.3441,-4.2763,-4.2635,-4.346,-4.3515,-4.3515,-4.3515,-4.3836,-4.4001,-4.4001,-4.4332,-4.435,-4.4001,-4.4359,-4.4732,-4.5096,-4.5074,-4.5074,-4.5107,-4.54,-4.5352,-4.5085,-4.5419,-4.5568,-4.5645,-4.6462,-4.6797,-4.6797,-4.6797,-4.7317,-4.7798,-4.6182,-4.6163,-4.6778,-4.5893,-4.6144,-4.6797,-4.6797,-4.7355,-4.8009,-4.8009,-4.7451,-4.6624,-4.5825,-4.5594,-4.5594,-4.5594,-4.6201,-4.6605,-4.5883,-4.6894,-4.8029,-4.8086,-4.8798,-4.9644,-5.0462,-5.0767,-5.063,-4.9821,-5.0427,-5.0714,-4.9902,-5.0534,-5.1427,-5.2275,-5.3289,-5.4252,-5.5194,-5.6074,-5.6539,-5.6414,-5.6408,-5.6253,-5.5944,-5.5904,-5.5969,-5.6097,-5.5258,-5.5356,-5.6484,-5.6562,-5.6537,-5.6416,-5.6416,-5.6416,-5.6416,-5.6416,-5.6484,-5.6601,-5.6601,-5.6601,-5.6601,-5.6601,-5.6601,-5.6601,-5.6601,-5.6601,-5.6601,-5.6601,-5.7109,-5.793,-4.3515,-4.3515,-4.3515,-4.3515,-4.3515,-4.3515,-4.3515,-4.3515,-4.3515,-4.3515,-4.3515,-4.3515,-4.3515,-4.3222,-4.3167,-4.3478,-4.3222,-4.3167,-4.3478,-4.3693,-4.3912,-4.4184,-4.4076,-4.42,-4.4676,-4.4631,-4.4527,-4.4359,-4.4732,-4.4985,-4.5096,-4.5096,-4.5211,-4.541,-4.5322,-4.5639,-4.6215,-4.6357,-4.6682,-4.7182,-4.7509,-4.7644,-4.7644,-4.7644,-4.8163,-4.8759,-4.7567,-4.7702,-4.8317,-4.7432,-4.7375,-4.7644,-4.7644,-4.8221,-4.8798,-4.8259,-4.7875,-4.7355,-4.5979,-4.5594,-4.5729,-4.6278,-4.624,-4.6294,-4.7082,-4.7703,-4.8277,-4.8897,-4.9669,-5.0308,-5.0635,-5.0749,-5.0668,-5.0331,-5.0601,-5.0762,-5.0526,-5.1275,-5.2215,-5.3189,-5.4141,-5.5094,-5.6015,-5.6406,-5.6512,-5.6297,-5.6284,-5.6127,-5.5789,-5.5849,-5.5736,-5.5402,-5.5684,-5.6087,-5.6582,-5.6601,-5.6536,-5.6408,-5.6408,-5.6408,-5.6408,-5.6408,-5.6462,-5.6601,-5.6601,-5.6601,-5.6601,-5.6601,-5.6601,-5.6601,-5.6601,-5.6601,-5.6601,-5.6601,-5.7148,-5.8027,-4.3515,-4.3515,-4.3515,-4.3515,-4.3515,-4.3515,-4.3515,-4.3515,-4.3515,-4.3515,-4.3515,-4.3515,-4.3515,-4.3515,-4.3515,-4.3515,-4.3515,-4.3515,-4.3515,-4.382,-4.4233,-4.4732,-4.4495,-4.4535,-4.4931,-4.4825,-4.4776,-4.4795,-4.5136,-4.5502,-4.5848,-4.5878,-4.6058,-4.6374,-4.6137,-4.6502,-4.7278,-4.7278,-4.7605,-4.8125,-4.8394,-4.8509,-4.8509,-4.8509,-4.9048,-4.9663,-4.8509,-4.8663,-4.926,-4.8394,-4.8279,-4.8509,-4.8509,-4.9106,-4.9644,-4.8759,-4.8317,-4.7798,-4.6394,-4.5806,-4.5748,-4.6336,-4.6474,-4.6642,-4.7349,-4.8314,-4.9077,-4.9168,-5.0066,-5.0814,-5.0764,-5.0766,-5.0766,-5.0766,-5.0766,-5.0902,-5.1282,-5.1701,-5.2421,-5.3703,-5.4235,-5.4824,-5.5703,-5.5781,-5.5667,-5.5395,-5.5647,-5.5655,-5.5331,-5.5498,-5.5255,-5.4508,-5.5516,-5.6101,-5.6191,-5.6465,-5.6512,-5.6331,-5.6331,-5.6331,-5.6331,-5.6331,-5.6428,-5.6601,-5.6601,-5.6601,-5.6601,-5.6601,-5.6601,-5.6601,-5.6601,-5.6601,-5.6601,-5.6601,-5.7148,-5.7988,-4.3515,-4.3515,-4.3515,-4.3515,-4.3515,-4.3515,-4.3515,-4.3515,-4.3515,-4.3515,-4.3515,-4.3515,-4.3515,-4.3515,-4.3515,-4.3515,-4.3515,-4.3496,-4.3515,-4.382,-4.4327,-4.5074,-4.5096,-4.4943,-4.4624,-4.495,-4.5142,-4.5211,-4.5623,-4.6405,-4.7502,-4.7568,-4.7771,-4.8105,-4.8105,-4.8105,-4.8105,-4.8105,-4.8105,-4.8202,-4.9067,-4.9413,-4.9413,-4.9413,-4.9952,-5.0481,-4.874,-4.8682,-4.9279,-4.8413,-4.8702,-4.9413,-4.9413,-4.999,-5.0539,-4.9663,-4.8798,-4.7932,-4.7115,-4.6278,-4.5614,-4.5614,-4.6963,-4.7856,-4.6209,-4.8569,-5.0567,-4.8709,-4.9806,-5.1067,-5.0925,-5.0889,-5.0889,-5.0889,-5.0889,-5.123,-5.2154,-5.1661,-5.1907,-5.3789,-5.3223,-5.3047,-5.3926,-5.4004,-5.3891,-5.3624,-5.4396,-5.4775,-5.4503,-5.476,-5.4493,-5.3623,-5.4701,-5.5312,-5.5293,-5.6152,-5.646,-5.6191,-5.6191,-5.6191,-5.6191,-5.6191,-5.6358,-5.6601,-5.6601,-5.6601,-5.6601,-5.6601,-5.6601,-5.6601,-5.6601,-5.6601,-5.6601,-5.6601,-5.7148,-5.789,-4.3515,-4.3515,-4.3515,-4.3515,-4.3515,-4.3515,-4.3515,-4.3515,-4.3515,-4.3515,-4.3515,-4.3515,-4.3515,-4.3515,-4.3515,-4.3515,-4.3515,-4.3728,-4.4237,-4.4364,-4.4612,-4.5085,-4.4872,-4.5078,-4.5786,-4.5891,-4.6099,-4.6468,-4.7105,-4.7469,-4.7568,-4.7832,-4.8001,-4.8105,-4.8105,-4.8432,-4.9009,-4.9009,-4.9375,-4.9952,-5.0212,-5.0308,-5.0308,-5.0308,-5.0481,-5.0635,-5.0106,-5.0087,-5.0269,-5.001,-5.0087,-5.0308,-5.0308,-5.05,-5.0539,-4.9663,-4.9221,-4.8702,-4.7278,-4.7124,-4.7381,-4.7469,-4.7472,-4.7681,-4.8545,-4.948,-5.0062,-4.9598,-5.0348,-5.1098,-5.1056,-5.105,-5.105,-5.105,-5.105,-5.1157,-5.1489,-5.1347,-5.1907,-5.3789,-5.3223,-5.3281,-5.4765,-5.4355,-5.3891,-5.3624,-5.3676,-5.3676,-5.3598,-5.4418,-5.4499,-5.3623,-5.5308,-5.5918,-5.5312,-5.6152,-5.646,-5.6191,-5.6191,-5.6191,-5.6191,-5.6191,-5.6358,-5.6601,-5.6601,-5.6601,-5.6601,-5.6601,-5.6601,-5.6601,-5.6601,-5.6601,-5.6601,-5.6601,-5.7148,-5.789,-4.3515,-4.3515,-4.3515,-4.3515,-4.3515,-4.3515,-4.3515,-4.3515,-4.3515,-4.3515,-4.3515,-4.3515,-4.3515,-4.3515,-4.3515,-4.3515,-4.3515,-4.3807,-4.454,-4.446,-4.4725,-4.554,-4.5262,-4.5401,-4.6099,-4.6415,-4.6879,-4.7518,-4.8117,-4.849,-4.859,-4.895,-4.9125,-4.9125,-4.9125,-4.9413,-4.9913,-4.9913,-5.0231,-5.0712,-5.0712,-5.0712,-5.0712,-5.0712,-5.0712,-5.0712,-5.0712,-5.0712,-5.0712,-5.0712,-5.0712,-5.0712,-5.0712,-5.0712,-5.0539,-4.9663,-4.9394,-4.9106,-4.774,-4.774,-4.8225,-4.8755,-4.8532,-4.8404,-4.9288,-4.9984,-5.0349,-5.0067,-5.0642,-5.1206,-5.1152,-5.1145,-5.1145,-5.1145,-5.1145,-5.1381,-5.2135,-5.1984,-5.2471,-5.4297,-5.3437,-5.3105,-5.418,-5.3435,-5.2923,-5.2994,-5.2812,-5.2837,-5.3183,-5.3569,-5.3714,-5.3533,-5.4806,-5.5403,-5.5226,-5.6132,-5.6488,-5.6288,-5.6288,-5.6288,-5.6288,-5.6288,-5.6408,-5.6601,-5.6601,-5.6601,-5.6601,-5.6601,-5.6601,-5.6601,-5.6601,-5.6601,-5.6601,-5.6601,-5.6933,-5.7383,-4.3515,-4.3515,-4.3515,-4.3515,-4.3515,-4.3515,-4.3515,-4.3515,-4.3496,-4.3548,-4.3513,-4.3496,-4.3548,-4.3548,-4.3531,-4.3496,-4.3515,-4.3791,-4.4501,-4.4308,-4.4791,-4.6187,-4.6133,-4.608,-4.608,-4.6785,-4.7591,-4.8455,-4.8864,-4.9446,-5.0159,-5.0534,-5.0712,-5.0712,-5.0712,-5.0712,-5.0712,-5.0712,-5.0712,-5.0712,-5.0712,-5.0712,-5.0712,-5.0712,-5.0712,-5.0712,-5.0712,-5.0712,-5.0712,-5.0712,-5.0712,-5.0712,-5.0712,-5.0712,-5.0539,-4.974,-4.951,-4.9336,-4.8452,-4.8278,-4.8574,-4.9565,-4.9852,-4.975,-4.9094,-5.0227,-5.1151,-5.0303,-5.0811,-5.1366,-5.124,-5.121,-5.121,-5.121,-5.121,-5.1798,-5.3479,-5.3118,-5.3359,-5.5098,-5.3828,-5.2851,-5.293,-5.201,-5.1608,-5.2073,-5.2048,-5.2327,-5.3049,-5.2608,-5.2702,-5.3495,-5.3831,-5.4393,-5.5187,-5.61,-5.6512,-5.6408,-5.6383,-5.638,-5.638,-5.638,-5.6456,-5.6582,-5.6582,-5.6601,-5.6601,-5.6601,-5.6601,-5.6601,-5.6601,-5.6601,-5.6601,-5.6601,-5.6601,-5.6601,-4.3515,-4.3515,-4.3515,-4.3515,-4.3515,-4.3515,-4.3515,-4.3515,-4.3597,-4.3849,-4.3662,-4.3597,-4.3865,-4.3896,-4.3788,-4.3513,-4.3515,-4.3679,-4.4087,-4.4928,-4.5572,-4.5886,-4.7353,-4.8167,-4.8229,-4.84,-4.8883,-4.9708,-5.0101,-5.0392,-5.0565,-5.0663,-5.0712,-5.0712,-5.0712,-5.0712,-5.0712,-5.0712,-5.0712,-5.0712,-5.0712,-5.0712,-5.0712,-5.0712,-5.0712,-5.0712,-5.0712,-5.0712,-5.0712,-5.0712,-5.0712,-5.0712,-5.0712,-5.0712,-5.0654,-5.0481,-5.0423,-5.0231,-4.9356,-4.9693,-5.0211,-4.9877,-5.0353,-5.0889,-5.0834,-5.1113,-5.1347,-5.1131,-5.1269,-5.1386,-5.1366,-5.1365,-5.1365,-5.1365,-5.1365,-5.1736,-5.2791,-5.2793,-5.3359,-5.5098,-5.4355,-5.3984,-5.4668,-5.373,-5.2819,-5.2143,-5.2607,-5.2692,-5.2212,-5.3409,-5.4227,-5.4402,-5.5233,-5.577,-5.596,-5.6186,-5.6324,-5.6408,-5.6301,-5.6237,-5.6237,-5.6237,-5.6317,-5.6452,-5.656,-5.6601,-5.6601,-5.6601,-5.6601,-5.6601,-5.6601,-5.6601,-5.6601,-5.6601,-5.6601,-5.6601,-4.3515,-4.3515,-4.3515,-4.3515,-4.3515,-4.3515,-4.3515,-4.3629,-4.3804,-4.3986,-4.4001,-4.402,-4.4001,-4.4001,-4.3865,-4.3531,-4.3515,-4.371,-4.4247,-4.5087,-4.5875,-4.6588,-4.8045,-4.9036,-4.9456,-4.9663,-4.9959,-5.0399,-5.0604,-5.0712,-5.0712,-5.0712,-5.0712,-5.0712,-5.0712,-5.0712,-5.0712,-5.0712,-5.0712,-5.0712,-5.0712,-5.0712,-5.0712,-5.0712,-5.0712,-5.0702,-5.0764,-5.0799,-5.0791,-5.0712,-5.0712,-5.0712,-5.0712,-5.0712,-5.0712,-5.0712,-5.0758,-5.0703,-5.024,-5.0552,-5.102,-5.1063,-5.1453,-5.1746,-5.1464,-5.1406,-5.1406,-5.1406,-5.1406,-5.1406,-5.1406,-5.1406,-5.1406,-5.1406,-5.1406,-5.1699,-5.2578,-5.3066,-5.3808,-5.5137,-5.4902,-5.4586,-5.4491,-5.3882,-5.3259,-5.2659,-5.2984,-5.3183,-5.3145,-5.3687,-5.4359,-5.515,-5.5385,-5.5676,-5.6058,-5.6158,-5.6247,-5.6309,-5.6305,-5.6301,-5.6301,-5.6368,-5.6426,-5.651,-5.6561,-5.6561,-5.6473,-5.6112,-5.6189,-5.6473,-5.6112,-5.623,-5.6601,-5.6601,-5.6601,-5.6601,-4.3515,-4.3515,-4.3515,-4.3515,-4.3515,-4.3515,-4.3515,-4.3788,-4.4013,-4.4087,-4.4387,-4.4474,-4.4132,-4.3986,-4.3836,-4.3595,-4.3531,-4.3775,-4.446,-4.5194,-4.6172,-4.7453,-4.8606,-4.9519,-5.0195,-5.0534,-5.0712,-5.0712,-5.0712,-5.0712,-5.0712,-5.0712,-5.0712,-5.0712,-5.0712,-5.0712,-5.0712,-5.0712,-5.0712,-5.0712,-5.0712,-5.0712,-5.0693,-5.074,-5.073,-5.0748,-5.0886,-5.0918,-5.0879,-5.0758,-5.0712,-5.0712,-5.0712,-5.0712,-5.0702,-5.0721,-5.0814,-5.0896,-5.0932,-5.1136,-5.1542,-5.2303,-5.2637,-5.2596,-5.1972,-5.1836,-5.1836,-5.1836,-5.1738,-5.168,-5.1816,-5.1719,-5.168,-5.1816,-5.1836,-5.2148,-5.3027,-5.3769,-5.4551,-5.543,-5.5507,-5.5114,-5.4135,-5.3902,-5.3716,-5.3435,-5.3549,-5.3876,-5.4472,-5.3974,-5.4293,-5.5699,-5.5193,-5.5234,-5.5896,-5.6031,-5.6128,-5.6158,-5.6305,-5.6342,-5.6312,-5.6462,-5.6536,-5.6537,-5.656,-5.649,-5.6355,-5.5734,-5.5846,-5.6338,-5.5758,-5.5957,-5.6601,-5.6601,-5.6601,-5.6601,-4.3515,-4.3515,-4.3515,-4.3515,-4.3515,-4.3515,-4.3515,-4.3788,-4.4117,-4.4474,-4.4567,-4.458,-4.4527,-4.3962,-4.3679,-4.3909,-4.3679,-4.3662,-4.4061,-4.5834,-4.708,-4.7568,-4.9426,-5.0509,-5.0614,-5.0673,-5.0712,-5.0712,-5.0712,-5.0712,-5.0712,-5.0712,-5.0712,-5.0712,-5.0712,-5.0712,-5.0712,-5.0712,-5.0712,-5.0712,-5.0712,-5.0712,-5.0712,-5.0839,-5.0871,-5.0894,-5.1014,-5.0997,-5.0879,-5.0758,-5.0712,-5.0712,-5.0712,-5.0712,-5.0712,-5.0835,-5.0886,-5.0925,-5.1031,-5.1686,-5.2345,-5.2472,-5.315,-5.3769,-5.3672,-5.3652,-5.3652,-5.3652,-5.3047,-5.2754,-5.3516,-5.3027,-5.2773,-5.3535,-5.3652,-5.3945,-5.4824,-5.5058,-5.5449,-5.6328,-5.6313,-5.6156,-5.5876,-5.5668,-5.5232,-5.4397,-5.4972,-5.5107,-5.453,-5.517,-5.5642,-5.5874,-5.5791,-5.5788,-5.5896,-5.5817,-5.5826,-5.5944,-5.6133,-5.6133,-5.5969,-5.6167,-5.6246,-5.6251,-5.6377,-5.6419,-5.6391,-5.6282,-5.6302,-5.6397,-5.6422,-5.6504,-5.6601,-5.6601,-5.6601,-5.6601,-4.3515,-4.3515,-4.3515,-4.3515,-4.3515,-4.3546,-4.3758,-4.4091,-4.4455,-4.4837,-4.5033,-4.5011,-4.4631,-4.4106,-4.3833,-4.3986,-4.4061,-4.4266,-4.46,-4.6341,-4.7521,-4.7853,-4.9692,-5.0712,-5.0712,-5.0712,-5.0712,-5.0712,-5.0712,-5.0712,-5.0712,-5.0712,-5.0712,-5.0712,-5.0712,-5.0712,-5.0712,-5.0712,-5.0712,-5.0712,-5.0712,-5.073,-5.0822,-5.0879,-5.0952,-5.1016,-5.0997,-5.0997,-5.0979,-5.0784,-5.0712,-5.0712,-5.0712,-5.0366,-5.0105,-5.0712,-5.0953,-5.1145,-5.171,-5.2594,-5.3448,-5.3936,-5.4392,-5.4844,-5.5332,-5.5449,-5.5176,-5.4199,-5.3691,-5.3535,-5.3926,-5.3691,-5.3555,-5.3945,-5.4004,-5.4121,-5.4512,-5.498,-5.5604,-5.6391,-5.6374,-5.6227,-5.6051,-5.5885,-5.5625,-5.5194,-5.5491,-5.553,-5.5184,-5.5566,-5.5789,-5.5789,-5.5789,-5.5789,-5.5789,-5.5798,-5.5842,-5.5904,-5.6097,-5.6158,-5.6071,-5.6242,-5.626,-5.6197,-5.6256,-5.6218,-5.6097,-5.5805,-5.5913,-5.6254,-5.5987,-5.6172,-5.6601,-5.6601,-5.6601,-5.6601]},{"header":{"parameterUnit":"m.s-1","parameterCategory":1,"la1":30.6,"la2":28.766,"lo1":-90.7593,"lo2":-88.6598,"dy":0.0162,"dx":0.0183,"nx":116,"ny":114,"refTime":"2023-03-25T12:00:00:Z","depth":0,"parameterNumber":3,"parameterNumberName":"V-component_of_WINDS"},"data":[0.0,0.0,0.0,0.0,0.0,0.0,0.0,0.0,0.0,0.0,0.0,0.0,0.0,0.0,0.0,0.0,0.0,0.0,0.0,0.0,0.0,0.0,0.0,0.0,0.0,0.0,0.0,0.0,0.0,0.0,0.0,0.0,0.0,0.0,0.0,0.0,0.0,0.0,0.0,0.0,0.0,0.0,0.0,0.0,0.0,0.0,0.0,0.0,0.0,0.0,0.0,0.0,0.0,0.0,0.0,0.0,0.0,0.0,0.0,0.0,0.0,0.0,0.0,0.0,0.0,0.0,0.0,0.0,0.0,0.0,0.0,0.0,0.0,0.0,0.0,0.0,0.0,0.0,0.0,0.0,0.0,0.0,0.0,0.0,0.0,0.0,0.0,0.0,0.0,0.0,0.0,0.0,0.0,0.0,0.0,0.0,0.0,0.0,0.0,0.0,0.0,0.0,0.0,0.0,0.0,0.0,0.0,0.0,0.0,0.0,0.0,0.0,0.0,0.0,0.0,0.0,0.0,0.0,0.0,0.0,0.0,0.0,0.0,0.0,0.0,0.0,0.0,0.0,0.0,0.0,0.0,0.0,0.0,0.0,0.0,0.0,0.0,0.0,0.0,0.0,0.0,0.0,0.0,0.0,0.0,0.0,0.0,0.0,0.0,0.0,0.0,0.0,0.0,0.0,0.0,0.0,0.0,0.0,0.0,0.0,0.0,0.0,0.0,0.0,0.0,0.0,0.0,0.0,0.0,0.0,0.0,0.0,0.0,0.0,0.0,0.0,0.0,0.0,0.0,0.0,0.0,0.0,0.0,0.0,0.0,0.0,0.0,0.0,0.0,0.0,0.0,0.0,0.0,0.0,0.0,0.0,0.0,0.0,0.0,0.0,0.0,0.0,0.0,0.0,0.0,0.0,0.0,0.0,0.0,0.0,0.0,0.0,0.0,0.0,0.0,0.0,0.0,0.0,0.0,0.0,0.0,0.0,0.0,0.0,0.0,0.0,0.0,0.0,0.0,0.0,0.0,0.0,0.0,0.0,0.0,0.0,0.0,0.0,0.0,0.0,0.0,0.0,0.0,0.0,0.0,0.0,0.0,0.0,0.0,0.0,0.0,0.0,0.0,0.0,0.0,0.0,0.0,0.0,0.0,0.0,0.0,0.0,0.0,0.0,0.0,0.0,0.0,0.0,0.0,0.0,0.0,0.0,0.0,0.0,0.0,0.0,0.0,0.0,0.0,0.0,0.0,0.0,0.0,0.0,0.0,0.0,0.0,0.0,0.0,0.0,0.0,0.0,0.0,0.0,0.0,0.0,0.0,0.0,0.0,0.0,0.0,0.0,0.0,0.0,0.0,0.0,0.0,0.0,0.0,0.0,0.0,0.0,0.0,0.0,0.0,0.0,0.0,0.0,0.0,0.0,0.0,0.0,0.0,0.0,0.0,0.0,0.0,0.0,0.0,0.0,0.0,0.0,0.0,0.0,0.0,0.0,0.0,0.0,0.0,0.0,0.0,0.0,0.0,0.0,0.0,0.0,0.0,0.0,0.0,0.0,0.0,0.0,0.0,0.0,0.0,0.0,0.0,0.0,0.0,0.0,0.0,0.0,0.0,0.0,0.0,0.0,0.0,0.0,0.0,0.0,0.0,0.0,0.0,0.0,0.0,0.0,0.0,0.0,0.0,0.0,0.0,0.0,0.0,0.0,0.0,0.0,0.0,0.0,0.0,0.0,0.0,0.0,0.0,0.0,0.0,0.0,0.0,0.0,0.0,0.0,0.0,0.0,0.0,0.0,0.0,0.0,0.0,0.0,0.0,0.0,0.0,0.0,0.0,0.0,0.0,0.0,0.0,0.0,0.0,0.0,0.0,0.0,0.0,0.0,0.0,0.0,0.0,0.0,0.0,0.0,0.0,0.0,0.0,0.0,0.0,0.0,0.0,0.0,0.0,0.0,0.0,0.0,0.0,0.0,0.0,0.0,0.0,0.0,0.0,0.0,0.0,0.0,0.0,0.0,0.0,0.0,0.0,0.0,0.0,0.0,0.0,0.0,0.0,0.0,0.0,0.0,0.0,0.0,0.0,0.0,0.0,0.0,0.0,0.0,0.0,0.0,0.0,0.0,0.0,0.0,0.0,0.0,0.0,0.0,0.0,0.0,0.0,0.0,0.0,0.0,0.0,0.0,0.0,0.0,0.0,0.0,0.0,0.0,0.0,0.0,0.0,0.0,0.0,0.0,0.0,0.0,0.0,0.0,0.0,0.0,0.0,0.0,0.0,0.0,0.0,0.0,0.0,0.0,0.0,0.0,0.0,0.0,0.0,0.0,0.0,0.0,0.0,0.0,0.0,0.0,0.0,0.0,0.0,0.0,0.0,0.0,0.0,0.0,0.0,0.0,0.0,0.0,0.0,0.0,0.0,0.0,0.0,0.0,0.0,0.0,0.0,0.0,0.0,0.0,0.0,0.0,0.0,0.0,0.0,0.0,0.0,0.0,0.0,0.0,0.0,0.0,0.0,0.0,0.0,0.0,0.0,0.0,0.0,0.0,0.0,0.0,0.0,0.0,0.0,0.0,0.0,0.0,0.0,0.0,0.0,0.0,0.0,0.0,0.0,0.0,0.0,0.0,0.0,0.0,0.0,0.0,0.0,0.0,0.0,0.0,0.0,0.0,0.0,0.0,0.0,0.0,0.0,0.0,0.0,0.0,0.0,0.0,0.0,0.0,0.0,0.0,0.0,0.0,0.0,0.0,0.0,0.0,0.0,0.0,0.0,0.0,0.0,0.0,0.0,0.0,0.0,0.0,0.0,0.0,0.0,0.0,0.0,0.0,0.0,0.0,0.0,0.0,0.0,0.0,0.0,0.0,0.0,0.0,0.0,0.0,0.0,0.0,0.0,0.0,0.0,0.0,0.0,0.0,0.0,0.0,0.0,0.0,0.0,0.0,0.0,0.0,0.0,0.0,0.0,0.0,0.0,0.0,0.0,0.0,0.0,0.0,0.0,0.0,0.0,0.0,0.0,0.0,0.0,0.0,0.0,0.0,0.0,0.0,0.0,0.0,0.0,0.0,0.0,0.0,0.0,0.0,0.0,0.0,0.0,0.0,0.0,0.0,0.0,0.0,0.0,0.0,0.0,0.0,0.0,0.0,0.0,0.0,0.0,0.0,0.0,0.0,0.0,0.0,0.0,0.0,0.0,0.0,0.0,0.0,0.0,0.0,0.0,0.0,0.0,0.0,0.0,0.0,0.0,0.0,0.0,0.0,0.0,0.0,0.0,0.0,0.0,0.0,0.0,0.0,0.0,0.0,0.0,0.0,0.0,0.0,0.0,0.0,0.0,0.0,0.0,0.0,0.0,0.0,0.0,0.0,0.0,0.0,0.0,0.0,0.0,0.0,0.0,0.0,0.0,0.0,0.0,0.0,0.0,0.0,0.0,0.0,0.0,0.0,0.0,0.0,0.0,0.0,0.0,0.0,0.0,0.0,0.0,0.0,0.0,0.0,0.0,0.0,0.0,0.0,0.0,0.0,0.0,0.0,0.0,0.0,0.0,0.0,0.0,0.0,0.0,0.0,0.0,0.0,0.0,0.0,0.0,0.0,0.0,0.0,0.0,0.0,0.0,0.0,0.0,0.0,0.0,0.0,0.0,0.0,0.0,0.0,0.0,0.0,0.0,0.0,0.0,0.0,0.0,0.0,0.0,0.0,0.0,0.0,0.0,0.0,0.0,0.0,0.0,0.0,0.0,0.0,0.0,0.0,0.0,0.0,0.0,0.0,0.0,0.0,0.0,0.0,0.0,0.0,0.0,0.0,0.0,0.0,0.0,0.0,0.0,0.0,0.0,0.0,0.0,0.0,0.0,0.0,0.0,0.0,0.0,0.0,0.0,0.0,0.0,0.0,0.0,0.0,0.0,0.0,0.0,0.0,0.0,0.0,0.0,0.0,0.0,0.0,0.0,0.0,0.0,0.0,0.0,0.0,0.0,0.0,0.0,0.0,0.0,0.0,0.0,0.0,0.0,0.0,0.0,0.0,0.0,0.0,0.0,0.0,0.0,0.0,0.0,0.0,0.0,0.0,0.0,0.0,0.0,0.0,0.0,0.0,0.0,0.0,0.0,0.0,0.0,0.0,0.0,0.0,0.0,0.0,0.0,0.0,0.0,0.0,0.0,0.0,0.0,0.0,0.0,0.0,0.0,0.0,0.0,0.0,0.0,0.0,0.0,0.0,0.0,0.0,0.0,0.0,0.0,0.0,0.0,0.0,0.0,0.0,0.0,0.0,0.0,0.0,0.0,0.0,0.0,0.0,0.0,0.0,0.0,0.0,0.0,0.0,0.0,0.0,0.0,0.0,0.0,0.0,0.0,0.0,0.0,0.0,0.0,0.0,0.0,0.0,0.0,0.0,0.0,0.0,0.0,0.0,0.0,0.0,0.0,0.0,0.0,0.0,0.0,0.0,0.0,0.0,0.0,0.0,0.0,0.0,0.0,0.0,0.0,0.0,0.0,0.0,0.0,0.0,0.0,0.0,0.0,0.0,0.0,0.0,0.0,0.0,0.0,0.0,0.0,0.0,0.0,0.0,0.0,0.0,0.0,0.0,0.0,0.0,0.0,0.0,0.0,0.0,0.0,0.0,0.0,0.0,0.0,0.0,0.0,0.0,0.0,0.0,0.0,0.0,0.0,0.0,0.0,0.0,0.0,0.0,0.0,0.0,0.0,0.0,0.0,0.0,0.0,0.0,0.0,0.0,0.0,0.0,0.0,0.0,0.0,0.0,0.0,0.0,0.0,0.0,0.0,0.0,0.0,0.0,0.0,0.0,0.0,0.0,0.0,0.0,0.0,0.0,0.0,0.0,0.0,0.0,0.0,0.0,0.0,0.0,0.0,0.0,0.0,0.0,0.0,0.0,0.0,0.0,0.0,0.0,0.0,0.0,0.0,0.0,0.0,0.0,0.0,0.0,0.0,0.0,0.0,0.0,0.0,0.0,0.0,0.0,0.0,0.0,0.0,0.0,0.0,0.0,0.0,0.0,0.0,0.0,0.0,0.0,0.0,0.0,0.0,0.0,0.0,0.0,0.0,0.0,0.0,0.0,0.0,0.0,0.0,0.0,0.0,0.0,0.0,0.0,0.0,0.0,0.0,0.0,0.0,0.0,0.0,0.0,0.0,0.0,0.0,0.0,0.0,0.0,0.0,0.0,0.0,0.0,0.0,0.0,0.0,0.0,0.0,0.0,0.0,0.0,0.0,0.0,0.0,0.0,0.0,0.0,0.0,0.0,0.0,0.0,0.0,0.0,0.0,0.0,0.0,0.0,0.0,0.0,0.0,0.0,0.0,0.0,0.0,0.0,0.0,0.0,0.0,0.0,0.0,0.0,0.0,0.0,0.0,0.0,0.0,0.0,0.0,0.0,0.0,0.0,0.0,0.0,0.0,0.0,0.0,0.0,0.0,0.0,0.0,0.0,0.0,0.0,0.0,0.0,0.0,0.0,0.0,0.0,0.0,0.0,0.0,0.0,0.0,0.0,0.0,0.0,0.0,0.0,0.0,0.0,0.0,0.0,0.0,0.0,0.0,0.0,0.0,0.0,0.0,0.0,0.0,0.0,0.0,0.0,0.0,0.0,0.0,0.0,0.0,0.0,0.0,0.0,0.0,0.0,0.0,0.0,0.0,0.0,0.0,0.0,0.0,0.0,0.0,0.0,0.0,0.0,0.0,0.0,0.0,0.0,0.0,0.0,0.0,0.0,0.0,0.0,0.0,0.0,0.0,0.0,0.0,0.0,0.0,0.0,0.0,0.0,0.0,0.0,0.0,0.0,0.0,0.0,0.0,0.0,0.0,0.0,0.0,0.0,0.0,0.0,0.0,0.0,0.0,0.0,0.0,0.0,0.0,0.0,0.0,0.0,0.0,0.0,0.0,0.0,0.0,0.0,0.0,0.0,0.0,0.0,0.0,0.0,0.0,0.0,0.0,0.0,0.0,0.0,0.0,0.0,0.0,0.0,0.0,0.0,0.0,0.0,0.0,0.0,0.0,0.0,0.0,0.0,0.0,0.0,0.0,0.0,0.0,0.0,0.0,0.0,0.0,0.0,0.0,0.0,0.0,0.0,-1.8862,-2.1015,0.0,0.0,0.0,0.0,0.0,0.0,0.0,0.0,0.0,0.0,0.0,0.0,0.0,0.0,0.0,0.0,0.0,0.0,0.0,0.0,0.0,0.0,0.0,0.0,0.0,0.0,0.0,0.0,0.0,0.0,0.0,0.0,0.0,0.0,0.0,0.0,0.0,0.0,0.0,0.0,0.0,0.0,0.0,0.0,0.0,0.0,0.0,0.0,0.0,0.0,0.0,0.0,0.0,0.0,0.0,0.0,0.0,0.0,0.0,0.0,0.0,0.0,0.0,0.0,0.0,0.0,0.0,0.0,0.0,0.0,0.0,0.0,0.0,0.0,0.0,0.0,0.0,0.0,0.0,0.0,0.0,0.0,0.0,0.0,0.0,0.0,0.0,0.0,0.0,0.0,0.0,0.0,0.0,0.0,0.0,0.0,0.0,0.0,0.0,0.0,0.0,0.0,0.0,0.0,0.0,0.0,0.0,0.0,0.0,0.0,0.0,0.0,0.0,0.0,-1.5543,-1.724,0.0,0.0,0.0,0.0,0.0,0.0,0.0,0.0,0.0,0.0,0.0,0.0,0.0,0.0,0.0,0.0,0.0,0.0,0.0,0.0,0.0,0.0,0.0,0.0,0.0,0.0,0.0,0.0,0.0,0.0,0.0,0.0,0.0,0.0,0.0,0.0,0.0,0.0,0.0,0.0,0.0,0.0,0.0,0.0,0.0,0.0,0.0,0.0,0.0,0.0,0.0,0.0,0.0,0.0,0.0,0.0,0.0,0.0,0.0,0.0,0.0,0.0,0.0,0.0,0.0,0.0,0.0,0.0,0.0,0.0,0.0,0.0,0.0,0.0,0.0,0.0,0.0,0.0,0.0,0.0,0.0,0.0,0.0,0.0,0.0,0.0,0.0,0.0,0.0,0.0,0.0,0.0,0.0,0.0,0.0,0.0,0.0,0.0,0.0,0.0,0.0,0.0,0.0,0.0,0.0,0.0,0.0,0.0,-1.108,-1.099,-1.099,-1.0792,-1.0552,-1.0408,-1.1586,-1.2579,-1.3537,-1.5752,0.0,0.0,0.0,0.0,0.0,0.0,0.0,0.0,0.0,0.0,0.0,0.0,0.0,0.0,0.0,0.0,0.0,0.0,0.0,0.0,0.0,0.0,-0.7811,-0.7811,-0.8969,-0.9129,0.0,0.0,0.0,0.0,0.0,0.0,0.0,0.0,0.0,0.0,0.0,0.0,0.2653,0.2653,0.1989,0.0726,-0.2714,0.0,0.0,0.0,0.0,0.0,0.0,0.0,0.0,0.0,0.0,0.0,0.0,0.0,0.0,0.0,0.0,0.0,0.0,0.0,0.0,0.0,0.0,0.0,0.0,0.0,0.0,0.0,0.0,0.0,0.0,0.0,0.0,0.0,0.0,0.0,0.0,0.0,0.0,0.0,0.0,0.0,0.0,0.0,-1.3054,-1.2818,0.0,0.0,0.0,0.0,0.0,0.0,0.0,0.0,0.0,0.0,0.0,0.0,0.0,-1.1717,-1.1502,-1.0348,-0.976,-0.9786,-0.8691,-0.8139,-0.8092,-0.7036,-0.6546,-0.6485,-0.5656,0.0,-1.0117,-1.037,0.0,0.0,0.0,0.0,0.0,0.0,0.0,0.0,0.0,0.0,0.0,0.0,0.0,0.0,0.0,0.0,0.0,0.0,0.0,0.0,0.0,-0.7614,-0.7726,-0.7804,-0.8237,-0.8262,-0.7525,0.0,0.0,0.0,0.0,0.0,0.0,0.0,0.0,0.0,0.1925,0.2977,0.4005,0.3371,0.2872,0.2301,-0.0506,-0.2455,-0.3854,-0.6544,0.0,0.0,0.0,0.0,0.0,0.0,0.0,0.0,0.0,0.0,0.0,0.0,0.0,0.0,0.0,0.0,0.0,0.0,0.0,0.0,0.0,0.0,0.0,0.0,0.0,0.0,0.0,0.0,0.0,0.0,0.0,0.0,0.0,0.0,0.0,0.0,0.0,0.0,0.0,-1.2994,-1.1971,-1.0302,-1.1284,-1.2316,0.0,0.0,0.0,0.0,0.0,0.0,0.0,0.0,0.0,-1.0281,-0.9613,-0.9199,-0.9033,-0.8448,-0.8231,-0.8329,-0.7742,-0.7145,-0.6444,-0.5928,-0.532,-0.4617,-0.3315,-0.3725,-0.5376,-0.6842,-0.7781,-0.8389,0.0,0.0,0.0,0.0,-0.8918,-0.835,0.0,0.0,0.0,0.0,0.0,0.0,0.0,0.0,0.0,0.0,0.0,0.0,-0.7066,-0.6833,-0.6835,-0.7257,-0.7097,-0.705,-0.737,-0.7224,0.0,0.0,0.0,0.0,0.0,0.0,0.0,0.1988,0.2959,0.3897,0.4681,0.3842,0.3193,0.2636,0.1115,-0.0457,-0.2142,-0.4905,-0.6767,0.0,0.0,0.0,0.0,0.0,0.0,0.0,0.0,0.0,0.0,0.0,0.0,0.0,0.0,0.0,0.0,0.0,0.0,0.0,0.0,0.0,0.0,0.0,0.0,0.0,0.0,0.0,0.0,0.0,0.0,0.0,0.0,0.0,0.0,0.0,0.0,0.0,0.0,-1.2034,-1.0744,-0.7842,-0.8928,-0.9769,0.0,0.0,0.0,0.0,0.0,0.0,-0.9912,-0.8799,-0.8027,-0.7856,-0.6972,-0.6528,-0.6596,-0.6319,-0.6415,-0.6802,-0.6563,-0.594,-0.5072,-0.4754,-0.416,-0.32,-0.1924,-0.1417,-0.164,-0.3622,-0.4581,-0.4818,-0.5925,-0.6569,-0.674,-0.576,-0.5222,-0.4811,0.0,0.0,0.0,0.0,0.0,0.0,0.0,0.0,0.0,0.0,0.0,-0.5689,-0.5713,-0.4798,-0.4648,-0.5782,-0.5781,-0.6173,-0.7324,-0.7224,-0.7095,0.0,0.0,0.0,0.0,0.0,0.0,0.3034,0.3981,0.453,0.4712,0.4525,0.3428,0.1666,0.1553,0.0278,-0.1838,-0.2134,-0.4241,-0.7361,0.0,0.0,0.0,0.0,0.0,0.0,0.0,0.0,0.0,0.0,0.0,0.0,0.0,0.0,0.0,0.0,0.0,0.0,0.0,0.0,0.0,0.0,0.0,0.0,0.0,0.0,0.0,0.0,0.0,0.0,0.0,0.0,0.0,0.0,0.0,0.0,0.0,0.0,0.0,-0.6429,-0.8275,0.0,0.0,0.0,0.0,-0.9535,-0.8354,-0.7101,-0.57,-0.4544,-0.3901,-0.3868,-0.3848,-0.4244,-0.5196,-0.424,-0.4242,-0.5203,-0.4249,-0.3753,-0.3664,-0.2508,-0.1972,-0.1837,-0.0629,-0.0089,-0.0131,-0.0228,-0.0959,-0.2015,-0.2062,-0.2901,-0.4,-0.3785,-0.3084,-0.216,0.0,0.0,0.0,0.0,0.0,0.0,0.0,0.0,0.0,-0.7109,-0.6207,-0.5584,-0.5608,-0.4501,-0.4265,-0.557,-0.5354,-0.5716,-0.6991,-0.6851,-0.6753,0.0,0.0,0.0,0.0,0.0,0.108,0.213,0.2473,0.2991,0.3642,0.2952,0.2262,0.1585,0.0894,-0.0188,-0.1482,-0.1661,-0.2968,-0.5073,-0.6675,-0.9305,0.0,0.0,0.0,0.0,0.0,0.0,0.0,0.0,0.0,0.0,0.0,0.0,0.0,0.0,0.0,0.0,0.0,0.0,0.0,0.0,0.0,0.0,0.0,0.0,0.0,0.0,0.0,0.0,0.0,0.0,0.0,0.0,0.0,0.0,0.0,0.0,0.0,-0.5038,-0.5533,0.0,-0.5265,-0.6045,-0.6284,-0.5662,-0.5211,-0.4781,-0.4228,-0.3067,-0.2806,-0.3578,-0.2847,-0.2982,-0.4104,-0.3778,-0.3778,-0.4146,-0.3779,-0.3215,-0.2413,-0.2013,-0.1389,-0.0628,-0.018,0.0,0.0,0.0,-0.0708,-0.1708,-0.0951,-0.1394,-0.243,-0.1602,-0.1037,-0.0695,0.0,0.0,0.0,0.0,0.0,0.0,0.0,0.0,0.0,-0.7045,-0.5788,-0.4889,-0.4869,-0.372,-0.3433,-0.4725,-0.4844,-0.541,-0.683,-0.6644,-0.6438,0.0,0.0,0.0,0.0,0.036,0.0895,0.1604,0.1884,0.2225,0.2581,0.1848,0.1173,0.0574,-0.0108,-0.0938,-0.1785,-0.1918,-0.2736,-0.4048,-0.5691,-0.8034,-1.0607,0.0,0.0,0.0,0.0,0.0,0.0,0.0,0.0,0.0,0.0,0.0,0.0,0.0,0.0,0.0,0.0,0.0,0.0,0.0,0.0,0.0,0.0,0.0,0.0,0.0,0.0,0.0,0.0,0.0,0.0,0.0,0.0,0.0,0.0,-0.8157,-0.6342,-0.3622,-0.3694,-0.3728,-0.319,-0.3479,-0.3534,-0.304,-0.2992,-0.2806,-0.2389,-0.1606,-0.1562,-0.2345,-0.1606,-0.1739,-0.2915,-0.2583,-0.2582,-0.2915,-0.2539,-0.1969,-0.121,-0.121,-0.0763,0.0,0.0,0.0,0.0,0.0,-0.0725,-0.167,-0.0465,-0.0509,-0.1114,-0.0296,0.0,0.0,0.0,0.0,0.0,0.0,0.0,0.0,0.0,0.0,-0.7045,-0.6906,-0.5021,-0.3594,-0.3464,-0.2378,-0.2156,-0.3328,-0.4196,-0.5322,-0.6816,-0.6593,-0.61,0.0,0.0,0.0,-0.0038,0.102,0.1565,0.1561,0.2404,0.2372,0.1535,0.1324,0.0306,-0.1291,-0.1326,-0.1875,-0.2753,-0.2754,-0.3455,-0.4563,-0.4796,-0.6374,-0.8654,0.0,0.0,0.0,0.0,0.0,0.0,0.0,0.0,0.0,0.0,0.0,0.0,0.0,0.0,0.0,0.0,0.0,0.0,0.0,0.0,0.0,0.0,0.0,0.0,0.0,0.0,0.0,0.0,0.0,0.0,0.0,0.0,0.0,-0.7931,-0.6723,-0.4903,-0.2297,-0.3023,-0.3247,-0.1941,-0.2849,-0.3037,-0.1836,-0.1746,-0.1244,-0.0044,0.0,0.0,0.0,0.0,-0.0489,-0.1477,-0.0489,-0.0489,-0.1478,-0.0489,0.0,0.0,0.0,0.0,0.0,0.0,0.0,0.0,0.0,-0.0699,-0.1632,-0.0462,-0.0042,-0.0042,0.0,0.0,0.0,0.0,0.0,0.0,0.0,0.0,0.0,0.0,-0.7095,-0.7045,-0.6906,-0.5755,-0.4844,-0.4669,-0.3606,-0.3379,-0.4531,-0.4695,-0.5284,-0.6666,-0.5789,0.0,0.0,0.0,0.0,-0.0039,0.03,0.0436,0.0425,0.0668,0.0659,0.0409,-0.0269,-0.0841,-0.1322,-0.1999,-0.2822,-0.3632,-0.3744,-0.4355,-0.5267,-0.4785,-0.6228,-0.8623,0.0,0.0,0.0,0.0,0.0,0.0,0.0,0.0,0.0,0.0,0.0,0.0,0.0,0.0,0.0,0.0,0.0,0.0,0.0,0.0,0.0,0.0,0.0,0.0,0.0,0.0,0.0,0.0,0.0,0.0,0.0,-0.8453,-0.6393,-0.6529,-0.4555,-0.2768,-0.1931,-0.2147,-0.2215,-0.1855,-0.211,-0.18,-0.0595,-0.0498,-0.036,0.0,0.0,0.0,0.0,0.0,0.0316,0.0998,0.0361,0.0318,0.1021,0.0318,0.0,0.0,0.0,0.0,0.0,0.0,0.0,0.0,0.0,-0.0202,-0.0481,-0.0122,-0.0533,-0.1187,-0.0328,0.0,0.0,0.0,0.0,0.0,0.0,0.0,0.0,0.0,-0.8141,-0.7825,-0.7664,-0.6359,-0.5313,-0.5044,-0.4431,-0.4277,-0.4878,-0.5257,-0.5801,-0.665,-0.5146,0.0,0.0,0.0,-0.1282,-0.057,-0.0997,-0.1,-0.0551,-0.0929,-0.0921,-0.0572,-0.1475,-0.2075,-0.2442,-0.3011,-0.3747,-0.4592,-0.4667,-0.5043,-0.5568,-0.5123,-0.5986,-0.7521,-0.7597,-0.8614,-0.9996,-0.9953,-1.0364,-1.1052,-1.1489,0.0,0.0,0.0,0.0,0.0,0.0,0.0,0.0,0.0,0.0,0.0,0.0,0.0,0.0,0.0,0.0,0.0,0.0,0.0,0.0,0.0,0.0,0.0,0.0,-0.7035,-0.4964,-0.5072,-0.2828,-0.1339,-0.1761,-0.1801,-0.1786,-0.1793,-0.179,-0.1305,-0.0091,0.0,0.0,0.0,0.0547,0.0818,0.0818,0.1374,0.2033,0.2849,0.1527,0.1252,0.1973,0.0644,0.0,0.0,0.0,0.0,0.0,0.0,0.0,0.0,0.0,0.0,0.0,0.0,0.0,0.0,0.0,0.0,0.0,0.0,0.0,0.0,0.0,0.0,0.0,0.0,-0.9655,-0.8896,-0.8747,-0.6923,-0.5514,-0.5155,-0.5118,-0.5069,-0.4925,-0.5876,-0.6448,-0.6331,0.0,0.0,-0.1649,-0.1715,-0.1675,-0.1491,-0.2426,-0.2434,-0.1474,-0.2277,-0.2277,-0.1474,-0.241,-0.3247,-0.4015,-0.4102,-0.4604,-0.5392,-0.5378,-0.5457,-0.5562,-0.5562,-0.5752,-0.6006,-0.6183,-0.7151,-0.8305,-0.822,-0.9216,-1.0741,-1.1466,0.0,0.0,0.0,0.0,0.0,0.0,0.0,0.0,0.0,0.0,0.0,0.0,0.0,0.0,0.0,0.0,0.0,0.0,0.0,0.0,0.0,0.0,0.0,0.0,-0.6189,-0.3811,-0.3798,-0.1595,-0.0518,-0.1844,-0.2028,-0.2016,-0.2024,-0.2024,-0.1444,-0.0091,0.0,0.0045,0.0227,0.1334,0.0,0.0,0.0,0.4082,0.4224,0.2751,0.2071,0.2177,0.0692,0.0,0.0,0.0,0.0,0.0,0.0,0.0,0.0,0.0,0.0,0.0,0.0,0.0,0.0,0.0,0.0,0.0,0.0,0.0,0.0,0.0,0.0,0.0,0.0,-0.9901,-0.9038,-0.9022,-0.7845,-0.6898,-0.657,-0.6434,-0.6354,-0.6325,-0.6421,-0.5792,0.0,0.0,-0.375,-0.1686,-0.2375,-0.2752,-0.258,-0.2809,-0.2735,-0.2444,-0.2611,-0.2611,-0.2444,-0.3345,-0.3846,-0.4013,-0.4605,-0.5078,-0.5385,-0.5226,-0.5264,-0.544,-0.544,-0.5657,-0.5996,-0.6027,-0.6339,-0.6734,-0.6731,-0.743,-0.8505,-0.8977,-0.989,-1.0762,-1.0028,0.0,0.0,0.0,0.0,0.0,0.0,0.0,0.0,0.0,0.0,0.0,0.0,0.0,0.0,0.0,0.0,0.0,0.0,0.0,0.0,-0.8295,-0.5714,-0.3816,-0.3816,-0.159,-0.083,-0.2973,-0.3328,-0.3357,-0.3252,-0.3347,-0.2459,-0.0193,0.0,0.0474,0.1539,0.1857,0.2507,0.3589,0.3885,0.446,0.5452,0.3179,0.2476,0.3444,0.11,0.0,0.0,0.0,0.0,0.0,0.0,0.0,0.0,0.0,0.0,0.0,0.0,0.0,0.0,0.0,0.0,0.0,0.0,0.0,0.0,0.0,0.0,0.0,0.0,-1.1167,-1.0006,-1.019,-0.8615,-0.74,-0.7173,-0.7082,-0.7007,-0.6929,-0.6851,0.0,0.0,-0.4752,-0.4203,-0.2427,-0.336,-0.3799,-0.3559,-0.4082,-0.401,-0.3347,-0.3816,-0.4046,-0.4036,-0.4935,-0.5595,-0.6019,-0.6395,-0.6379,-0.6034,-0.595,-0.5961,-0.605,-0.6205,-0.6684,-0.7211,-0.624,-0.6057,-0.6377,-0.6872,-0.7365,-0.7936,-0.8683,-0.9478,-1.0015,-0.9161,-0.9116,-0.9469,0.0,0.0,0.0,0.0,0.0,0.0,0.0,0.0,0.0,0.0,0.0,0.0,0.0,0.0,-0.966,-0.9036,0.0,-0.8549,-0.7811,-0.5492,-0.38,-0.3793,-0.1603,-0.0934,-0.3413,-0.3161,-0.3041,-0.3647,-0.3163,-0.2005,-0.0145,0.0623,0.1291,0.1977,0.3277,0.4288,0.496,0.5637,0.5978,0.5918,0.3961,0.2979,0.2854,0.0919,0.0,0.0,0.0,0.0,0.0,0.0,0.0,0.0,0.0,0.0,0.0,0.0,0.0,0.0,0.0,0.0,0.0,0.0,0.0,0.0,0.0,0.0,0.0,0.0,0.0,-1.0642,-1.0954,-0.9035,-0.7584,-0.7434,-0.7436,-0.7322,-0.7149,0.0,0.0,0.0,-0.5412,-0.478,-0.3504,-0.4465,-0.4863,-0.4538,-0.5587,-0.5621,-0.4548,-0.5522,-0.5936,-0.5851,-0.6613,-0.734,-0.7989,-0.7943,-0.7618,-0.7001,-0.6798,-0.6861,-0.7105,-0.7137,-0.7764,-0.8548,-0.702,-0.6641,-0.6984,-0.7783,-0.8237,-0.8498,-0.9316,-0.9712,-0.9743,-0.9018,-0.8829,-0.9013,-0.9318,-0.9679,0.0,0.0,0.0,0.0,0.0,0.0,0.0,0.0,-0.6561,-0.6275,-0.7375,-0.7816,-0.7917,-0.7872,-0.7855,-0.7711,-0.7326,-0.5344,-0.3725,-0.3439,-0.1435,-0.0863,-0.3168,-0.2491,-0.2248,-0.3296,-0.2447,-0.1348,-0.0096,0.1252,0.2117,0.2357,0.4677,0.6138,0.6382,0.7427,0.7356,0.5975,0.4665,0.3291,0.1928,0.0643,0.0,0.0,0.0,0.0,0.0,0.0,0.0,0.0,0.0,0.0,0.0,0.0,0.0,0.0,0.0,0.0,0.0,0.0,0.0,0.0,0.0,0.0,0.0,0.0,0.0,0.0,-0.9919,-0.8689,-0.7733,-0.759,-0.7451,-0.7409,0.0,0.0,0.0,-0.5648,-0.6056,-0.5833,-0.4758,-0.5614,-0.6023,-0.5821,-0.6807,-0.7064,-0.6563,-0.7576,-0.795,-0.7697,-0.7795,-0.7897,-0.7984,-0.7807,-0.7908,-0.8134,-0.7118,-0.7411,-0.8508,-0.7627,-0.7972,-0.9031,-0.8813,-0.882,-0.8998,-0.9112,-0.9701,-1.0402,-1.0,-0.9802,-0.9649,-0.9218,-0.8397,-0.7678,-0.7965,-0.8871,-0.9878,-1.0147,-0.9352,-0.839,-0.8243,-0.63,-0.446,0.0,-0.5172,-0.588,-0.6187,-0.7088,-0.7872,-0.7941,-0.7965,-0.7566,-0.6198,-0.4869,-0.3511,-0.2197,-0.088,-0.0541,-0.2046,-0.2069,-0.2,-0.2002,-0.1982,-0.1452,-0.01,0.1252,0.2499,0.3693,0.52,0.6562,0.7763,0.7932,0.7309,0.5852,0.4619,0.327,0.1797,0.0585,0.0,0.0,0.0,0.0,0.0,0.0,0.0,0.0,0.0,0.0,0.0,0.0,0.0,0.0,0.0,0.0,0.0,0.0,0.0,0.0,0.0,0.0,0.0,0.0,0.0,0.0,0.0,-0.8769,-0.7874,-0.7862,-0.8464,-0.9227,0.0,0.0,0.0,-0.7837,-0.7777,-0.7222,-0.599,-0.6813,-0.72,-0.7067,-0.7958,-0.8298,-0.7993,-0.8443,-0.8745,-0.8986,-0.8986,-0.9249,-0.9741,-0.9659,-0.9218,-0.8522,-0.8835,-0.896,-0.9006,-0.9322,-1.0056,-1.0967,-1.0967,-1.1136,-1.1258,-1.0648,-1.0815,0.0,0.0,-1.1134,-1.1101,-1.0562,-0.9505,-0.8567,-0.8958,-0.8912,-0.8589,-0.7784,-0.7189,-0.6458,-0.4803,-0.3607,-0.3058,-0.3808,-0.439,-0.5219,-0.681,-0.8171,-0.8837,-0.8127,-0.8627,-0.8446,-0.6259,-0.4817,-0.3527,-0.209,-0.0798,-0.02,-0.0756,-0.0851,-0.1146,-0.1842,-0.1254,-0.0302,0.1058,0.2413,0.3767,0.5072,0.6429,0.7083,0.6833,0.686,0.5805,0.361,0.3101,0.212,0.0763,0.0225,0.0,0.0,0.0,0.0,0.0,0.0,0.0,0.0,0.0,0.0,0.0,0.0,0.0,0.0,0.0,0.0,0.0,0.0,0.0,0.0,0.0,0.0,0.0,0.0,0.0,0.0,0.0,0.0,0.0,0.0,0.0,0.0,0.0,0.0,0.0,0.0,-0.9051,-0.8373,-0.7372,-0.7809,-0.822,-0.8441,-0.9354,-0.968,-0.9367,-0.9622,-0.9892,-1.0166,-0.989,-1.0092,-1.0702,-1.0436,-0.9748,-0.8821,-0.9856,-1.0074,-0.9846,-1.0822,-1.1746,-1.2552,-1.2552,-1.2739,-1.2902,-1.2078,-1.1952,0.0,0.0,-1.2281,-1.2305,-1.1638,-1.072,-1.0045,-1.0387,-0.9608,-0.8171,-0.6367,-0.5679,-0.4879,-0.2434,-0.1915,-0.2277,-0.3223,-0.4329,-0.5674,-0.7614,-0.9353,-1.0145,-0.8775,-0.9061,-0.8552,-0.5872,-0.4014,-0.2408,-0.1106,-0.005,0.0555,0.0555,0.0202,-0.0404,-0.136,-0.0252,0.0958,0.1913,0.3566,0.497,0.5929,0.7285,0.7369,0.6033,0.6002,0.4731,0.203,0.2001,0.1327,0.0,0.0,0.0,0.0,0.0,0.0,0.0,0.0,0.0,0.0,0.0,0.0,0.0,0.0,0.0,0.0,0.0,0.0,0.0,0.0,0.0,0.0,0.0,0.0,0.0,0.0,0.0,0.0,0.0,0.0,0.0,0.0,0.0,0.0,0.0,0.0,0.0,0.0,-0.9358,-0.9004,-0.8829,-0.8551,-0.8919,-1.01,-1.1106,-1.1327,-1.0722,-1.1712,-1.1906,-1.1341,-1.0353,-0.9898,-0.991,-0.9052,-0.8837,-0.9092,-0.9421,-1.0274,-1.1449,-1.1592,-1.2288,-1.318,-1.318,-1.332,-1.354,-1.3253,0.0,0.0,0.0,-1.2786,-1.2659,-1.192,-1.1643,0.0,-1.1783,-1.0925,0.0,-0.6712,-0.5058,-0.3706,-0.2331,-0.2017,-0.2009,-0.2039,-0.5063,-0.7911,-0.796,-1.0066,-1.1463,-1.0194,-0.889,-0.7195,-0.4514,-0.1854,0.0351,0.171,0.1912,0.1963,0.1963,0.0807,0.0,-0.005,0.1159,0.1962,0.2013,0.4472,0.5979,0.5979,0.7285,0.7372,0.6063,0.6009,0.4699,0.2034,0.1986,0.1327,0.0,0.0,0.0,0.0,0.0,0.0,0.0,0.0,0.0,0.0,0.0,0.0,0.0,0.0,0.0,0.0,0.0,0.0,0.0,0.0,0.0,0.0,0.0,0.0,0.0,0.0,0.0,0.0,0.0,0.0,0.0,0.0,0.0,0.0,0.0,0.0,0.0,0.0,-1.2046,-1.146,-1.0645,-1.0875,-1.1184,-1.1567,-1.2326,-1.2588,-1.2383,-1.2744,-1.2699,-1.2305,-1.1168,-1.0634,-1.0608,-0.9625,-0.9493,-1.0045,-1.1093,-1.1912,-1.2541,-1.3098,-1.3603,-1.4035,-1.3606,-1.376,-1.4193,0.0,0.0,0.0,0.0,0.0,0.0,-1.4244,0.0,0.0,-1.1055,0.0,0.0,-0.6587,-0.5479,-0.4762,-0.3503,-0.3213,-0.3468,-0.4441,-0.6396,-0.8273,-0.9133,-1.1231,-1.2289,-1.0237,-0.9388,-0.7866,-0.4432,-0.169,0.0451,0.181,0.2764,0.3316,0.3316,0.2914,0.2665,0.2665,0.2264,0.2363,0.3265,0.4972,0.6381,0.7285,0.7645,0.6881,0.474,0.4573,0.3315,0.0693,0.0685,0.0858,0.121,0.121,0.1201,0.1184,0.0349,0.0,0.0,0.0,0.0,0.0,0.0,0.0,0.0,0.0,0.0,0.0,0.0,0.0,0.0,0.0,0.0,0.0,0.0,0.0,0.0,0.0,0.0,0.0,0.0,0.0,0.0,0.0,0.0,0.0,0.0,0.0,0.0,0.0,0.0,-1.3199,-1.2518,-1.2705,-1.2971,-1.3417,-1.3688,-1.3781,-1.3681,-1.3681,-1.327,-1.2525,-1.1387,-1.0616,-1.0141,-0.9159,-0.9237,-1.0105,-1.1529,-1.2563,-1.3306,-1.4117,-1.4576,-1.479,-1.4372,-1.4526,0.0,0.0,0.0,0.0,0.0,0.0,0.0,0.0,0.0,0.0,0.0,0.0,-0.9831,-0.662,-0.5733,-0.542,-0.4124,-0.4199,-0.4977,-0.6372,-0.8093,-0.9768,-1.1107,-1.2544,-1.2959,-1.0914,-0.928,-0.7279,-0.4336,-0.1294,0.1204,0.2513,0.3465,0.4166,0.467,0.4268,0.4016,0.4016,0.3668,0.3768,0.467,0.5977,0.7083,0.7939,0.7892,0.6617,0.4066,0.389,0.2573,0.0046,0.0,0.0628,0.179,0.179,0.1822,0.1753,0.0567,0.0,0.0,0.0,0.0,0.0,0.0,0.0,0.0,0.0,0.0,0.0,0.0,0.0,0.0039,0.0,0.0,0.0,0.0,0.0,0.0,0.0,0.0,0.0,0.0,0.0,0.0,0.0,0.0,0.0,0.0,0.0,0.0,0.0,0.0,0.0,-1.4414,-1.3987,-1.4238,-1.5319,-1.5026,-1.4734,-1.4412,-1.4499,-1.3727,-1.2118,-1.1122,-0.9999,-0.88,-0.7918,-0.831,-0.9636,-1.0932,-1.2406,-1.3924,-1.4728,-1.5249,-1.5464,-1.5444,0.0,0.0,0.0,0.0,0.0,0.0,0.0,0.0,0.0,0.0,0.0,0.0,-1.1816,-1.1014,-0.6836,-0.5887,-0.5731,-0.4343,-0.5058,-0.6422,-0.7812,-1.0062,-1.2285,-1.3632,-1.3866,-1.3471,-1.2124,-0.8641,-0.553,-0.4207,-0.0602,0.2464,0.3815,0.4066,0.4618,0.6027,0.502,0.4216,0.4314,0.5372,0.6079,0.6079,0.7285,0.7988,0.7988,0.7885,0.6669,0.418,0.3907,0.26,0.0135,0.009,0.0718,0.1879,0.1835,0.1834,0.183,0.057,0.0,0.0,0.0,0.0,0.0,0.0,0.0,0.0,0.0,0.0,0.0,0.0,0.0,0.0157,0.0,0.0,0.0,0.0,0.0,0.0,0.0,0.0,0.0,0.0,0.0,0.0,0.0,0.0,0.0,0.0,0.0,0.0,0.0,0.0,0.0,0.0,0.0,0.0,0.0,0.0,0.0,0.0,-1.4391,-1.4167,-1.273,-1.1648,-1.106,-1.09,-0.9932,-1.0865,-1.321,-1.3702,-1.4696,-1.5947,0.0,-1.6112,-1.6353,0.0,0.0,0.0,0.0,0.0,0.0,0.0,0.0,0.0,0.0,-1.5784,-1.5276,-1.2651,-1.1783,-1.1082,-0.805,-0.7197,-0.7143,-0.6864,-0.7051,-0.7696,-0.9162,-1.0721,-1.2285,-1.3632,-1.372,-1.3161,-1.1978,-0.8375,-0.5231,-0.4032,-0.0547,0.2464,0.3815,0.487,0.6371,0.8707,0.7819,0.7372,0.835,0.7872,0.7487,0.7487,0.7789,0.7988,0.7988,0.7794,0.6963,0.5407,0.4263,0.292,0.1344,0.1344,0.1969,0.3126,0.2236,0.2263,0.3057,0.0958,0.0,0.0,0.0,0.0,0.0,0.0,0.0,0.0,0.0,0.0,0.0,0.0,0.0,0.0275,0.0,0.0,0.0,0.0,0.0,0.0,0.0,0.0,0.0,0.0,0.0,0.0,0.0,0.0,0.0,0.0,0.0,0.0,0.0,0.0,0.0,0.0,0.0,0.0,0.0,0.0,0.0,0.0,0.0,0.0,-1.2816,-1.1516,-1.1049,-1.126,-1.068,-1.1993,-1.4648,-1.474,0.0,0.0,0.0,0.0,0.0,0.0,0.0,0.0,0.0,0.0,0.0,0.0,0.0,-1.5784,-1.5784,-1.5784,-1.5365,-1.332,-1.2262,-1.1331,-0.9116,-0.8177,-0.7794,-0.7807,-0.8295,-0.9141,-1.0511,-1.1848,-1.3156,-1.4465,-1.3666,-1.2564,-1.1902,-0.8486,-0.5324,-0.4102,-0.1547,0.1105,0.3665,0.467,0.6315,0.96,0.8825,0.8531,0.985,0.8775,0.7988,0.7988,0.7988,0.7988,0.7988,0.7821,0.7086,0.5832,0.4922,0.3875,0.2592,0.2592,0.2948,0.3614,0.2903,0.2666,0.2724,0.0837,0.0,0.0,0.0,0.0,0.0,0.0,0.0,0.0039,0.0516,0.0712,0.0745,0.1214,0.137,0.1526,0.0,0.0,0.0,0.0,0.0,0.0,0.0,0.0,0.0,0.0,0.0,0.0,0.0,0.0,0.0,0.0,0.0,0.0,0.0,0.0,0.0,0.0,0.0,0.0,0.0,0.0,0.0,0.0,0.0,0.0,0.0,0.0,0.0,0.0,0.0,0.0,0.0,0.0,0.0,0.0,0.0,0.0,0.0,0.0,0.0,0.0,0.0,0.0,0.0,0.0,-1.6279,-1.5784,-1.5784,-1.5784,-1.5542,-1.4149,-1.2995,-1.1811,-1.0059,-0.8935,-0.8202,-0.7924,-0.8909,-1.0337,-1.1609,-1.2958,-1.4214,-1.5343,-1.3596,-1.1848,-1.1702,-0.8548,-0.5627,-0.4468,-0.3016,-0.0653,0.321,0.3864,0.5511,0.9546,0.8825,0.8531,0.985,0.8775,0.7988,0.7988,0.7988,0.7988,0.7988,0.7892,0.72,0.5813,0.5655,0.4958,0.3616,0.3614,0.3614,0.3614,0.3436,0.2815,0.1745,0.0539,0.0,0.0,0.0,0.0,0.0,0.0,0.0,0.0119,0.1166,0.16,0.1731,0.2738,0.3007,0.2929,0.0,0.0,0.0,0.0,0.0,0.0,0.0,0.0,0.0,0.0,-0.9284,-1.0854,0.0,0.0,0.0,0.0,0.0,0.0,0.0,0.0,0.0,0.0,0.0,0.0,0.0,0.0,0.0,0.0,-1.3993,0.0,0.0,0.0,0.0,0.0,0.0,0.0,0.0,0.0,0.0,0.0,0.0,0.0,0.0,0.0,0.0,0.0,0.0,0.0,0.0,0.0,-1.6119,-1.5784,-1.5784,-1.5784,-1.5527,-1.4261,-1.3699,-1.3032,-1.059,-0.98,-0.9406,-0.8252,-0.9,-1.0337,-1.1609,-1.2958,0.0,-1.4166,-1.3011,-1.1556,-1.0534,-0.7961,-0.5927,-0.5677,-0.3618,-0.1004,0.1951,0.3309,0.5511,0.9546,0.8825,0.8531,0.985,0.8775,0.7988,0.7988,0.7988,0.7988,0.7988,0.7892,0.7159,0.5704,0.5493,0.4839,0.3614,0.3614,0.3614,0.357,0.2592,0.2013,0.1745,0.0539,0.0,0.0,0.0,0.0,0.0,0.0,0.0,0.0124,0.12,0.1592,0.1731,0.2717,0.2579,0.1996,0.0,0.0,0.0,0.0,0.0,0.0,0.0,-0.9019,-0.9019,-0.9019,-0.9164,-1.0141,-1.2531,-1.3426,-1.489,0.0,0.0,0.0,0.0,0.0,0.0,0.0,0.0,0.0,0.0,-1.2097,-1.3138,-1.4044,0.0,-1.4194,-1.2946,-1.2258,-1.2416,-1.3378,-1.404,-1.5624,0.0,0.0,0.0,0.0,0.0,0.0,0.0,0.0,0.0,0.0,0.0,0.0,0.0,0.0,-1.6433,-1.6032,-1.5879,-1.5784,-1.5683,-1.5045,-1.4411,-1.3488,-1.1507,-1.0485,-0.9657,-0.8333,-0.9509,-1.117,-1.1755,0.0,0.0,-1.4902,-1.3301,-1.1702,-1.1121,-0.8806,-0.6833,-0.6129,-0.432,-0.1856,0.15,0.3157,0.5511,0.9546,0.8825,0.8531,0.985,0.8775,0.7988,0.7988,0.7988,0.7988,0.7988,0.7824,0.7351,0.6653,0.5812,0.5401,0.544,0.4819,0.4241,0.3614,0.2992,0.2057,0.0852,0.0269,0.0,0.0,0.0,0.0,0.0,0.0,0.0331,0.0949,0.1956,0.2737,0.3257,0.3767,0.3634,0.3127,0.0,0.0,0.0,0.0,0.0,0.0,0.0,-0.9583,-0.9571,-0.9611,-0.8816,-0.9399,-1.2475,-1.2854,-1.398,0.0,0.0,0.0,0.0,0.0,0.0,0.0,0.0,0.0,0.0,0.0,0.0,-1.5417,-1.527,0.0,0.0,0.0,0.0,0.0,-1.3947,-1.5568,-1.8069,0.0,0.0,0.0,0.0,-1.8232,0.0,0.0,0.0,0.0,0.0,0.0,0.0,0.0,-1.6891,-1.6406,-1.6112,-1.5884,-1.5791,-1.5905,-1.5143,-1.3926,-1.2334,-1.1165,-1.0096,-0.8775,-1.019,-1.1994,-1.2285,-1.413,-1.573,-1.5439,-1.3547,-1.1799,-1.1556,-0.9558,-0.7637,-0.6581,-0.507,-0.2806,0.065,0.2804,0.5261,0.8753,0.8478,0.8432,0.946,0.863,0.7988,0.7988,0.7961,0.7955,0.7988,0.776,0.76,0.76,0.6388,0.6204,0.7095,0.6204,0.5179,0.3972,0.3703,0.2458,0.0359,0.0135,0.0,0.0,0.0,0.0,0.0,0.0258,0.0893,0.1785,0.3047,0.3901,0.4433,0.4649,0.443,0.382,0.0,0.0,0.0,0.0,0.0,0.0,0.0,-0.8277,-0.8239,-0.8431,-0.8187,-0.9264,-1.2459,-1.2935,-1.3678,0.0,0.0,0.0,0.0,0.0,0.0,0.0,0.0,0.0,0.0,0.0,0.0,-1.5417,-1.5683,0.0,0.0,0.0,0.0,0.0,0.0,-1.6851,-1.8444,-1.8417,0.0,0.0,0.0,0.0,0.0,0.0,0.0,0.0,0.0,0.0,0.0,0.0,0.0,-1.7072,-1.672,-1.6259,-1.5879,-1.6152,0.0,0.0,-1.2576,-1.1799,-1.1414,-1.0145,-1.0877,-1.2237,-1.344,0.0,-1.5486,-1.4316,-1.2915,-1.1556,-1.0391,-0.897,-0.7939,-0.7839,-0.5672,-0.346,-0.185,0.1601,0.4568,0.6176,0.7335,0.8038,0.8187,0.8088,0.7988,0.7988,0.7913,0.7892,0.7982,0.776,0.76,0.76,0.7163,0.7007,0.7095,0.7007,0.6381,0.5223,0.4105,0.2903,0.1612,0.0494,0.0,0.0,0.0,0.0,0.0087,0.1188,0.1676,0.1989,0.4077,0.4309,0.3553,0.4532,0.3619,0.1861,0.0,0.0,0.0,0.0,0.0,0.0,-0.8248,-0.8218,-0.8231,-0.8377,-0.8343,-0.915,-1.1417,-1.1723,-1.2752,-1.518,0.0,0.0,0.0,0.0,0.0,0.0,0.0,0.0,0.0,0.0,-1.6145,-1.6978,-1.6307,0.0,0.0,0.0,0.0,0.0,0.0,-1.7239,-1.8738,-1.8564,0.0,0.0,0.0,0.0,0.0,0.0,0.0,0.0,0.0,0.0,-1.7816,-1.7515,0.0,0.0,-1.7215,-1.6827,0.0,0.0,-1.6313,-1.5875,-1.367,-1.3208,-1.2992,-1.1492,-1.2139,-1.3247,-1.3782,0.0,-1.5683,-1.5146,-1.3349,-1.175,-1.1214,-0.941,-0.7988,-0.7988,-0.5772,0.0,-0.22,0.1451,0.4518,0.5827,0.7185,0.7988,0.7988,0.7988,0.7951,0.7909,0.7845,0.7801,0.7777,0.7577,0.7461,0.7461,0.7255,0.7095,0.7095,0.7095,0.6157,0.433,0.3838,0.2592,0.0718,0.0225,0.0,0.0,0.0,0.0399,0.1106,0.162,0.2142,0.2803,0.3699,0.3705,0.3137,0.2983,0.2375,0.1491,0.0,0.0,0.0,0.0,0.0,-0.8106,-0.8303,-0.8347,-0.8336,-0.8526,-0.8509,-0.9113,-1.0699,-1.0506,-1.1322,-1.389,-1.2295,0.0,0.0,0.0,0.0,0.0,0.0,0.0,0.0,0.0,-1.6935,-1.7447,-1.6561,-1.5157,0.0,0.0,-1.4354,-1.4542,0.0,0.0,0.0,0.0,0.0,0.0,0.0,0.0,0.0,0.0,0.0,0.0,0.0,0.0,0.0,0.0,0.0,0.0,0.0,0.0,0.0,0.0,-1.6613,-1.6308,-1.4649,-1.428,-1.4158,-1.2932,-1.341,-1.423,0.0,0.0,-1.5959,-1.5959,-1.3792,-1.1896,-1.1896,-0.9752,-0.7988,-0.7988,0.0,-0.4114,-0.2803,0.085,0.3912,0.5272,0.693,0.7988,0.7988,0.7988,0.7928,0.7824,0.7773,0.7685,0.7539,0.7387,0.7322,0.7415,0.7221,0.7095,0.7095,0.7095,0.6113,0.415,0.3792,0.2503,0.0539,0.018,0.0,0.0,0.0,0.0494,0.1299,0.1657,0.2217,0.2886,0.332,0.316,0.2648,0.1923,0.1448,0.1017,0.0,0.0,0.0,0.0,0.0,0.0,-0.8435,-0.836,-0.8377,-0.8669,-0.8577,-0.9113,-1.0699,-0.9613,-0.9356,-1.0983,-1.1109,0.0,0.0,0.0,0.0,0.0,0.0,0.0,0.0,0.0,-1.7687,-1.6136,-1.6242,-1.4779,-1.1879,-1.3567,-1.4445,-1.4658,0.0,0.0,0.0,0.0,0.0,0.0,0.0,0.0,0.0,0.0,0.0,0.0,0.0,0.0,0.0,0.0,0.0,0.0,0.0,0.0,0.0,0.0,-1.6934,-1.6393,-1.5154,-1.4788,-1.4728,-1.4362,-1.4548,-1.503,0.0,0.0,-1.6266,-1.6266,-1.3969,-1.1896,-1.1896,-0.9752,-0.7988,-0.7988,-0.6883,0.0,-0.4166,-0.05,0.2502,0.3864,0.6376,0.7988,0.7988,0.7988,0.7928,0.7824,0.7682,0.7536,0.7429,0.7227,0.7214,0.7412,0.7221,0.7095,0.7095,0.7095,0.6517,0.5359,0.415,0.2948,0.1746,0.0539,0.0,0.0,0.0,0.0,0.009,0.1299,0.179,0.1923,0.3124,0.2857,0.1834,0.1789,0.1061,0.0,0.0,0.0,0.0,0.0,0.0,0.0,0.0,-0.8533,-0.8642,-0.8842,-0.8825,-0.8971,-0.9454,-0.9136,-0.9047,-0.953,-0.9588,0.0,0.0,0.0,0.0,0.0,0.0,0.0,0.0,-1.8337,-1.7646,-1.5983,-1.5315,-1.3958,-1.1992,-1.3626,-1.4445,-1.4723,-1.7455,-1.8946,0.0,0.0,0.0,0.0,0.0,0.0,-2.0757,0.0,0.0,0.0,0.0,0.0,0.0,0.0,0.0,0.0,0.0,0.0,0.0,0.0,0.0,0.0,-1.6296,-1.6278,-1.6362,-1.6021,-1.6021,-1.5909,-1.5213,0.0,-1.4784,-1.3701,-1.2014,-1.0735,-1.0605,-0.9164,-0.7988,-0.7988,-0.6124,-0.4468,-0.4066,-0.0551,0.2511,0.3865,0.6373,0.7988,0.7988,0.7894,0.7824,0.7678,0.7529,0.7377,0.7221,0.7122,0.7119,0.721,0.7122,0.7095,0.7095,0.7095,0.6517,0.5403,0.5001,0.3751,0.1835,0.2281,0.2013,0.1254,0.2102,0.2458,0.2503,0.2858,0.2547,0.1835,0.2236,0.1612,0.0584,0.0584,0.0313,0.0,0.0,0.0,0.0,0.0,0.0,0.0,0.0,-0.8611,-0.8764,-0.8865,-0.8885,-0.8885,-0.8885,-0.8885,-0.8885,-0.8885,-0.8885,0.0,0.0,0.0,0.0,0.0,0.0,0.0,-1.7989,-1.845,-1.7477,-1.5171,-1.4661,-1.3524,-1.1828,-1.3587,-1.4749,-1.5418,-1.8183,-1.9424,0.0,0.0,0.0,0.0,0.0,0.0,-2.0759,0.0,0.0,0.0,0.0,0.0,0.0,0.0,0.0,0.0,0.0,0.0,0.0,0.0,-1.5962,0.0,0.0,-1.7168,-1.7293,-1.6947,-1.654,0.0,0.0,0.0,-1.3588,-1.2537,-1.1217,-1.0155,-1.0031,-0.892,-0.7988,-0.7988,-0.6176,-0.4568,-0.4066,-0.0551,0.286,0.5218,0.698,0.7968,0.7911,0.7868,0.7729,0.7529,0.7424,0.7302,0.7105,0.7095,0.7095,0.7095,0.7095,0.7095,0.7095,0.7095,0.6517,0.5403,0.5403,0.4376,0.2503,0.326,0.317,0.2503,0.326,0.3347,0.0,0.2903,0.2191,0.1121,0.1121,0.0673,0.0,0.0,0.0,0.0,0.0,0.0,0.0,0.0,0.0,0.0,0.0,-0.8621,-0.8777,-0.8865,-0.9002,-0.9058,-0.894,-0.9002,-0.9058,-0.8885,0.0,0.0,0.0,0.0,0.0,0.0,0.0,0.0,-1.8022,-1.8582,-1.727,-1.3875,-1.4312,-1.35,-1.1544,-1.3548,-1.5212,-1.6592,-1.8494,-1.941,0.0,0.0,0.0,0.0,-2.0866,-2.0644,0.0,0.0,0.0,0.0,0.0,0.0,0.0,0.0,0.0,0.0,0.0,0.0,0.0,0.0,0.0,0.0,0.0,-1.745,-1.7437,-1.7248,-1.6323,-1.5323,0.0,0.0,0.0,0.0,0.0,-1.0008,-0.9883,-0.8772,-0.7839,-0.7839,-0.6631,-0.5275,-0.4017,-0.04,0.355,0.7266,0.7872,0.7914,0.7811,0.7787,0.7668,0.7439,0.7405,0.7292,0.7102,0.7095,0.7095,0.7095,0.7105,0.7105,0.7095,0.7105,0.6571,0.5536,0.5555,0.4924,0.3748,0.3844,0.3798,0.3748,0.3792,0.3126,0.1924,0.1924,0.1165,0.0,0.0,0.0,0.0,0.0,0.0,0.0,0.0,0.0,0.0,0.0,0.0,0.0,0.0,0.0,0.0,0.0,-1.008,-1.0385,-0.9058,-1.008,-1.0325,0.0,0.0,0.0,0.0,0.0,0.0,0.0,0.0,0.0,-1.8384,-1.8738,-1.727,-1.3875,-1.523,-1.437,-1.1536,-1.4305,-1.5918,-1.658,-1.8287,-1.9152,0.0,0.0,0.0,0.0,-1.9758,-1.9707,0.0,0.0,0.0,0.0,-1.8998,-1.8651,0.0,0.0,0.0,0.0,0.0,0.0,0.0,0.0,-1.4497,0.0,-1.5999,0.0,-1.6474,-1.7285,-1.6665,-1.5429,0.0,0.0,0.0,0.0,0.0,0.0,0.0,0.0,-0.6481,-0.6481,-0.4472,-0.2815,-0.2514,0.1003,0.3842,0.4679,0.6586,0.7807,0.7662,0.7543,0.7444,0.7422,0.7261,0.7136,0.7098,0.7095,0.7095,0.7095,0.7255,0.7258,0.7098,0.7258,0.7123,0.6697,0.6966,0.6356,0.5003,0.6037,0.5936,0.5045,0.5891,0.5085,0.317,0.317,0.1924,0.0,0.0,0.0,0.0,0.0,0.0,0.0,0.0,0.0,0.0,0.0,0.0,0.0,0.0,0.0,0.0,0.0,0.0,0.0,0.0,0.0,0.0,0.0,0.0,0.0,0.0,0.0,0.0,0.0,0.0,-1.8069,-1.8283,-1.8704,-1.7616,-1.5001,-1.5965,-1.5389,-1.3546,-1.5211,-1.6414,-1.721,-1.8396,-1.9092,-1.9424,-1.9424,-1.9424,-1.9424,-1.9424,0.0,0.0,0.0,0.0,0.0,-1.9078,-1.8366,0.0,-1.7856,-1.7348,-1.6284,0.0,0.0,0.0,0.0,-1.2337,-1.3169,-1.3612,-1.5287,-1.6796,-1.6621,-1.5636,-1.4283,-1.2644,0.0,0.0,0.0,0.0,0.0,0.0,0.0,-0.5817,-0.5166,-0.3343,-0.1589,-0.0347,0.2182,0.4088,0.4636,0.6505,0.7655,0.7509,0.7421,0.7343,0.7272,0.7142,0.7095,0.7095,0.7095,0.7129,0.7244,0.7326,0.7329,0.7248,0.7329,0.7363,0.735,0.7377,0.7018,0.6343,0.7057,0.6966,0.6207,0.6943,0.5849,0.3614,0.3614,0.2191,0.0,0.0,0.0,0.0,0.0,0.0,0.0,0.0,0.0,0.0,0.0,0.0,0.0,0.0,0.0,0.0,0.0,0.0,0.0,0.0,0.0,0.0,0.0,0.0,0.0,0.0,0.0,0.0,0.0,-1.6537,-1.8082,-1.8122,-1.8671,-1.8044,-1.6301,-1.6619,-1.6408,-1.5865,-1.6158,-1.6961,-1.8082,-1.8628,-1.9092,-1.9424,-1.9424,-1.9424,-1.9424,-1.9424,0.0,0.0,0.0,0.0,0.0,0.0,0.0,0.0,-1.6821,-1.5698,-1.3907,-1.2488,0.0,0.0,0.0,0.0,0.0,-1.1216,-1.438,-1.6984,-1.5481,-1.39,-1.2363,-1.1063,0.0,0.0,0.0,0.0,0.0,0.0,-0.5351,-0.4726,-0.3553,-0.228,-0.0589,0.167,0.3044,0.4233,0.5325,0.6738,0.7533,0.7353,0.7336,0.7282,0.7105,0.7095,0.7095,0.7095,0.7095,0.7156,0.7333,0.738,0.7453,0.7453,0.7473,0.7492,0.7597,0.7334,0.7309,0.7419,0.7463,0.7343,0.7139,0.7339,0.5989,0.3631,0.3631,0.2198,0.0,0.0,0.0,0.0,0.0,0.0,0.0,0.0,0.0,0.0,0.0,0.0,0.0,0.0,0.0,0.0,0.0,0.0,0.0,0.0,0.0,0.0,0.0,0.0,0.0,0.0,0.0,0.0,-1.5779,-1.748,-1.8537,-1.8784,-1.8878,-1.8077,-1.6458,-1.732,-1.7068,-1.5756,-1.6886,-1.7747,-1.8437,-1.8778,-1.9092,-1.9424,-1.9424,-1.9424,-1.9424,-1.9424,0.0,0.0,0.0,0.0,0.0,0.0,0.0,0.0,-1.6493,-1.5503,-1.3873,-1.2592,0.0,0.0,0.0,0.0,0.0,-1.1566,-1.2923,-1.4251,-1.3889,-1.1855,-0.9769,-0.9338,0.0,0.0,0.0,0.0,0.0,0.0,-0.2449,-0.0848,-0.0651,0.0501,0.1552,0.1954,0.3152,0.3949,0.3954,0.612,0.7489,0.7159,0.7132,0.7122,0.7098,0.7095,0.7095,0.7095,0.7095,0.7105,0.7132,0.7428,0.7563,0.7563,0.7685,0.7695,0.76,0.7756,0.7716,0.7426,0.7631,0.7594,0.7346,0.7499,0.6117,0.3758,0.3758,0.2272,0.0,0.0,0.0,0.0,0.0,0.0,0.0,0.0,0.0,0.0,0.0,0.0,0.0,0.0,0.0,0.0,0.0,0.0,0.0,0.0,0.0,0.0,0.0,0.0,0.0,0.0,0.0,-1.5904,-1.7604,-1.8374,-1.8784,-1.8918,-1.8925,-1.8514,-1.7812,-1.7938,-1.7657,-1.6926,-1.7397,-1.7903,-1.8497,-1.8631,-1.8945,-1.9424,-1.9424,-1.9424,-1.9424,0.0,0.0,0.0,0.0,0.0,0.0,0.0,0.0,0.0,0.0,-1.3849,-1.1677,-1.1113,0.0,0.0,0.0,0.0,0.0,-1.1879,-1.2184,-1.2206,-1.0369,-0.9403,-0.8474,0.0,0.0,0.0,0.0,0.0,0.0,0.0,-0.1343,0.0494,0.1926,0.2047,0.2005,0.1985,0.3042,0.3761,0.3608,0.5823,0.725,0.7109,0.7095,0.7095,0.7095,0.7095,0.7095,0.7095,0.7221,0.7302,0.7387,0.76,0.7753,0.7838,0.7853,0.7862,0.7716,0.7773,0.7695,0.7502,0.7716,0.7695,0.7452,0.6901,0.5533,0.3731,0.2996,0.1653,0.0,0.0,0.0,0.0,0.0,0.0,0.0,0.0,0.0,0.0,0.0,0.0,0.0,0.0,0.0,0.0,0.0,0.0,0.0,0.0,0.0,0.0,0.0,0.0,0.0,0.0,-1.5602,-1.7135,-1.8954,-1.9025,-1.8991,-1.8925,-1.8858,-1.8791,-1.8661,-1.8142,-1.7922,-1.7989,-1.7802,-1.8016,-1.8591,-1.8591,-1.8878,-1.9424,-1.9424,-1.9424,-1.9424,0.0,0.0,0.0,0.0,0.0,0.0,0.0,0.0,0.0,0.0,0.0,0.0,0.0,0.0,0.0,-1.1856,-1.2419,-1.2579,-1.2097,-1.1821,-1.0759,-0.7216,0.0,0.0,0.0,0.0,0.0,0.0,0.0,0.0,0.0,-0.0247,0.1222,0.3636,0.2879,0.1989,0.2009,0.2944,0.3646,0.3602,0.5716,0.7269,0.7492,0.7536,0.7621,0.7881,0.7661,0.7536,0.7536,0.7465,0.7424,0.7543,0.7719,0.7868,0.7934,0.7971,0.7931,0.7865,0.7753,0.7685,0.7655,0.7797,0.7591,0.7124,0.6239,0.4896,0.3317,0.2291,0.1121,0.0,0.0,0.0,0.0,0.0,0.0,0.0,0.0,0.0,0.0,0.0,0.0,0.0,0.0,0.0,0.0,0.0,0.0,0.0,0.0,0.0,0.0,0.0,0.0,0.0,0.0,-1.6366,-1.7221,-1.9248,-1.9332,-1.9205,-1.8931,-1.8657,-1.8384,-1.8055,-1.7776,-1.7762,-1.7995,-1.7969,-1.8275,-1.8891,-1.8891,-1.9072,-1.9424,-1.9424,-1.9424,-1.9424,-1.9424,0.0,0.0,0.0,0.0,0.0,0.0,0.0,0.0,0.0,0.0,0.0,0.0,0.0,-1.2037,-1.2157,-1.309,-1.3708,-1.2192,-1.1478,-1.012,-0.5739,-0.4734,0.0,-0.1144,0.0568,0.0,0.3128,0.0,0.1609,0.1711,0.1783,0.231,0.3748,0.287,0.2008,0.2006,0.3027,0.3751,0.3608,0.5837,0.7746,0.8688,0.8759,0.9192,1.0265,0.9362,0.8759,0.8759,0.7911,0.7422,0.7433,0.7662,0.7818,0.7828,0.7921,0.7985,0.7975,0.7965,0.7884,0.7801,0.7904,0.7245,0.595,0.5958,0.4504,0.2143,0.2046,0.1206,0.0,0.0,0.0,0.0,0.0,0.0,0.0,0.0,0.0,0.0,0.0,0.0,0.0,0.0,0.0,0.0,0.0,0.0,0.0,0.0,0.0,0.0,0.0,0.0,0.0,0.0,-1.7123,-1.8084,-1.9072,-1.9092,-1.9038,-1.8925,-1.8637,-1.8343,-1.7995,-1.7736,-1.7742,-1.7995,-1.7041,-1.7393,-1.8868,-1.7862,-1.8141,-1.9424,-1.9424,-1.9424,-1.9424,-1.9424,-1.9424,0.0,0.0,0.0,0.0,0.0,0.0,0.0,0.0,-1.5542,-1.371,-1.371,-1.371,-1.3861,-1.4662,-1.5252,-1.5216,-1.3483,-1.2781,-1.1307,-0.5871,-0.4388,0.0,0.0,0.1575,0.2384,0.3721,0.3615,0.3265,0.3265,0.2551,0.2419,0.3792,0.287,0.2259,0.3024,0.3419,0.3935,0.4614,0.619,0.7645,0.8811,0.889,0.9362,1.0524,0.9536,0.8937,0.9002,0.8063,0.7553,0.7641,0.7845,0.7904,0.7904,0.7961,0.7988,0.7988,0.7988,0.7911,0.7818,0.7921,0.7254,0.5864,0.5096,0.369,0.1956,0.1077,0.0439,0.0,0.0,0.0,0.0,0.0,0.0,0.0,0.0,0.0,0.0,0.0,0.0,0.0,0.0,0.0,0.0,0.0,0.0,0.0,0.0,0.0,0.0,0.0,0.0,0.0,-1.66,-1.7861,-1.8617,-1.8911,-1.9011,-1.9018,-1.8925,-1.8731,-1.8484,-1.8135,-1.7969,-1.7746,-1.7527,-1.6452,-1.6523,-1.7535,-1.694,-1.7389,-1.8706,-1.9185,-1.9424,-1.9424,-1.9424,-1.9424,0.0,0.0,0.0,0.0,0.0,0.0,0.0,0.0,-1.6674,-1.537,-1.537,-1.537,-1.5515,-1.6402,-1.6819,-1.6488,-1.4346,-1.3202,-1.1247,-0.5767,0.0,0.0,0.1768,0.2614,0.3115,0.4918,0.492,0.436,0.3538,0.2623,0.2151,0.2661,0.1957,0.1791,0.3012,0.3438,0.4042,0.5249,0.6394,0.7705,0.9274,0.9449,1.0053,1.1606,1.0616,0.9881,0.9638,0.8702,0.8037,0.7807,0.7911,0.7988,0.7988,0.7988,0.7988,0.7988,0.7988,0.7934,0.7885,0.7941,0.703,0.532,0.4411,0.3009,0.1284,0.0396,0.0,0.0,0.0,0.0,0.0,0.0,0.0,0.0,0.0,0.0,0.0,0.0,0.0,0.0,0.0,0.0,0.0,0.0,0.0,0.0,0.0,0.0,0.0,0.0,0.0,0.0,-1.8298,-1.849,-1.8617,-1.8911,-1.9205,-1.9225,-1.8931,-1.8925,-1.8784,-1.849,-1.849,-1.7828,-1.6523,-1.6459,-1.5787,-1.4663,-1.6256,-1.6962,-1.7079,-1.87,-1.9359,-1.9359,-1.9366,-1.9359,-1.9359,0.0,0.0,0.0,0.0,0.0,0.0,0.0,-1.8344,-1.7026,-1.7026,-1.7026,-1.7026,-1.7026,-1.7459,-1.738,-1.4658,-1.2257,-0.9549,-0.5246,0.0,0.0,0.3338,0.4016,0.4768,0.7434,0.693,0.5194,0.2501,0.2023,0.157,0.0238,0.0,0.0416,0.1662,0.2856,0.4065,0.5282,0.6428,0.8053,1.0351,1.0611,1.1563,1.3913,1.2984,1.1835,1.085,0.9838,0.8824,0.7856,0.7911,0.7988,0.7988,0.7988,0.7988,0.7988,0.7988,0.7988,0.7988,0.7988,0.6526,0.4016,0.3966,0.2464,0.0,0.0,0.0,0.0,0.0,0.0,0.0,0.0,0.0,0.0,0.0,0.0,0.0,0.0,0.0,0.0,0.0,0.0,0.0,0.0,0.0,0.0,0.0,0.0,0.0,0.0,0.0,0.0,-1.7945,-1.8377,-1.8617,-1.8911,-1.9011,-1.9112,-1.9232,-1.9232,-1.8991,-1.849,-1.849,-1.7828,-1.6465,-1.5412,-1.4786,-1.4604,-1.5074,-1.5809,-1.6697,-1.7274,-1.7399,-1.7126,-1.6218,-1.5887,-1.602,0.0,0.0,0.0,0.0,0.0,0.0,0.0,0.0,0.0,0.0,0.0,-1.8668,-1.8403,-1.7616,-1.6378,-1.4304,-1.1509,-0.8406,-0.5212,0.0,0.0,0.0,0.4718,0.0,0.0,0.6835,0.5369,0.3709,0.2542,0.1466,0.0186,0.0733,0.1671,0.2886,0.41,0.5305,0.6476,0.7661,0.8973,1.0438,1.1343,1.2425,1.3997,1.2254,1.1079,1.1015,0.9183,0.8043,0.7963,0.7968,0.7988,0.7988,0.7988,0.7988,0.7988,0.7988,0.7988,0.7988,0.7033,0.5625,0.3966,0.3015,0.1611,0.0,0.0,0.0,0.0,0.0,0.0,0.0,0.0,0.0,0.0,0.0,0.0,0.0,0.0,0.0,0.0,0.0,0.0,0.0,0.0,0.0,0.0,0.0,0.0,0.0,0.0,0.0,0.0,0.0,-1.843,-1.8738,-1.8918,-1.9038,-1.9185,-1.9424,-1.9424,-1.9192,-1.8838,-1.8838,-1.7812,-1.574,-1.4801,-1.376,-1.2693,-1.3347,-1.406,-1.4777,-1.547,-1.5676,-1.5361,-1.4688,-1.4381,-1.4518,0.0,0.0,0.0,0.0,0.0,0.0,0.0,0.0,0.0,0.0,0.0,0.0,-1.8871,-1.7426,-1.5641,-1.3825,-1.0537,-0.7021,-0.483,-0.1743,0.1518,0.4173,0.5824,0.7033,0.7839,0.6863,0.5477,0.4249,0.2847,0.1453,0.0183,0.0994,0.2236,0.3436,0.4641,0.598,0.7617,0.8452,0.9536,1.1128,1.1895,1.2589,1.3336,1.2077,1.0981,1.035,0.8962,0.8081,0.7858,0.7865,0.7865,0.7865,0.787,0.7897,0.7901,0.7961,0.7988,0.7939,0.6631,0.5272,0.3915,0.2013,0.0756,0.0,0.0,0.0,0.0,0.0,0.0,0.0,0.0,0.0,0.0,0.0,0.0,0.0,0.0,0.0,0.0,0.0,0.0,0.0,0.0,0.0,0.0,0.0,0.0,0.0,0.0,0.0,0.0,0.0,-1.8582,-1.8965,-1.8965,-1.9225,-1.9424,-1.9424,-1.9424,-1.9424,-1.9424,-1.9249,-1.7636,-1.4604,-1.4426,-1.2753,-0.9879,-1.1483,-1.2082,-1.208,-1.3514,-1.3954,-1.365,-1.3841,-1.3882,-1.379,-1.4208,0.0,0.0,0.0,0.0,0.0,0.0,0.0,0.0,0.0,-1.9327,-1.9112,-1.8556,-1.6843,-1.4885,-1.3148,-0.944,-0.5736,-0.4403,-0.1019,0.2721,0.5397,0.6933,0.7836,0.7822,0.6859,0.5521,0.4085,0.2798,0.1557,0.0225,0.1121,0.2325,0.3436,0.473,0.6375,0.8627,0.8978,0.9923,1.2109,1.2413,1.2413,1.2328,1.22,1.1267,0.9184,0.9021,0.852,0.7641,0.76,0.76,0.76,0.774,0.7811,0.7814,0.7917,0.7939,0.7786,0.6429,0.5022,0.3515,0.1058,0.0,0.0,0.0,0.0,0.0,0.0,0.0,0.0,0.0,0.0,0.0,0.0,0.0,0.0,0.0,0.0,0.0,0.0,0.0,0.0,0.0,0.0,0.0,0.0,0.0,0.0,0.0,0.0,0.0,0.0,-1.8945,-1.9272,-1.9272,-1.9332,-1.9424,-1.9424,-1.9424,-1.9424,-1.9424,-1.8104,-1.6497,-1.4545,-1.3287,-1.1675,-0.9876,-1.1347,-1.1887,-1.1648,-1.1955,-1.1316,-1.0046,-1.0326,-0.975,-0.8949,-1.1661,-1.3083,0.0,0.0,0.0,0.0,0.0,0.0,0.0,-1.9497,-1.8672,-1.7749,-1.7428,-1.498,-1.233,-1.2073,-0.9269,0.0,-0.4721,-0.1183,0.2679,0.5381,0.6229,0.6454,0.6407,0.6096,0.5124,0.2843,0.2101,0.1441,0.018,0.179,0.3303,0.357,0.5398,0.7265,0.8715,0.971,1.0783,1.2157,1.316,1.3336,1.237,1.1466,1.044,0.9189,0.8265,0.771,0.7594,0.76,0.76,0.76,0.774,0.7811,0.7814,0.7917,0.7437,0.6381,0.502,0.3116,0.0807,0.0252,0.0,0.0,0.0,0.0,0.0,0.0,0.0,0.0,0.0,0.0,0.0,0.0,0.0,0.0,0.0,0.0,0.0,0.0,0.0,0.0,0.0,0.0,0.0,0.0,0.0,0.0,0.0,0.0,0.0,0.0,0.0,-1.9158,-1.9158,-1.9292,-1.9424,-1.9424,-1.9424,-1.9432,-1.9573,-1.7097,-1.5429,-1.4545,-1.2933,-1.1318,-0.9812,-1.055,-1.0735,-1.0509,-1.0451,-0.9412,-0.7894,-0.8114,-0.7769,-0.7308,-0.9163,-1.0929,-1.2587,-1.4157,0.0,0.0,0.0,0.0,0.0,0.0,0.0,-1.6041,-1.5565,-1.3628,-1.1594,-1.1312,0.0,0.0,-0.3946,0.0,0.1556,0.3616,0.457,0.4845,0.4215,0.452,0.4352,0.2346,0.1418,0.0715,0.0089,0.194,0.3476,0.3564,0.5583,0.7668,0.9479,1.0226,1.1257,1.2984,1.3203,1.2772,1.1558,1.0438,0.9314,0.818,0.7568,0.7299,0.7377,0.738,0.738,0.738,0.76,0.7675,0.7604,0.7899,0.698,0.502,0.3667,0.1913,0.0,0.0,0.0,0.0,0.0,0.0,0.0,0.0,0.0,0.0,0.0,0.0,0.0,0.0,0.0,0.0,0.0,0.0,0.0,0.0,0.0,0.0,0.0,0.0,0.0,0.0,0.0,0.0,0.0,0.0,0.0,0.0,0.0,0.0,-1.8925,-1.9205,-1.9424,-1.9424,-1.9424,-1.9506,-1.98,-1.6326,-1.4624,-1.466,-1.2706,-1.108,-0.9815,-0.9646,-0.95,-0.9371,-0.896,-0.7799,-0.6329,-0.6452,-0.6615,-0.6765,-0.7251,-0.9243,-1.1796,-1.2093,-1.3053,-1.4242,0.0,0.0,0.0,0.0,0.0,-1.4319,-1.363,-1.2453,-1.1228,-1.0613,0.0,-0.608,-0.3556,-0.1633,0.0,0.1357,0.2712,0.335,0.2218,0.2896,0.3228,0.1895,0.0736,0.0,0.0,0.187,0.3381,0.3568,0.5508,0.783,1.0326,1.0611,1.1434,1.3561,1.2899,1.1766,1.0394,0.9449,0.8364,0.7183,0.7095,0.7095,0.7095,0.7095,0.7095,0.7095,0.7421,0.7509,0.7414,0.7592,0.6376,0.3966,0.2614,0.126,0.0,0.0,0.0,0.0,0.0,0.0,0.0,0.0,0.0,0.0,0.0,0.0,0.0,0.0,0.0,0.0,0.0,0.0,0.0,0.0,0.0,0.0,0.0,0.0,0.0,0.0,0.0,0.0,0.0,0.0,0.0,0.0,0.0,0.0,-1.8925,-1.9205,-1.9424,-1.9424,-1.9424,-1.9506,-1.98,-1.6326,-1.47,-1.4882,-1.1627,-1.0001,-0.9808,-0.9534,-0.9401,-0.9303,-0.772,-0.6163,-0.4778,-0.4922,-0.5048,-0.5367,-0.6856,-0.8523,-1.0301,-1.1679,-1.2337,-1.2753,-1.4128,-1.4746,0.0,0.0,0.0,-1.2804,-1.2504,-1.1157,-0.9711,0.0,0.0,-0.6429,0.0,-0.3811,-0.1407,0.0,0.1305,0.2211,0.2056,0.2146,0.1847,0.0512,0.0137,0.0,0.0,0.1888,0.3441,0.3592,0.5515,0.783,1.0326,1.0611,1.1123,1.2413,1.237,1.1423,0.9279,0.8978,0.8364,0.7183,0.7095,0.7095,0.7095,0.7095,0.7095,0.7095,0.7316,0.7458,0.7573,0.6703,0.5475,0.3966,0.2614,0.126,0.0,0.0,0.0,0.0,0.0,0.0,0.0,0.0,0.0,0.0,0.0,0.0,0.0,0.0,0.0,0.0,0.0,0.0,0.0,0.0,0.0,0.0,0.0,0.0,0.0,0.0,0.0,0.0,0.0,0.0,0.0,0.0,0.0,0.0,-1.8684,-1.9125,-1.9424,-1.9424,-1.9424,-1.9593,-2.004,-1.6393,-1.4836,-1.5171,-1.1504,-0.9822,-0.9808,-0.9513,-0.891,-0.8069,-0.7078,-0.5334,-0.3234,-0.328,-0.3414,-0.3713,-0.5278,-0.6938,-0.8682,-1.0196,-1.0763,-1.0959,-1.1675,-1.2036,-1.2155,-1.1974,0.0,0.0,0.0,-1.0265,-0.9591,-0.9429,-0.8608,-0.7514,0.0,-0.4799,-0.2763,-0.1406,-0.0101,0.0857,0.0857,0.0888,0.0676,0.0096,0.0,0.0,0.0,0.1892,0.3431,0.3594,0.5486,0.7576,0.9426,0.9666,1.0096,1.1252,1.0783,0.9966,0.8978,0.8277,0.7665,0.7139,0.7095,0.7095,0.7095,0.7095,0.7136,0.7268,0.7421,0.7614,0.7796,0.7247,0.5963,0.3966,0.3366,0.1962,0.0,0.0,0.0,0.0,0.0,0.0,0.0,0.0,0.0,0.0,0.0,0.0,0.0,0.0,0.0,0.0,0.0,0.0,0.0,0.0,0.0,0.0,0.0,0.0,0.0,0.0,0.0,0.0,0.0,0.0,0.0,0.0,0.0,0.0,-1.849,-1.8985,-1.9292,-1.9424,-1.9424,-1.9619,-2.0127,-1.6416,-1.4861,-1.5294,-1.1581,-0.9822,-0.9808,-0.9513,-0.8555,-0.7074,-0.64,-0.4611,-0.2163,-0.1766,-0.1994,-0.2623,-0.3748,-0.5211,-0.6905,-0.802,-0.8482,-0.8567,-0.854,-0.8641,-0.8673,-0.8575,-0.894,0.0,0.0,0.0,0.0,0.0,0.0,-0.8408,-0.7284,-0.5467,-0.3715,-0.2715,-0.1209,0.0,0.0,0.0,-0.0099,-0.0445,-0.0239,0.0,0.0,0.1647,0.3105,0.3519,0.5229,0.7056,0.8694,0.889,0.9235,1.0096,0.9405,0.8759,0.8452,0.7621,0.7095,0.7095,0.7095,0.7095,0.7095,0.7132,0.7255,0.7415,0.756,0.7763,0.7931,0.756,0.6189,0.3966,0.3667,0.2213,0.0,0.0,0.0,0.0,0.0,0.0,0.0,0.0,0.0,0.0,0.0,0.0,0.0,0.0,0.0,0.0,0.0,0.0,0.0,0.0,0.0,0.0,0.0,0.0,0.0,-1.2009,-1.0448,-1.0636,-1.3648,-1.3548,0.0,0.0,0.0,0.0,-1.8477,-1.8784,0.0,-1.9417,-1.9424,-1.9512,-1.982,-1.6332,-1.472,-1.4943,-1.1461,-0.9822,-0.9808,-0.9513,-0.8555,-0.7016,-0.5326,-0.3689,-0.2071,-0.0673,-0.1065,-0.2519,-0.2576,-0.3639,-0.5046,-0.5131,-0.5165,-0.518,-0.5144,-0.5167,-0.5174,-0.517,-0.6252,-0.7551,0.0,0.0,0.0,0.0,-0.8947,0.0,-0.843,-0.6187,-0.3966,-0.3915,-0.1862,0.0,0.0,0.0,-0.0403,-0.1659,-0.0878,0.0,0.0,0.0964,0.2158,0.3433,0.4522,0.6134,0.8603,0.889,0.8934,0.8978,0.8934,0.8408,0.7272,0.7139,0.7095,0.7095,0.7095,0.7095,0.7095,0.7282,0.7409,0.7415,0.7655,0.7807,0.7776,0.6668,0.5368,0.3966,0.2665,0.131,0.0,0.0,0.0,0.0,0.0,0.0,0.0,0.0,0.0,0.0,0.0,0.0,0.0,0.0,0.0,0.0,0.0,0.0,0.0,0.0,0.0,0.0,0.0,0.0,0.0,0.0,-0.9817,-1.0239,-1.2346,-1.4042,0.0,0.0,0.0,0.0,-1.7092,-1.8244,-1.9065,-1.9417,-1.9424,-1.9506,-1.98,-1.6326,-1.4715,-1.4923,-1.1457,-0.9771,-0.9676,-0.9473,-0.8029,-0.5614,-0.4816,-0.2513,0.0614,0.0166,0.0219,0.0325,-0.157,-0.2761,-0.347,-0.4405,-0.4832,-0.4925,-0.4897,-0.4877,-0.4924,-0.4924,-0.5339,-0.6006,-0.6916,-0.8339,0.0,0.0,0.0,0.0,-0.8676,-0.6349,-0.414,-0.414,-0.1979,0.0,0.0,0.0,-0.0151,-0.0605,-0.0346,-0.0291,-0.1163,0.0426,0.2193,0.3518,0.463,0.5958,0.7725,0.7819,0.7753,0.7753,0.7753,0.7577,0.7139,0.7095,0.7095,0.7095,0.7095,0.7095,0.7095,0.7292,0.7461,0.7651,0.7855,0.7907,0.7907,0.6611,0.5275,0.3966,0.2614,0.126,0.0,0.0,0.0,0.0,0.0,0.0,0.0,0.0,0.0,0.0,0.0,0.0,0.0,0.0,0.0,0.0,0.0,0.0,0.0,0.0,0.0,0.0,-1.1383,0.0,0.0,0.0,0.0,-0.9906,-1.1429,-1.4125,-1.5653,-1.5429,-1.6942,-1.7603,-1.7086,-1.8147,-1.8965,-1.9417,-1.9424,-1.9459,-1.9659,-1.6287,-1.4675,-1.4816,-1.1368,-0.9744,-0.9602,-0.9449,-0.7713,-0.476,-0.4064,-0.1449,0.2175,0.1639,0.1726,0.2036,0.0528,-0.0423,-0.1011,-0.1502,-0.1748,-0.1894,-0.2398,-0.2558,-0.2677,-0.3104,-0.3988,-0.5132,-0.6629,-0.8302,-0.9534,-0.9292,0.0,0.0,0.0,-0.6815,-0.4844,-0.4325,-0.2418,-0.0611,-0.0102,0.0,-0.0151,-0.0605,-0.0649,-0.094,-0.1877,-0.0195,0.1489,0.2347,0.3861,0.5337,0.6594,0.7008,0.7217,0.7217,0.7217,0.7217,0.7217,0.7217,0.7149,0.7098,0.7095,0.7142,0.7247,0.7394,0.759,0.7885,0.7938,0.7988,0.7988,0.6176,0.487,0.3915,0.2163,0.0857,0.0,0.0,0.0,0.0,0.0,0.0,0.0,0.0,0.0,0.0,0.0,0.0,0.0,0.0,0.0,0.0,0.0,0.0,0.0,0.0,0.0,-0.9381,-0.9381,0.0,0.0,0.0,0.0,0.0,-1.1013,-1.3642,-1.5257,-1.5257,-1.6658,-1.7742,-1.8291,0.0,0.0,-1.9294,-1.9307,-1.9366,-1.9424,-1.6208,-1.4604,-1.4545,-1.1314,-0.9737,-0.9595,-0.9384,-0.7602,-0.4567,-0.2912,-0.0445,0.2396,0.3661,0.3435,0.2444,0.3717,0.3394,0.244,0.3708,0.4184,0.3976,0.2547,0.2044,0.1753,0.0447,-0.2118,-0.4924,-0.6499,-0.7936,-0.9101,0.0,0.0,0.0,-0.8669,-0.7579,-0.6102,-0.4567,-0.3196,-0.1761,-0.0311,-0.0051,-0.0454,-0.1763,-0.2066,-0.2066,-0.2116,-0.0993,-0.0147,-0.0244,0.2017,0.4103,0.5179,0.6502,0.7331,0.7331,0.7377,0.7426,0.7426,0.7426,0.7312,0.7115,0.7109,0.7247,0.7597,0.7607,0.7746,0.7985,0.7988,0.7988,0.7988,0.5268,0.4016,0.3915,0.1209,0.0,0.0,0.0,0.0,0.0,0.0,0.0,0.0,0.0,0.0,0.0,0.0,0.0,0.0,0.0,0.0,0.0,0.0,0.0,0.0,-0.9931,-0.9566,-0.9381,0.0,0.0,0.0,-0.9214,-0.9059,-0.9529,-1.1004,-1.181,-1.2295,-1.2295,-1.3696,-1.4233,-1.3695,-1.4616,-1.5926,-1.7612,-1.7683,-1.8221,-1.9424,-1.6208,-1.4604,-1.454,-1.1196,-0.9588,-0.938,-0.8178,-0.6448,-0.4441,-0.2843,0.0167,0.3904,0.4256,0.4788,0.5222,0.4479,0.3904,0.357,0.3926,0.4061,0.4005,0.3589,0.2788,0.1789,0.0403,-0.1459,-0.3162,-0.3469,-0.4747,-0.6025,-0.5827,0.0,0.0,0.0,0.0,0.0,-0.4884,-0.3358,-0.1761,-0.0311,-0.0826,-0.1695,-0.2054,-0.306,-0.4129,-0.512,-0.3918,-0.259,-0.1639,-0.0098,0.1399,0.2634,0.4733,0.6112,0.6112,0.6967,0.7536,0.7536,0.7536,0.7519,0.7475,0.7472,0.756,0.7746,0.7753,0.7845,0.7988,0.7988,0.7988,0.7988,0.5268,0.4016,0.3915,0.1209,0.0,0.0,0.0,0.0,0.0,0.0,0.0,0.0,0.0,0.0,0.0,0.0,0.0,0.0,0.0,0.0,0.0,0.0,0.0,-0.9999,-0.9171,-0.914,-0.8967,0.0,0.0,0.0,-0.8155,-0.8595,-0.9265,-1.0131,-1.0726,-1.1105,-1.1105,-1.2538,-1.3176,-1.2675,-1.3561,-1.4635,-1.5956,-1.6668,-1.7149,-1.7396,-1.5494,-1.4247,-1.3526,-1.0856,-0.9527,-0.9316,-0.7661,-0.6007,-0.4301,-0.1557,0.1502,0.4517,0.5058,0.575,0.6467,0.6046,0.5511,0.5029,0.5602,0.5778,0.5672,0.5065,0.3565,0.1853,0.1064,-0.0624,-0.2332,-0.2253,-0.3407,-0.4688,-0.4566,-0.5202,-0.5888,-0.5888,0.0,0.0,-0.4956,-0.4342,-0.3647,-0.217,-0.2577,-0.3137,-0.3137,-0.4372,-0.5567,-0.6361,-0.6145,-0.5373,-0.4004,-0.2206,-0.0742,0.0049,0.2453,0.4019,0.4019,0.5227,0.6005,0.6005,0.6533,0.7086,0.7557,0.76,0.7665,0.7807,0.7811,0.7885,0.7988,0.7988,0.7988,0.7988,0.5268,0.4016,0.3915,0.1209,0.0,0.0,0.0,0.0,0.0,0.0,0.0,0.0,0.0,0.0,0.0,0.0,0.0,0.0,0.0,0.0,0.0,0.0,-0.8885,-0.8885,-0.8885,-0.8771,-0.8208,0.0,-0.6533,-0.6533,-0.67,-0.7873,-0.8716,-0.8881,-1.0076,-1.0836,-1.0836,-1.2197,-1.3112,-1.3377,-1.3586,-1.3859,-1.4321,-1.5709,-1.5843,-1.4604,-1.4421,-1.3577,-1.2119,-1.0417,-0.9441,-0.9055,0.0,0.0,-0.3965,0.0389,0.306,0.4613,0.5976,0.6645,0.6813,0.7904,0.7553,0.6623,0.7824,0.8245,0.8021,0.6533,0.4331,0.2179,0.2061,0.0161,-0.196,-0.196,-0.2917,-0.4001,-0.3994,-0.4137,-0.4249,-0.4257,-0.5369,0.0,-0.4637,-0.5393,-0.602,-0.4552,-0.4493,-0.4706,-0.4706,-0.5824,-0.6732,-0.6732,-0.775,-0.8135,-0.6944,-0.4525,-0.289,-0.2902,-0.039,0.1463,0.1568,0.2799,0.3638,0.3787,0.5052,0.6273,0.7367,0.7553,0.7706,0.7831,0.7834,0.7902,0.7988,0.7988,0.7988,0.7988,0.5268,0.4016,0.3915,0.1209,0.0,0.0,0.0,0.0,0.0,0.0,0.0,0.0,0.0,0.0,0.0,0.0,0.0,0.0,0.0,0.0,0.0,0.0,0.0,-0.8885,-0.8885,-0.7875,-0.7035,-0.6758,-0.5641,-0.5363,-0.6589,-0.698,-0.7595,-0.8771,-0.9154,-0.9316,-0.9316,-0.9621,-0.9872,-1.0085,-1.0252,-1.0992,-1.2451,-1.2903,-1.3646,-1.4604,-1.3287,-1.2431,-1.198,-1.0244,-0.8698,-0.729,-0.5708,-0.4089,-0.2458,0.0837,0.2991,0.4484,0.7166,0.8178,0.8134,0.823,0.8055,0.7714,0.7942,0.8085,0.7845,0.6449,0.4943,0.342,0.2324,0.0907,-0.0429,-0.0429,-0.0651,-0.0879,-0.0876,-0.1768,-0.2691,-0.2842,-0.3895,0.0,-0.3186,-0.3817,-0.4247,-0.2777,-0.4318,-0.5963,-0.5963,-0.7136,-0.8108,-0.8108,-0.8425,-0.8924,-0.9732,-0.8224,-0.7088,-0.7343,-0.372,-0.0801,0.0104,0.1385,0.2697,0.388,0.519,0.6088,0.6314,0.7356,0.7917,0.7944,0.7944,0.7961,0.7988,0.7988,0.7988,0.7988,0.5268,0.4016,0.3915,0.1209,0.0,0.0,0.0,0.0,0.0,0.0,0.0,0.0,0.0,0.0,0.0,0.0,0.0,0.0,0.0,0.0,0.0,0.0,0.0,-0.8657,-0.7931,-0.7149,-0.6142,-0.4634,-0.3798,-0.3631,-0.4355,-0.5762,-0.6916,-0.7756,-0.8423,-0.8804,-0.8878,-0.9008,-0.9079,-0.9207,-0.9357,-0.9815,-1.0701,-1.1544,-1.2001,-1.2001,-1.2001,-1.1544,-1.0701,-0.9734,-0.8435,-0.683,-0.5214,-0.3223,-0.0882,0.2058,0.4148,0.5491,0.6899,0.7868,0.836,0.8211,0.8106,0.7988,0.7988,0.7988,0.7902,0.7211,0.6111,0.4751,0.3436,0.2097,0.0841,0.021,0.0,0.0,0.0,-0.055,-0.1121,-0.1244,-0.2307,0.0,0.0,-0.3376,-0.4119,-0.3416,-0.4918,-0.638,-0.638,-0.7534,-0.8482,-0.8482,-0.8611,-0.9183,-1.0516,-0.9391,-0.8452,-0.8553,-0.5963,-0.3978,-0.3377,-0.2148,-0.0417,0.1723,0.3128,0.4519,0.5911,0.7272,0.7988,0.7988,0.7988,0.7988,0.7988,0.7988,0.7988,0.7988,0.5268,0.4016,0.3915,0.1209,0.0,0.0,0.0,0.0,0.0,0.0,0.0,0.0,0.0,0.0,0.0,0.0,0.0,0.0,0.0,0.0,0.0,0.0,0.0,0.0,0.0,-0.6463,-0.5192,-0.218,-0.1785,-0.1892,-0.217,-0.4269,-0.5827,-0.6241,-0.7262,-0.8075,-0.8439,-0.8608,-0.8841,-0.9069,-0.9299,-0.9337,-0.9337,-1.0713,-1.0748,-0.9425,-1.0748,-1.0713,-0.9334,-0.8923,-0.7933,-0.6357,-0.4505,-0.2148,0.0599,0.3589,0.5492,0.6406,0.6653,0.7345,0.8252,0.8099,0.7988,0.7988,0.7988,0.7988,0.7988,0.7988,0.7132,0.5792,0.4702,0.3441,0.2161,0.1082,0.0794,0.0759,0.0481,0.0383,0.0336,0.0056,-0.0896,-0.1782,0.0,0.0,0.0,-0.3995,-0.5303,-0.6458,-0.6385,-0.7543,-0.8431,-0.8401,-0.8526,-0.9001,-1.0103,-0.9326,-0.8769,-0.8955,-0.7744,-0.6804,-0.661,-0.5367,-0.3585,-0.1229,0.0471,0.263,0.5473,0.6875,0.7716,0.7992,0.7988,0.7988,0.7988,0.7988,0.7988,0.7988,0.5268,0.4016,0.3915,0.1209,0.0,0.0,0.0,0.0,0.0,0.0,0.0,0.0,0.0,0.0,0.0,0.0,0.0,0.0,-0.8428,-0.8496,0.0,0.0,0.0,0.0,0.0,0.0,-0.3689,-0.0672,-0.0277,-0.0768,-0.208,-0.2477,-0.3252,-0.4642,-0.49,-0.5521,-0.6872,-0.6945,-0.75,-0.8706,-0.9028,-0.9234,-0.9234,-0.9617,-0.9759,-0.9585,-0.9759,-0.9617,-0.9178,-0.7783,-0.6294,-0.4634,-0.192,0.0218,0.1963,0.5017,0.6214,0.6192,0.7645,0.829,0.8252,0.8099,0.7988,0.7988,0.7988,0.7988,0.7988,0.7988,0.7132,0.5982,0.5842,0.4836,0.3728,0.3577,0.3621,0.3459,0.2127,0.1853,0.1622,0.0336,-0.0112,-0.0223,-0.0275,0.0,-0.228,-0.2293,0.0,-0.6278,-0.6078,0.0,0.0,-0.8062,-0.8221,-0.8416,-0.8549,-0.8639,-0.918,-1.0478,-0.9208,-0.7849,-0.6942,-0.5539,-0.4548,-0.4215,-0.1558,0.1257,0.408,0.5513,0.6797,0.7945,0.7988,0.7988,0.7988,0.7988,0.7988,0.7988,0.5268,0.4016,0.3915,0.1209,0.0,0.0,0.0,0.0,0.0,0.0,0.0,0.0,0.0,0.0,0.0,0.0,0.0,0.0,-0.8319,-0.836,0.0,0.0,0.0,0.0,0.0,0.0,-0.1414,-0.0163,0.0,-0.0216,-0.0862,-0.1641,-0.2364,-0.3077,-0.389,-0.4631,-0.5356,-0.5416,-0.5687,-0.6241,-0.7287,-0.7866,-0.7884,-0.8939,-0.9435,-0.9344,-0.9344,-0.9235,-0.8972,-0.75,-0.5984,-0.4349,-0.1472,0.1081,0.3437,0.5582,0.6828,0.7401,0.8161,0.8343,0.813,0.8015,0.7988,0.7988,0.7988,0.7988,0.7975,0.7887,0.7566,0.7021,0.615,0.5575,0.502,0.4218,0.4041,0.3977,0.344,0.2703,0.1934,0.1395,0.0616,0.0,0.0,-0.0434,-0.0814,-0.0844,0.0,0.0,0.0,0.0,0.0,0.0,-0.835,-0.8364,-0.8333,-0.8523,-0.8595,-0.8357,-0.8541,-0.8529,-0.8106,-0.7629,-0.6931,-0.5919,-0.3156,-0.0266,0.2562,0.4822,0.6607,0.7945,0.7988,0.7988,0.7988,0.7988,0.7988,0.7988,0.5268,0.4016,0.3915,0.1209,0.0,0.0,0.0,0.0,0.0,0.0,0.0,0.0,0.0,0.0,0.0,0.0,0.0,0.0,-0.7725,0.0,0.0,0.0,0.0,0.0,0.0,-0.1589,0.0106,0.0479,0.0531,0.0687,0.1057,-0.0104,-0.0929,-0.1046,-0.2274,-0.3256,-0.3842,-0.3857,-0.4018,-0.4377,-0.5605,-0.6441,-0.6834,-0.8054,-0.8858,-0.921,-0.921,-0.9079,-0.8881,-0.698,-0.555,-0.4332,-0.0704,0.2143,0.4245,0.6204,0.7488,0.8221,0.8367,0.847,0.8528,0.8528,0.8528,0.8524,0.8526,0.8269,0.7904,0.7804,0.7851,0.776,0.6669,0.6432,0.6379,0.537,0.5137,0.5124,0.4773,0.3948,0.3039,0.2309,0.1325,0.044,0.0108,0.0,0.0,0.0,-0.1119,0.0,0.0,0.0,-0.6714,-0.7744,0.0,-0.8445,-0.8395,-0.8226,-0.766,-0.6593,-0.7578,-0.8546,-0.8942,-0.9093,-0.8536,-0.6862,-0.4471,-0.1788,0.1117,0.3949,0.6132,0.75,0.7868,0.8102,0.8102,0.8012,0.7839,0.7434,0.512,0.3815,0.3364,0.1058,0.0,0.0,0.0,0.0,0.0,0.0,0.0,0.0,0.0,0.0,0.0,0.0,0.0,0.0,-0.6334,-0.7298,-0.7949,-0.6763,-0.6519,0.0,-0.271,-0.0997,0.047,0.175,0.1937,0.2432,0.3721,0.2696,0.1864,0.1865,0.0656,-0.0763,-0.2173,-0.2265,-0.2849,-0.4145,-0.4463,-0.5271,-0.666,-0.687,-0.7723,-0.921,-0.921,-0.9079,-0.8826,-0.5919,-0.4526,-0.4236,0.1345,0.3926,0.4184,0.7033,0.8143,0.8012,0.8214,0.8981,0.9948,0.9948,0.9948,0.9927,0.979,0.8916,0.7797,0.7655,0.7699,0.7818,0.7762,0.7818,0.7939,0.7889,0.7995,0.7856,0.6357,0.6073,0.5516,0.2713,0.197,0.1605,0.0272,0.0,0.0,0.0,-0.1159,-0.2181,-0.2072,-0.4515,-0.6488,-0.6376,-0.7577,0.0,0.0,-0.7372,-0.6488,-0.6323,-0.6709,-0.7539,-0.903,-0.9207,-0.8574,-0.7026,-0.535,-0.3154,-0.0272,0.2661,0.4905,0.6298,0.7601,0.8313,0.8313,0.8113,0.7335,0.6029,0.467,0.3316,0.2013,0.0656,0.0,0.0,0.0,0.0,0.0,0.0,0.0,0.0,0.0,0.0,0.0,0.0,0.0,0.0,0.0,0.0,-0.533,-0.4904,-0.4094,-0.261,0.0154,0.102,0.1782,0.3172,0.3308,0.3484,0.3839,0.3554,0.3299,0.3212,0.2049,0.1111,0.0609,-0.0259,-0.0944,-0.1424,-0.2573,-0.3417,-0.3885,-0.5979,-0.7227,-0.7661,-0.8691,-0.8623,0.0,-0.5419,-0.3946,-0.2747,0.1928,0.4003,0.4165,0.7093,0.8679,0.932,0.9379,1.0151,1.1268,1.1268,1.1268,1.1234,1.1015,1.0654,1.0082,0.8944,0.8687,0.8832,0.8918,0.8427,0.8052,0.9034,0.8766,0.8039,0.7623,0.6847,0.5905,0.5073,0.4083,0.2968,0.1636,0.1337,0.1083,0.0163,-0.0385,-0.1055,-0.1941,-0.2991,-0.4309,-0.626,-0.6032,-0.5985,0.0,-0.5093,-0.429,-0.6449,-0.5982,-0.6377,-0.8795,-0.9096,-0.8941,-0.8283,-0.5938,-0.3711,-0.1845,0.2063,0.4859,0.6255,0.6744,0.6989,0.6989,0.5882,0.5112,0.4653,0.3335,0.2414,0.1962,0.0605,0.0,0.0,0.0,0.0,0.0,0.0,0.0,0.0,0.0,0.0,0.0,0.0,0.0,0.0,-0.3366,-0.3265,-0.3265,-0.3265,-0.2163,-0.0554,0.166,0.2013,0.2665,0.447,0.469,0.48,0.5183,0.4808,0.4567,0.4497,0.3361,0.2646,0.2714,0.1435,0.0727,0.0731,-0.0756,-0.1873,-0.2379,-0.4828,-0.6324,-0.6855,-0.832,-0.8242,0.0,0.0,0.0,-0.2017,0.2138,0.399,0.4179,0.7023,0.8875,1.0047,1.0485,1.1458,1.2624,1.2624,1.2624,1.2582,1.2209,1.1812,1.1228,1.0033,0.9719,0.9852,1.0099,0.9327,0.8609,0.9698,0.9069,0.8012,0.8163,0.7468,0.6615,0.6274,0.5462,0.4364,0.3001,0.2723,0.2497,0.1662,0.1088,0.0442,-0.0446,-0.1509,-0.2849,-0.4801,-0.4648,-0.446,0.0,-0.3321,-0.3096,-0.5787,-0.5284,-0.5847,-0.8746,-0.91,-0.9093,-0.8895,-0.6644,-0.4664,-0.3288,0.104,0.4148,0.5618,0.6119,0.6366,0.6366,0.4806,0.3768,0.3254,0.2436,0.1762,0.126,0.0404,0.0,0.0,0.0,0.0,0.0,0.0,0.0,0.0,0.0,0.0,0.0,0.0,0.0,0.0,-0.2163,-0.1861,-0.1761,-0.171,-0.0706,0.0555,0.1963,0.2213,0.3116,0.577,0.5974,0.6389,0.7646,0.6516,0.5728,0.5881,0.4683,0.3937,0.4105,0.286,0.2051,0.2015,0.0783,-0.058,-0.2071,-0.3418,-0.4866,-0.647,-0.7834,-0.7792,0.0,0.0,0.0,0.0,0.2085,0.3939,0.4169,0.6785,0.873,1.0096,1.1458,1.2764,1.3926,1.3926,1.3926,1.3951,1.3441,1.2524,1.1395,1.085,1.0757,1.094,1.1303,1.0548,0.9613,0.9992,0.9118,0.7988,0.7988,0.7988,0.7686,0.6431,0.6079,0.5754,0.4415,0.4121,0.4135,0.4193,0.3062,0.2149,0.2165,-0.0112,-0.2011,-0.218,-0.341,-0.3828,-0.2293,-0.2096,-0.2704,-0.4407,-0.4638,-0.5884,-0.888,-0.921,-0.9093,-0.8895,-0.7537,-0.6033,-0.4582,-0.0334,0.2785,0.4359,0.5615,0.6278,0.6273,0.4641,0.3162,0.1919,0.1882,0.121,0.0,0.0051,0.0101,0.0101,0.0103,0.0105,0.0107,0.0054,0.0,0.0,0.0,0.0,0.0,0.0,0.0,0.0,-0.0605,0.0302,0.1307,0.2309,0.191,0.2265,0.4622,0.4974,0.5546,0.7143,0.7294,0.734,0.7509,0.7266,0.7045,0.6975,0.5955,0.5285,0.5359,0.4153,0.303,0.2063,0.1647,0.0833,-0.0519,-0.2002,-0.2928,-0.3368,-0.487,-0.4804,-0.3348,0.0,0.0,0.0,0.1566,0.3064,0.4097,0.5821,0.7868,1.019,1.2474,1.3584,1.3926,1.3926,1.4513,1.5218,1.4702,1.4315,1.3815,1.2374,1.2065,1.232,1.2626,1.1341,0.9944,1.1055,0.9801,0.7988,0.7988,0.7988,0.7939,0.7587,0.7487,0.7141,0.5811,0.5503,0.5199,0.4228,0.3837,0.331,0.2247,0.1497,0.0335,-0.1844,-0.2542,-0.2244,-0.0771,-0.0538,-0.1202,-0.2855,-0.4029,-0.5898,-0.889,-0.921,-0.9093,-0.8895,-0.7537,-0.6033,-0.4582,-0.1295,0.1241,0.2739,0.3134,0.3321,0.328,0.1774,0.0873,0.0539,0.0523,0.0358,0.0051,0.1125,0.1645,0.1647,0.1625,0.1655,0.1574,0.0437,0.0,0.0,0.0,0.0,0.0,0.0,0.0,0.0,0.0857,0.1962,0.3316,0.462,0.427,0.4271,0.5779,0.5979,0.6437,0.7634,0.7756,0.7631,0.7443,0.7387,0.739,0.7419,0.692,0.663,0.6683,0.5565,0.452,0.377,0.3199,0.2248,0.0922,-0.0516,-0.1561,-0.2207,-0.3632,-0.3624,-0.2184,0.0,0.0,0.0,0.0,0.2764,0.4218,0.7281,0.9428,1.1023,1.3054,1.4214,0.0,1.4118,1.4704,1.5772,1.5317,1.515,1.4967,1.3704,1.3474,1.3799,1.4087,1.2491,1.07,1.1637,1.0043,0.7988,0.7988,0.7988,0.7988,0.7988,0.7988,0.7789,0.7033,0.6888,0.6698,0.6028,0.5404,0.4589,0.3228,0.2515,0.1389,-0.0847,-0.1262,-0.0937,-0.012,0.0,-0.0611,-0.2276,-0.3236,-0.4672,-0.7015,-0.8442,-0.9176,-0.9039,-0.8187,-0.6758,-0.4637,-0.2262,0.0,0.2147,0.2187,0.2206,0.2201,0.0732,0.0,0.0,0.0,0.0,0.0051,0.1541,0.2224,0.2176,0.218,0.2217,0.2075,0.0606,0.0,0.0,0.0,0.0,0.0,0.0,0.0,0.0,0.2714,0.386,0.5161,0.6323,0.6512,0.6451,0.6258,0.6255,0.6605,0.7629,0.7645,0.7512,0.7356,0.7221,0.7149,0.7329,0.7499,0.7651,0.7777,0.6802,0.6179,0.6029,0.487,0.3616,0.2314,0.1103,-0.0101,-0.1391,-0.2566,-0.2611,0.0,0.0,0.0,0.0,0.0,0.2568,0.4329,0.9669,1.1896,1.2042,1.3536,1.48,1.5683,1.4555,1.4848,1.5744,1.5504,1.5398,1.5311,1.4763,1.4776,1.5109,1.5317,1.3614,1.1587,1.1841,1.0043,0.7988,0.7988,0.7988,0.7988,0.7988,0.7988,0.7988,0.7988,0.7988,0.8025,0.8211,0.722,0.5916,0.4689,0.3119,0.1545,0.0229,0.0,0.0,0.0,0.0,-0.0555,-0.2027,-0.2329,0.0,-0.4291,-0.7114,-0.888,-0.8897,-0.8897,-0.7601,-0.4651,-0.3232,-0.1144,0.184,0.1906,0.1919,0.1938,0.0621,0.0,0.0,0.0,0.0103,0.0304,0.1803,0.2595,0.2756,0.2588,0.2518,0.2357,0.0668,0.0,0.0,0.0,0.0,0.0,0.0,0.0,0.0,0.6498,0.7963,0.8947,0.9247,0.9231,0.875,0.765,0.7505,0.7462,0.7482,0.7428,0.7353,0.7152,0.7112,0.7105,0.7132,0.7438,0.7611,0.7634,0.7641,0.7132,0.6029,0.5777,0.5022,0.3665,0.3412,0.3165,0.2924,0.267,0.2129,0.0,0.0,0.0,0.0,0.0,0.1729,0.4358,0.9673,1.1896,1.2091,1.4513,1.5581,1.5784,1.554,1.5635,1.5744,1.5504,1.5398,1.5344,1.5003,1.5077,1.5331,1.5384,1.3744,1.1846,1.1886,1.0043,0.7988,0.7988,0.7988,0.7988,0.7988,0.7988,0.7988,0.7988,0.7988,0.7995,0.8025,0.7975,0.7446,0.5963,0.368,0.1545,0.0229,0.0,0.0,0.0,0.0,-0.0123,-0.0424,-0.1494,-0.2422,-0.2819,-0.5552,-0.7271,-0.7137,-0.8223,-0.7639,-0.4667,-0.422,-0.2743,0.0293,0.0361,0.0362,0.0412,0.0117,0.0,0.0,0.0,0.0578,0.1701,0.3354,0.4699,0.5709,0.4604,0.4118,0.3896,0.1118,0.0,0.0,0.0,0.0,0.0,0.0,0.0,0.0,0.9518,1.0542,1.09,1.0821,1.0249,0.9508,0.8621,0.7951,0.7533,0.7436,0.7415,0.7312,0.7112,0.7095,0.7095,0.7095,0.735,0.7482,0.7482,0.7756,0.7622,0.6978,0.6997,0.6429,0.5072,0.5022,0.472,0.4016,0.3989,0.3665,0.3049,0.3024,0.2711,0.2121,0.0,0.3853,0.5337,0.9953,1.1896,1.2145,1.4758,1.5784,1.5784,1.5784,1.5784,1.5764,1.5671,1.5618,1.5578,1.5284,1.5384,1.5618,1.5618,1.388,1.1896,1.1896,1.0043,0.7988,0.7988,0.7988,0.7988,0.7988,0.7988,0.7988,0.7988,0.7988,0.7988,0.7988,0.8099,0.7477,0.5374,0.2765,0.0768,0.0116,0.0,0.0,0.0,0.0,0.0,0.0,-0.0602,-0.1068,-0.1177,-0.3168,-0.4775,-0.562,-0.6247,-0.5635,-0.3417,-0.3329,-0.2298,-0.006,0.0,0.0,0.0,0.0,0.0,0.0,0.0,0.0749,0.2152,0.379,0.484,0.5437,0.4753,0.4024,0.3129,0.0896,0.0,0.0,0.0,0.0,0.0,0.0,0.0,0.0,1.1826,1.2453,1.2475,1.19,1.0839,0.9868,0.9199,0.8324,0.7636,0.7368,0.7322,0.7275,0.7109,0.7095,0.7095,0.7095,0.7282,0.7415,0.7415,0.7648,0.7907,0.8193,0.8347,0.8074,0.7263,0.6968,0.6318,0.5261,0.4989,0.472,0.4413,0.4413,0.4259,0.4051,0.5411,0.6176,0.667,1.032,1.2042,1.2528,1.4854,1.5784,1.5784,1.5784,1.5784,1.5784,1.5784,1.5784,1.5792,1.5565,1.5645,1.573,1.5486,1.3788,1.1848,1.156,0.985,0.7988,0.7988,0.7988,0.7988,0.7988,0.7988,0.7988,0.7988,0.7988,0.7988,0.7988,0.7988,0.7205,0.4506,0.2278,0.0652,0.0116,0.0,0.0,0.0,0.0,0.0,0.0,0.0,0.0,0.0,-0.1054,-0.229,-0.3578,-0.4171,-0.3824,-0.2299,-0.2184,-0.1545,-0.006,0.0,0.0,0.0,0.0,0.0,0.0,0.0,0.076,0.2193,0.3467,0.414,0.4416,0.4161,0.313,0.1622,0.0504,0.0,0.0,0.0,0.0,0.0,0.0,0.0,0.0,1.3285,1.4244,1.4587,1.31,1.1815,1.0542,0.9291,0.8888,0.8348,0.7248,0.7119,0.7112,0.7098,0.7095,0.7095,0.7095,0.7282,0.7415,0.7415,0.7648,0.8334,0.9571,0.975,1.0288,1.1307,1.0235,0.955,0.9448,0.8237,0.7001,0.5792,0.5792,0.5186,0.4076,0.5379,0.6667,0.7991,1.0756,1.2624,1.3824,1.5242,1.5784,1.5784,1.5784,1.5784,1.5784,1.5784,1.5784,1.5778,1.5751,1.5758,1.5581,1.4459,1.306,1.1653,1.0534,0.9167,0.7988,0.7988,0.7988,0.7988,0.7988,0.7988,0.7988,0.7988,0.7988,0.7988,0.7988,0.7988,0.7175,0.4484,0.3777,0.2848,0.0392,0.0,0.0,0.0,0.0,0.0,0.0,0.0,0.0,0.0,-0.0116,-0.0294,-0.0412,-0.2989,-0.383,-0.2278,-0.222,-0.1502,-0.006,0.0,0.0,0.0,0.0,0.0,0.0,0.0,0.071,0.2014,0.229,0.3052,0.4142,0.294,0.1566,0.0168,0.0056,0.0,0.0,0.0,0.0,0.0,0.0,0.0,0.0,1.422,1.4806,1.4902,1.4065,1.2924,1.1866,1.1146,1.0405,0.9749,0.927,0.9179,0.8925,0.8233,0.8189,0.7885,0.7183,0.7816,0.8298,0.8298,0.9104,0.9936,1.066,1.0815,1.1226,1.1896,1.1409,1.0779,0.9998,0.946,0.8524,0.7185,0.7185,0.7322,0.7601,0.8156,0.914,1.0458,1.2318,1.3392,1.4022,1.5289,1.5784,1.5784,1.5784,1.5784,1.5784,1.5784,1.5289,1.4657,1.4657,1.4657,1.4555,1.407,1.2469,1.0681,1.0145,0.9069,0.7988,0.7988,0.7988,0.7988,0.7988,0.7988,0.7988,0.7988,0.7988,0.7988,0.7988,0.7385,0.6213,0.4321,0.3356,0.2211,0.0283,0.0,0.0,0.0,0.0,0.0,0.0,0.0,0.0,0.0,0.0,0.0,0.0,-0.1111,-0.1545,-0.0915,-0.09,-0.0597,0.0,0.0,0.0,0.0,0.0,0.0,0.0,0.0,0.0721,0.2104,0.2159,0.249,0.2933,0.1506,0.056,0.0,0.0,0.0,0.0,0.0,0.0,0.0,0.0,0.0,0.0,1.471,1.4836,1.4736,1.4442,1.3405,1.2583,1.2357,1.1638,1.108,1.108,1.1429,1.1047,0.9579,0.9405,0.9056,0.8185,0.8925,0.9405,0.9405,1.0298,1.114,1.1822,1.1999,1.2373,1.3006,1.2673,1.2037,1.1165,1.073,1.0092,0.9167,0.9167,0.9653,1.0583,1.0583,1.1263,1.2571,1.3488,1.4118,1.4555,1.5439,1.5784,1.5784,1.5784,1.5581,1.5242,1.5242,1.4418,1.3295,1.3295,1.3054,1.2759,1.2759,1.1502,0.9899,0.9509,0.8726,0.7988,0.7988,0.7988,0.7988,0.7988,0.7988,0.7988,0.7988,0.7988,0.7988,0.7988,0.7235,0.6173,0.492,0.3524,0.2162,0.0855,0.0295,0.0,0.0,0.0,0.0,0.0,0.0,0.0,0.0,0.0,0.0,0.0,0.0,0.0,0.0,0.0,0.0,0.0,0.0,0.0,0.0,0.0,0.0,0.0,0.0,0.056,0.1566,0.1566,0.1566,0.151,0.0448,0.0,0.0,0.0,0.0,0.0,0.0,0.0,0.0,0.0,0.0,0.0,1.4583,1.4522,1.4436,1.4142,1.3124,1.2285,1.2285,1.2279,1.2285,1.2285,1.3336,1.3173,1.0826,1.0567,1.0567,1.0567,1.0567,1.0567,1.0567,1.0735,1.15,1.3115,1.3309,1.4137,1.5724,1.4513,1.3878,1.3872,1.2528,1.1853,1.1848,1.1848,1.1848,1.1901,1.1901,1.2619,1.3878,1.3872,1.4609,1.5784,1.5778,1.5784,1.5784,1.5784,1.4997,1.392,1.392,1.3054,1.1896,1.1896,1.1068,1.0047,1.0047,1.0047,0.9756,0.8432,0.7988,0.7988,0.7988,0.7988,0.7988,0.7988,0.7988,0.7988,0.7988,0.7988,0.7988,0.7988,0.7988,0.762,0.6472,0.5033,0.3562,0.2387,0.0944,0.0,0.0,0.0,0.0,0.0,0.0,0.0,0.0,0.0,0.0,0.0,0.0,0.0,0.0,0.0,0.0,0.0,0.0,0.0,0.0,0.0,0.0,0.0,0.0,0.0,0.0,0.0,0.0,0.0,0.0,0.0,0.0,0.0,0.0,0.0,0.0,0.0,0.0,0.0,0.0,0.0,1.4536,1.4362,1.4195,1.4102,1.3779,1.3576,1.3769,1.3634,1.3583,1.3769,1.3989,1.3822,1.3082,1.2248,1.1466,1.0654,1.1295,1.1766,1.1766,1.2551,1.3467,1.4385,1.4488,1.4897,1.5771,1.5384,1.4752,1.3926,1.3488,1.2813,1.1896,1.1896,1.2382,1.3247,1.3247,1.3974,1.5194,1.5194,1.5439,1.5784,1.5784,1.5289,1.4507,1.4507,1.3686,1.2528,1.2528,1.1702,1.0583,1.0583,0.9752,0.8627,0.8627,0.8627,0.8528,0.8137,0.7988,0.7988,0.7988,0.7988,0.7988,0.7988,0.7988,0.7988,0.7988,0.7988,0.7988,0.7988,0.7988,0.7641,0.6527,0.5047,0.3601,0.2407,0.0977,0.0,0.0,0.0893,0.148,0.1507,0.2425,0.2633,0.1625,0.1484,0.1094,0.0057,0.0,0.0,0.0,0.0,0.0,0.0,0.0,0.0,0.0,0.0,0.0,0.0,0.0,0.0,0.0,0.0,0.0,0.0,0.0,0.0,0.0056,0.1063,0.1593,0.1693,0.1525,0.1613,0.1591,0.0431,0.0,0.0,1.4689,1.4543,1.4459,1.4459,1.4459,1.4476,1.4656,1.4529,1.4482,1.4663,1.4429,1.4249,1.4249,1.3485,1.2681,1.1997,1.2553,1.2984,1.2984,1.3792,1.4462,1.4988,1.5115,1.5344,1.5771,1.5784,1.5391,1.4609,1.4609,1.4172,1.3355,1.3355,1.3836,1.4609,1.4609,1.5051,1.5784,1.5784,1.5784,1.5778,1.5289,1.4609,1.383,1.3343,1.2328,1.117,1.117,1.0337,0.9266,0.9266,0.8676,0.7988,0.7988,0.7988,0.7988,0.7988,0.7988,0.7988,0.7988,0.7988,0.7988,0.7988,0.7988,0.7988,0.7988,0.7988,0.7988,0.7988,0.7988,0.7795,0.721,0.5418,0.3817,0.3192,0.1368,0.0,0.0,0.1213,0.2122,0.2199,0.3504,0.3784,0.2349,0.2225,0.1609,0.0113,0.0,0.0,0.0,0.0,0.0,0.0,0.0,0.0,0.0,0.0,0.0,0.0,0.0,0.0,0.0,0.0,0.0,0.0,0.0,0.0336,0.0896,0.1914,0.2693,0.3289,0.26,0.2408,0.2278,0.0617,0.0,0.0,1.5035,1.5022,1.5008,1.5008,1.5008,1.5015,1.5035,1.5022,1.5015,1.5035,1.4736,1.4543,1.4479,1.4282,1.4108,1.4088,1.4088,1.4095,1.4115,1.4369,1.4663,1.5028,1.5251,1.5531,1.5771,1.5784,1.5784,1.5784,1.5784,1.5784,1.5784,1.5784,1.5784,1.5784,1.5784,1.5784,1.5784,1.5784,1.573,1.5581,1.4364,1.3776,1.3488,1.2237,1.0974,0.985,0.985,0.9069,0.7988,0.7988,0.7988,0.7988,0.7988,0.7988,0.7988,0.7988,0.7988,0.7988,0.7988,0.7988,0.7988,0.7988,0.7988,0.7988,0.7988,0.7988,0.7988,0.7988,0.7998,0.8143,0.8428,0.6047,0.4105,0.442,0.1946,0.0,0.0,0.1231,0.2225,0.2351,0.3651,0.3968,0.2519,0.2363,0.1693,0.0115,0.0,0.0,0.0,0.0,0.0,0.0,0.0,0.0,0.0,0.0,0.0,0.0,0.0,0.0,0.0,0.0,0.0,0.0,0.0,0.0843,0.2246,0.2509,0.3475,0.4586,0.3167,0.2611,0.2278,0.0617,0.0,0.0,1.5297,1.5162,1.5008,1.5008,1.5008,1.5082,1.5257,1.5149,1.5089,1.5264,1.5044,1.477,1.4543,1.4456,1.4329,1.4108,1.4088,1.4182,1.4402,1.4482,1.475,1.5271,1.5357,1.5531,1.5771,1.5784,1.5784,1.5784,1.5784,1.5784,1.5784,1.5784,1.5784,1.5784,1.5784,1.5784,1.5784,1.5784,1.5242,1.4316,1.4022,1.2711,1.0872,1.0583,0.9608,0.8482,0.8482,0.8283,0.7988,0.7988,0.7988,0.7988,0.7988,0.7988,0.7988,0.7988,0.7988,0.7988,0.7988,0.7988,0.7988,0.7988,0.7988,0.7988,0.7988,0.7988,0.7988,0.7988,0.8133,0.8269,0.8448,0.6107,0.4203,0.4477,0.197,0.0,0.0,0.2276,0.3944,0.3931,0.6246,0.6786,0.4203,0.394,0.2871,0.0176,0.0,0.0,0.0,0.0,0.0,0.0,0.0,0.0,0.0,0.0,0.0,0.0,0.0,0.0,0.0,0.0,0.0,0.0,0.0,0.0931,0.2496,0.3669,0.4472,0.4778,0.4377,0.3518,0.2278,0.0617,0.0,0.0,1.5591,1.5471,1.5357,1.5357,1.5357,1.5411,1.5571,1.5464,1.5418,1.5571,1.5344,1.5097,1.4937,1.4683,1.4509,1.4489,1.4362,1.4349,1.4509,1.477,1.5064,1.5384,1.5524,1.5665,1.5778,1.5784,1.5784,1.5784,1.5784,1.5486,1.4949,1.4949,1.4949,1.4949,1.4949,1.5242,1.5778,1.5194,1.4507,1.3776,1.2619,1.1258,0.9948,0.9312,0.8627,0.7988,0.7988,0.7988,0.7988,0.7988,0.7988,0.7988,0.7988,0.7988,0.7988,0.7988,0.7988,0.7988,0.7988,0.7988,0.7988,0.7988,0.7988,0.7988,0.7988,0.7988,0.7988,0.7988,0.8163,0.8368,0.8455,0.6129,0.4272,0.4458,0.1947,0.0221,0.0812,0.2879,0.4622,0.5332,0.6819,0.6911,0.474,0.3858,0.2485,0.0177,0.0,0.0,0.0,0.0722,0.1087,0.1037,0.0364,0.0301,0.1013,0.0364,0.0,0.0,0.0,0.0,0.0,0.0,0.0,0.0,0.0,0.0882,0.2409,0.3312,0.4112,0.4747,0.3996,0.3176,0.2278,0.0617,0.0,0.0,1.5784,1.5784,1.5784,1.5784,1.5784,1.5784,1.5784,1.5784,1.5784,1.5784,1.5618,1.5444,1.5398,1.491,1.4689,1.4988,1.4736,1.4603,1.4649,1.5117,1.5418,1.5464,1.5698,1.5784,1.5784,1.5784,1.5784,1.5784,1.5635,1.4949,1.3926,1.368,1.3734,1.3872,1.368,1.4316,1.5439,1.4118,1.3488,1.3102,1.0872,0.9899,0.9558,0.8432,0.7988,0.7988,0.7988,0.7988,0.7988,0.7988,0.7988,0.7988,0.7988,0.7988,0.7988,0.7988,0.7988,0.7988,0.7988,0.7988,0.7988,0.7988,0.7988,0.7988,0.7988,0.7988,0.7995,0.8019,0.8194,0.8347,0.8489,0.6207,0.4282,0.4445,0.1988,0.0491,0.1813,0.3306,0.4752,0.6016,0.6421,0.592,0.4298,0.2954,0.1617,0.0119,0.0,0.0123,0.0363,0.1709,0.2619,0.2875,0.125,0.083,0.1834,0.0599,0.0,0.0,0.0,0.0,0.0,0.0,0.0,0.0,0.0,0.083,0.225,0.2401,0.3257,0.4224,0.3,0.234,0.1971,0.0555,0.0,0.0,1.5784,1.5784,1.5784,1.5784,1.5784,1.5784,1.5784,1.5784,1.5784,1.5784,1.5744,1.5665,1.5424,1.5097,1.4955,1.5008,1.4968,1.4997,1.5244,1.5344,1.5504,1.5752,1.5758,1.5784,1.5784,1.5784,1.5784,1.5784,1.4704,1.407,1.3878,1.2721,1.2818,1.3872,1.2721,1.2963,1.4118,1.277,1.1604,1.0583,1.0141,0.9312,0.8283,0.8088,0.7988,0.7988,0.7988,0.7988,0.7988,0.7988,0.7988,0.7988,0.7988,0.7988,0.7988,0.7988,0.7988,0.7988,0.7988,0.7988,0.7988,0.7988,0.7988,0.7988,0.7988,0.7988,0.8025,0.8208,0.835,0.8496,0.8648,0.6376,0.4491,0.4493,0.1991,0.0497,0.1977,0.3486,0.4522,0.4781,0.5919,0.5561,0.2802,0.232,0.1572,0.0122,0.0,0.0616,0.2025,0.2368,0.3652,0.6118,0.3557,0.153,0.0368,0.0121,0.0,0.0,0.0,0.0,0.0,0.0,0.0,0.0,0.0,0.0918,0.2445,0.2512,0.2637,0.2821,0.2583,0.1663,0.037,0.0123,0.0,0.0,1.5784,1.5784,1.5784,1.5784,1.5784,1.5784,1.5784,1.5784,1.5784,1.5784,1.5784,1.5731,1.5645,1.5371,1.5257,1.5418,1.5291,1.5317,1.5611,1.5631,1.5691,1.5771,1.514,1.48,1.48,1.5439,1.5439,1.48,1.4166,1.3199,1.1794,1.1848,1.1848,1.1794,1.1848,1.2237,1.2721,1.1409,1.0534,0.9953,0.9217,0.8528,0.7988,0.7988,0.8092,0.8153,0.8019,0.8092,0.815,0.8019,0.7988,0.7988,0.7988,0.8096,0.8163,0.8163,0.8106,0.7988,0.7988,0.7988,0.7988,0.7988,0.7988,0.8012,0.8143,0.8163,0.8208,0.8353,0.8503,0.8625,0.8699,0.7065,0.5682,0.5694,0.3862,0.2907,0.4314,0.451,0.4792,0.5469,0.4811,0.3711,0.2318,0.151,0.1101,0.1355,0.1356,0.2032,0.369,0.4637,0.573,0.6946,0.4778,0.2411,0.0,0.0,0.0,0.0,0.0,0.0,0.0,0.0,0.0,0.0,0.0,0.0432,0.1171,0.1171,0.1171,0.1171,0.1171,0.0679,0.0,0.0,0.0,0.0,1.5784,1.5784,1.5784,1.5784,1.5784,1.5784,1.5784,1.5784,1.5784,1.5784,1.5784,1.5784,1.5784,1.5571,1.5511,1.5758,1.5565,1.5518,1.5764,1.5784,1.5784,1.5784,1.4561,1.3926,1.3926,1.4561,1.4561,1.3926,1.3584,1.228,0.9998,1.1023,1.0925,1.0047,1.0681,1.1165,1.1365,1.0096,0.9558,0.9464,0.8475,0.8092,0.8092,0.8092,0.8187,0.8296,0.8106,0.814,0.8248,0.8092,0.8012,0.8092,0.8092,0.8197,0.8371,0.8371,0.8211,0.8035,0.8002,0.7988,0.7988,0.7988,0.8015,0.8113,0.8197,0.8272,0.8402,0.8459,0.8604,0.872,0.8757,0.7639,0.6692,0.6722,0.5456,0.4869,0.5881,0.5139,0.4756,0.5444,0.3556,0.2036,0.1745,0.0672,0.0678,0.2401,0.2524,0.3383,0.5345,0.6689,0.714,0.658,0.5288,0.3092,0.0,0.0,0.0185,0.0555,0.0555,0.0555,0.0555,0.0555,0.037,0.0,0.0,0.0,0.0,0.0,0.0,0.0,0.0,0.0,0.0,0.0,0.0,0.0,1.5784,1.5784,1.5784,1.5784,1.5784,1.5784,1.5784,1.5784,1.5784,1.5784,1.5784,1.5784,1.5784,1.5571,1.5511,1.5758,1.5565,1.5518,1.5764,1.5784,1.5784,1.5784,1.4561,1.3926,1.3926,1.2764,1.277,1.3926,1.2668,1.1361,0.9998,1.0096,1.0096,0.9948,0.8825,0.897,1.0047,0.8726,0.8137,0.8151,0.8245,0.8252,0.8252,0.8252,0.8343,0.8428,0.8143,0.814,0.8248,0.8092,0.8136,0.8252,0.8252,0.835,0.8465,0.8465,0.8367,0.8221,0.8029,0.7988,0.7988,0.7988,0.8147,0.8218,0.8039,0.8269,0.8469,0.8479,0.8604,0.8754,0.8841,0.77,0.6722,0.6725,0.5467,0.4548,0.464,0.4588,0.3991,0.2682,0.2327,0.1658,0.0301,0.0061,0.0678,0.2401,0.2524,0.3872,0.7055,0.736,0.6686,0.5093,0.4834,0.3204,0.0,0.0,0.0802,0.234,0.234,0.234,0.234,0.234,0.1479,0.0,0.0,0.0,0.0,0.0,0.0,0.0,0.0,0.0,0.0,0.0,0.0,0.0,1.5784,1.5784,1.5784,1.5784,1.5784,1.5784,1.5784,1.5784,1.5784,1.5784,1.5784,1.5784,1.5784,1.5732,1.5712,1.5771,1.5732,1.5712,1.5771,1.5045,1.4268,1.3403,1.3686,1.3145,1.1502,1.175,1.2139,1.2668,1.1361,1.0489,0.9998,0.9998,0.9558,0.8775,0.9118,0.913,0.8931,0.8383,0.8231,0.8319,0.8377,0.8401,0.8401,0.8401,0.8492,0.8598,0.8387,0.8411,0.852,0.8364,0.8353,0.8401,0.8401,0.8503,0.8604,0.8509,0.8442,0.835,0.8056,0.7988,0.8012,0.816,0.8153,0.7955,0.7247,0.7822,0.8295,0.7526,0.8145,0.8814,0.8871,0.8436,0.8082,0.8084,0.7619,0.6908,0.598,0.505,0.3938,0.238,0.1418,0.0601,0.0061,0.0,0.111,0.3813,0.3997,0.5404,0.8711,0.7911,0.6658,0.4969,0.3894,0.2265,0.0,0.0,0.0863,0.2524,0.2524,0.2524,0.2524,0.2524,0.1602,0.0,0.0,0.0,0.0,0.0,0.0,0.0,0.0,0.0,0.0,0.0,0.0,0.0,1.5784,1.5784,1.5784,1.5784,1.5784,1.5784,1.5784,1.5784,1.5784,1.5784,1.5784,1.5784,1.5784,1.5784,1.5784,1.5784,1.5784,1.5784,1.5784,1.4609,1.3102,1.1361,1.2183,1.2037,1.0632,1.1072,1.1736,1.2634,1.1358,1.0505,1.0217,1.0171,0.9423,0.8177,0.9125,0.9092,0.8336,0.8336,0.8394,0.8486,0.8533,0.8554,0.8554,0.8554,0.8648,0.8757,0.8554,0.8581,0.8686,0.8533,0.8513,0.8554,0.8554,0.8659,0.8754,0.8598,0.852,0.8428,0.818,0.8025,0.8015,0.817,0.7829,0.7283,0.6497,0.679,0.7116,0.6746,0.7092,0.7651,0.8097,0.8211,0.8211,0.8211,0.8211,0.7721,0.624,0.4694,0.3206,0.1699,0.0592,0.0,0.0,0.0,0.1336,0.4603,0.4868,0.6341,0.957,0.7738,0.6051,0.4889,0.2788,0.1163,0.0,0.0,0.111,0.326,0.326,0.326,0.326,0.326,0.2032,0.0,0.0,0.0,0.0,0.0,0.0,0.0,0.0,0.0,0.0,0.0,0.0,0.0,1.5784,1.5784,1.5784,1.5784,1.5784,1.5784,1.5784,1.5784,1.5784,1.5784,1.5784,1.5784,1.5784,1.5784,1.5784,1.5784,1.5784,1.5778,1.5784,1.4609,1.2711,1.0096,0.9998,1.0583,1.1853,1.0636,1.1412,1.4309,1.2867,1.1678,1.0694,1.0491,0.9719,0.8482,0.8482,0.8482,0.8482,0.8482,0.8482,0.8499,0.8652,0.8713,0.8713,0.8713,0.8808,0.8844,0.8594,0.8584,0.8689,0.8537,0.8587,0.8713,0.8713,0.8815,0.8854,0.8757,0.8604,0.8452,0.8361,0.816,0.7992,0.7992,0.7123,0.6247,0.6032,0.5212,0.4869,0.6197,0.54,0.4973,0.6422,0.67,0.67,0.67,0.67,0.6177,0.4678,0.316,0.1643,0.0176,0.0,0.0,0.0,0.0,0.1294,0.4456,0.4819,0.6301,0.9427,0.6602,0.4827,0.4691,0.1671,0.0,0.0,0.0,0.1663,0.4916,0.4916,0.4916,0.4916,0.4916,0.3139,0.0,0.0,0.0,0.0,0.0,0.0,0.0,0.0,0.0,0.0,0.0,0.0,0.0,1.5784,1.5784,1.5784,1.5784,1.5784,1.5784,1.5784,1.5784,1.5784,1.5784,1.5784,1.5784,1.5784,1.5784,1.5784,1.5784,1.5784,1.5003,1.3156,1.2721,1.1745,1.0047,1.0877,1.1187,1.0834,1.0384,1.1121,1.3105,1.0767,0.9928,1.0491,0.9514,0.8842,0.8482,0.8482,0.854,0.8642,0.8642,0.8706,0.8808,0.8797,0.8814,0.8814,0.8814,0.8844,0.8871,0.8835,0.8832,0.8807,0.8818,0.8832,0.8814,0.8814,0.8848,0.8854,0.8757,0.8679,0.8587,0.8336,0.8309,0.8088,0.7041,0.6461,0.5591,0.3767,0.384,0.416,0.3577,0.4018,0.4639,0.5085,0.514,0.514,0.514,0.514,0.4644,0.3093,0.2466,0.1643,0.0176,0.0,0.0,0.0,0.0,0.1294,0.4456,0.6769,0.8441,0.939,0.6501,0.4768,0.4691,0.1629,0.0,0.0,0.0,0.1663,0.4916,0.4916,0.4916,0.4916,0.4916,0.3139,0.0,0.0,0.0,0.0,0.0,0.0,0.0,0.0,0.0,0.0,0.0,0.0,0.0,1.5784,1.5784,1.5784,1.5784,1.5784,1.5784,1.5784,1.5784,1.5784,1.5784,1.5784,1.5784,1.5784,1.5784,1.5784,1.5784,1.5784,1.4711,1.2091,1.2382,1.1932,1.0252,1.1337,1.1741,1.1121,1.1143,1.1634,1.2677,1.0447,0.981,1.0661,0.9293,0.8662,0.8662,0.8662,0.8713,0.8801,0.8801,0.8801,0.8885,0.8885,0.8885,0.8885,0.8885,0.8885,0.8885,0.8885,0.8885,0.8885,0.8885,0.8885,0.8885,0.8885,0.8885,0.8854,0.8757,0.871,0.8659,0.8418,0.8418,0.8016,0.5986,0.5369,0.4714,0.2583,0.2346,0.2474,0.2241,0.2488,0.2908,0.3465,0.3576,0.3576,0.3576,0.3576,0.3255,0.2333,0.1702,0.0973,0.0118,0.0,0.0,0.0,0.0525,0.2195,0.5336,0.7893,0.9317,0.9378,0.6993,0.5586,0.5627,0.2513,0.0907,0.0964,0.0306,0.1356,0.3936,0.3936,0.3936,0.3936,0.3936,0.2524,0.0,0.0,0.0,0.0,0.0,0.0,0.0,0.0,0.0,0.0,0.0,0.0,0.0,1.5784,1.5784,1.5784,1.5784,1.5784,1.5784,1.5784,1.5784,1.5778,1.5635,1.573,1.5778,1.5635,1.5635,1.5683,1.5778,1.5784,1.4758,1.2237,1.3125,1.2791,1.0663,1.1556,1.2078,1.2078,1.2317,1.2474,1.2644,1.1225,1.0679,1.0891,0.9537,0.8885,0.8885,0.8885,0.8885,0.8885,0.8885,0.8885,0.8885,0.8885,0.8885,0.8885,0.8885,0.8885,0.8885,0.8885,0.8885,0.8885,0.8885,0.8885,0.8885,0.8885,0.8885,0.8854,0.8771,0.873,0.8699,0.8543,0.8404,0.7693,0.4882,0.4088,0.3642,0.2143,0.0877,0.0391,0.1702,0.0942,0.0392,0.1733,0.2012,0.2012,0.2012,0.2012,0.1979,0.1984,0.0869,0.0,0.0,0.0,0.0,0.0,0.1475,0.3665,0.6682,0.836,0.9286,0.9354,0.7804,0.6997,0.7102,0.4059,0.2553,0.2711,0.1224,0.111,0.2524,0.2647,0.2708,0.2708,0.2708,0.1787,0.0185,0.0062,0.0,0.0,0.0,0.0,0.0,0.0,0.0,0.0,0.0,0.0,0.0,1.5784,1.5784,1.5784,1.5784,1.5784,1.5784,1.5784,1.5784,1.5439,1.4459,1.5194,1.5439,1.4411,1.4316,1.4704,1.573,1.5784,1.5146,1.3584,1.2883,1.2318,1.1814,1.1423,1.112,1.1024,1.1063,1.1229,1.1476,1.0023,0.934,0.9372,0.9047,0.8885,0.8885,0.8885,0.8885,0.8885,0.8885,0.8885,0.8885,0.8885,0.8885,0.8885,0.8885,0.8885,0.8885,0.8885,0.8885,0.8885,0.8885,0.8885,0.8885,0.8885,0.8885,0.8875,0.8844,0.8834,0.8801,0.8703,0.7871,0.661,0.4693,0.3411,0.2222,0.0776,0.0223,0.0112,0.039,0.0224,0.0112,0.0392,0.0504,0.0504,0.0504,0.0504,0.0451,0.0461,0.0173,0.0,0.0,0.0,0.0,0.0,0.2522,0.4911,0.6749,0.845,0.935,0.9265,0.7863,0.7079,0.7102,0.5318,0.4328,0.4404,0.3991,0.3383,0.2524,0.3752,0.4364,0.4364,0.4364,0.3506,0.191,0.0555,0.0,0.0,0.0,0.0,0.0,0.0,0.0,0.0,0.0,0.0,0.0,1.5784,1.5784,1.5784,1.5784,1.5784,1.5784,1.5784,1.5289,1.4657,1.3974,1.3926,1.3932,1.3926,1.3926,1.4411,1.5683,1.5784,1.4997,1.3054,1.3035,1.2615,1.1508,1.1037,1.0815,1.0908,1.0217,0.9937,1.0025,0.9265,0.8885,0.8885,0.8885,0.8885,0.8885,0.8885,0.8885,0.8885,0.8885,0.8885,0.8885,0.8885,0.8885,0.8885,0.8885,0.8885,0.8826,0.8097,0.7875,0.7931,0.8657,0.8885,0.8885,0.8885,0.8885,0.8885,0.8885,0.838,0.7861,0.7789,0.6711,0.525,0.3627,0.2697,0.1807,0.0337,0.0,0.0,0.0,0.0,0.0,0.0,0.0,0.0,0.0,0.0,0.0,0.0,0.0,0.0,0.0,0.0,0.0595,0.2081,0.4418,0.648,0.7987,0.8926,0.9378,0.9371,0.8623,0.8245,0.8365,0.68,0.5975,0.6077,0.5284,0.4488,0.3629,0.369,0.3752,0.3752,0.2954,0.2094,0.1233,0.037,0.0432,0.1109,0.0306,0.049,0.1109,0.0306,0.0,0.0,0.0,0.0,0.0,1.5784,1.5784,1.5784,1.5784,1.5784,1.5784,1.5784,1.4704,1.3824,1.3584,1.2571,1.2334,1.344,1.3974,1.4561,1.5384,1.5683,1.4806,1.2382,1.3226,1.2859,1.0737,1.0498,1.0526,1.0726,0.9537,0.8885,0.8885,0.8885,0.8885,0.8885,0.8885,0.8885,0.8885,0.8885,0.8885,0.8885,0.8885,0.8885,0.8885,0.8885,0.8885,0.8881,0.8605,0.8546,0.8322,0.6869,0.6478,0.6924,0.838,0.8885,0.8885,0.8885,0.8885,0.8826,0.8602,0.7651,0.6644,0.6366,0.5262,0.3774,0.2512,0.2011,0.1492,0.0283,0.0,0.0,0.0,0.0,0.0,0.0,0.0,0.0,0.0,0.0,0.0,0.0,0.0,0.0,0.0,0.0242,0.1564,0.4439,0.6201,0.7788,0.9302,0.9442,0.95,0.9605,0.9275,0.9146,0.9383,0.7941,0.721,0.7421,0.6322,0.559,0.5284,0.369,0.3076,0.3259,0.1602,0.0863,0.0802,0.0555,0.1233,0.2399,0.0973,0.1219,0.2337,0.0669,0.0,0.0,0.0,0.0,0.0,1.5784,1.5784,1.5784,1.5784,1.5784,1.5784,1.5784,1.4704,1.3488,1.2334,1.1994,1.1945,1.2139,1.4178,1.5146,1.4214,1.5146,1.5194,1.3734,1.2981,1.1957,1.0491,0.9608,0.9133,0.921,0.8992,0.8885,0.8885,0.8885,0.8885,0.8885,0.8885,0.8885,0.8885,0.8885,0.8885,0.8885,0.8885,0.8885,0.8885,0.8885,0.8885,0.8771,0.7485,0.698,0.6813,0.5306,0.5641,0.6924,0.838,0.8885,0.8885,0.8885,0.8885,0.8657,0.7371,0.6869,0.6422,0.5139,0.3671,0.2457,0.2234,0.1218,0.0235,0.0059,0.0,0.0,0.0,0.0,0.0,0.0,0.0,0.0,0.0,0.0,0.0,0.0,0.0,0.0,0.0,0.129,0.2882,0.4704,0.6404,0.7947,0.9469,0.9693,0.9717,0.9615,0.8368,0.7696,0.7728,0.7469,0.7345,0.7421,0.8529,0.8468,0.7055,0.5343,0.5343,0.6686,0.4976,0.4242,0.418,0.277,0.2278,0.2462,0.2273,0.2274,0.2339,0.0677,0.0,0.0,0.0,0.0,0.0,1.5784,1.5784,1.5784,1.5784,1.5784,1.5581,1.4854,1.3638,1.2328,1.1023,1.019,1.0288,1.175,1.359,1.4507,1.3974,1.3734,1.306,1.1794,1.1447,1.0699,0.941,0.9042,0.8885,0.8885,0.8885,0.8885,0.8885,0.8885,0.8885,0.8885,0.8885,0.8885,0.8885,0.8885,0.8885,0.8885,0.8885,0.8885,0.8885,0.8885,0.8432,0.7595,0.6924,0.62,0.5475,0.5641,0.5641,0.5808,0.81,0.8885,0.8885,0.8885,0.8824,0.8497,0.7127,0.6031,0.4981,0.3616,0.2124,0.0991,0.1,0.0475,0.0,0.0,0.0,0.0,0.0,0.0,0.0,0.0,0.0,0.0,0.0,0.0,0.0,0.0,0.0,0.0364,0.1292,0.2831,0.4487,0.6139,0.7792,0.8997,0.967,0.9785,0.9791,0.973,0.9112,0.8711,0.8711,0.8711,0.8711,0.8711,0.8526,0.8097,0.736,0.571,0.5284,0.5955,0.4303,0.4057,0.4855,0.4119,0.4363,0.5093,0.323,0.3053,0.3564,0.0977,0.0,0.0,0.0,0.0,0.0]}]]